[[{"header":{"parameterUnit":"m.s-1","parameterCategory":1,"la1":30.6,"la2":28.766,"lo1":-90.7593,"lo2":-88.6598,"dy":0.0162,"dx":0.0183,"nx":116,"ny":114,"refTime":"2023-06-22T12:00:00:Z","depth":0,"parameterNumber":2,"parameterNumberName":"U-component_of_WINDS"},"data":[0.0,0.0,0.0,0.0,0.0,0.0,0.0,0.0,0.0,0.0,0.0,0.0,0.0,0.0,0.0,0.0,0.0,0.0,0.0,0.0,0.0,0.0,0.0,0.0,0.0,0.0,0.0,0.0,0.0,0.0,0.0,0.0,0.0,0.0,0.0,0.0,0.0,0.0,0.0,0.0,0.0,0.0,0.0,0.0,0.0,0.0,0.0,0.0,0.0,0.0,0.0,0.0,0.0,0.0,0.0,0.0,0.0,0.0,0.0,0.0,0.0,0.0,0.0,0.0,0.0,0.0,0.0,0.0,0.0,0.0,0.0,0.0,0.0,0.0,0.0,0.0,0.0,0.0,0.0,0.0,0.0,0.0,0.0,0.0,0.0,0.0,0.0,0.0,0.0,0.0,0.0,0.0,0.0,0.0,0.0,0.0,0.0,0.0,0.0,0.0,0.0,0.0,0.0,0.0,0.0,0.0,0.0,0.0,0.0,0.0,0.0,0.0,0.0,0.0,0.0,0.0,0.0,0.0,0.0,0.0,0.0,0.0,0.0,0.0,0.0,0.0,0.0,0.0,0.0,0.0,0.0,0.0,0.0,0.0,0.0,0.0,0.0,0.0,0.0,0.0,0.0,0.0,0.0,0.0,0.0,0.0,0.0,0.0,0.0,0.0,0.0,0.0,0.0,0.0,0.0,0.0,0.0,0.0,0.0,0.0,0.0,0.0,0.0,0.0,0.0,0.0,0.0,0.0,0.0,0.0,0.0,0.0,0.0,0.0,0.0,0.0,0.0,0.0,0.0,0.0,0.0,0.0,0.0,0.0,0.0,0.0,0.0,0.0,0.0,0.0,0.0,0.0,0.0,0.0,0.0,0.0,0.0,0.0,0.0,0.0,0.0,0.0,0.0,0.0,0.0,0.0,0.0,0.0,0.0,0.0,0.0,0.0,0.0,0.0,0.0,0.0,0.0,0.0,0.0,0.0,0.0,0.0,0.0,0.0,0.0,0.0,0.0,0.0,0.0,0.0,0.0,0.0,0.0,0.0,0.0,0.0,0.0,0.0,0.0,0.0,0.0,0.0,0.0,0.0,0.0,0.0,0.0,0.0,0.0,0.0,0.0,0.0,0.0,0.0,0.0,0.0,0.0,0.0,0.0,0.0,0.0,0.0,0.0,0.0,0.0,0.0,0.0,0.0,0.0,0.0,0.0,0.0,0.0,0.0,0.0,0.0,0.0,0.0,0.0,0.0,0.0,0.0,0.0,0.0,0.0,0.0,0.0,0.0,0.0,0.0,0.0,0.0,0.0,0.0,0.0,0.0,0.0,0.0,0.0,0.0,0.0,0.0,0.0,0.0,0.0,0.0,0.0,0.0,0.0,0.0,0.0,0.0,0.0,0.0,0.0,0.0,0.0,0.0,0.0,0.0,0.0,0.0,0.0,0.0,0.0,0.0,0.0,0.0,0.0,0.0,0.0,0.0,0.0,0.0,0.0,0.0,0.0,0.0,0.0,0.0,0.0,0.0,0.0,0.0,0.0,0.0,0.0,0.0,0.0,0.0,0.0,0.0,0.0,0.0,0.0,0.0,0.0,0.0,0.0,0.0,0.0,0.0,0.0,0.0,0.0,0.0,0.0,0.0,0.0,0.0,0.0,0.0,0.0,0.0,0.0,0.0,0.0,0.0,0.0,0.0,0.0,0.0,0.0,0.0,0.0,0.0,0.0,0.0,0.0,0.0,0.0,0.0,0.0,0.0,0.0,0.0,0.0,0.0,0.0,0.0,0.0,0.0,0.0,0.0,0.0,0.0,0.0,0.0,0.0,0.0,0.0,0.0,0.0,0.0,0.0,0.0,0.0,0.0,0.0,0.0,0.0,0.0,0.0,0.0,0.0,0.0,0.0,0.0,0.0,0.0,0.0,0.0,0.0,0.0,0.0,0.0,0.0,0.0,0.0,0.0,0.0,0.0,0.0,0.0,0.0,0.0,0.0,0.0,0.0,0.0,0.0,0.0,0.0,0.0,0.0,0.0,0.0,0.0,0.0,0.0,0.0,0.0,0.0,0.0,0.0,0.0,0.0,0.0,0.0,0.0,0.0,0.0,0.0,0.0,0.0,0.0,0.0,0.0,0.0,0.0,0.0,0.0,0.0,0.0,0.0,0.0,0.0,0.0,0.0,0.0,0.0,0.0,0.0,0.0,0.0,0.0,0.0,0.0,0.0,0.0,0.0,0.0,0.0,0.0,0.0,0.0,0.0,0.0,0.0,0.0,0.0,0.0,0.0,0.0,0.0,0.0,0.0,0.0,0.0,0.0,0.0,0.0,0.0,0.0,0.0,0.0,0.0,0.0,0.0,0.0,0.0,0.0,0.0,0.0,0.0,0.0,0.0,0.0,0.0,0.0,0.0,0.0,0.0,0.0,0.0,0.0,0.0,0.0,0.0,0.0,0.0,0.0,0.0,0.0,0.0,0.0,0.0,0.0,0.0,0.0,0.0,0.0,0.0,0.0,0.0,0.0,0.0,0.0,0.0,0.0,0.0,0.0,0.0,0.0,0.0,0.0,0.0,0.0,0.0,0.0,0.0,0.0,0.0,0.0,0.0,0.0,0.0,0.0,0.0,0.0,0.0,0.0,0.0,0.0,0.0,0.0,0.0,0.0,0.0,0.0,0.0,0.0,0.0,0.0,0.0,0.0,0.0,0.0,0.0,0.0,0.0,0.0,0.0,0.0,0.0,0.0,0.0,0.0,0.0,0.0,0.0,0.0,0.0,0.0,0.0,0.0,0.0,0.0,0.0,0.0,0.0,0.0,0.0,0.0,0.0,0.0,0.0,0.0,0.0,0.0,0.0,0.0,0.0,0.0,0.0,0.0,0.0,0.0,0.0,0.0,0.0,0.0,0.0,0.0,0.0,0.0,0.0,0.0,0.0,0.0,0.0,0.0,0.0,0.0,0.0,0.0,0.0,0.0,0.0,0.0,0.0,0.0,0.0,0.0,0.0,0.0,0.0,0.0,0.0,0.0,0.0,0.0,0.0,0.0,0.0,0.0,0.0,0.0,0.0,0.0,0.0,0.0,0.0,0.0,0.0,0.0,0.0,0.0,0.0,0.0,0.0,0.0,0.0,0.0,0.0,0.0,0.0,0.0,0.0,0.0,0.0,0.0,0.0,0.0,0.0,0.0,0.0,0.0,0.0,0.0,0.0,0.0,0.0,0.0,0.0,0.0,0.0,0.0,0.0,0.0,0.0,0.0,0.0,0.0,0.0,0.0,0.0,0.0,0.0,0.0,0.0,0.0,0.0,0.0,0.0,0.0,0.0,0.0,0.0,0.0,0.0,0.0,0.0,0.0,0.0,0.0,0.0,0.0,0.0,0.0,0.0,0.0,0.0,0.0,0.0,0.0,0.0,0.0,0.0,0.0,0.0,0.0,0.0,0.0,0.0,0.0,0.0,0.0,0.0,0.0,0.0,0.0,0.0,0.0,0.0,0.0,0.0,0.0,0.0,0.0,0.0,0.0,0.0,0.0,0.0,0.0,0.0,0.0,0.0,0.0,0.0,0.0,0.0,0.0,0.0,0.0,0.0,0.0,0.0,0.0,0.0,0.0,0.0,0.0,0.0,0.0,0.0,0.0,0.0,0.0,0.0,0.0,0.0,0.0,0.0,0.0,0.0,0.0,0.0,0.0,0.0,0.0,0.0,0.0,0.0,0.0,0.0,0.0,0.0,0.0,0.0,0.0,0.0,0.0,0.0,0.0,0.0,0.0,0.0,0.0,0.0,0.0,0.0,0.0,0.0,0.0,0.0,0.0,0.0,0.0,0.0,0.0,0.0,0.0,0.0,0.0,0.0,0.0,0.0,0.0,0.0,0.0,0.0,0.0,0.0,0.0,0.0,0.0,0.0,0.0,0.0,0.0,0.0,0.0,0.0,0.0,0.0,0.0,0.0,0.0,0.0,0.0,0.0,0.0,0.0,0.0,0.0,0.0,0.0,0.0,0.0,0.0,0.0,0.0,0.0,0.0,0.0,0.0,0.0,0.0,0.0,0.0,0.0,0.0,0.0,0.0,0.0,0.0,0.0,0.0,0.0,0.0,0.0,0.0,0.0,0.0,0.0,0.0,0.0,0.0,0.0,0.0,0.0,0.0,0.0,0.0,0.0,0.0,0.0,0.0,0.0,0.0,0.0,0.0,0.0,0.0,0.0,0.0,0.0,0.0,0.0,0.0,0.0,0.0,0.0,0.0,0.0,0.0,0.0,0.0,0.0,0.0,0.0,0.0,0.0,0.0,0.0,0.0,0.0,0.0,0.0,0.0,0.0,0.0,0.0,0.0,0.0,0.0,0.0,0.0,0.0,0.0,0.0,0.0,0.0,0.0,0.0,0.0,0.0,0.0,0.0,0.0,0.0,0.0,0.0,0.0,0.0,0.0,0.0,0.0,0.0,0.0,0.0,0.0,0.0,0.0,0.0,0.0,0.0,0.0,0.0,0.0,0.0,0.0,0.0,0.0,0.0,0.0,0.0,0.0,0.0,0.0,0.0,0.0,0.0,0.0,0.0,0.0,0.0,0.0,0.0,0.0,0.0,0.0,0.0,0.0,0.0,0.0,0.0,0.0,0.0,0.0,0.0,0.0,0.0,0.0,0.0,0.0,0.0,0.0,0.0,0.0,0.0,0.0,0.0,0.0,0.0,0.0,0.0,0.0,0.0,0.0,0.0,0.0,0.0,0.0,0.0,0.0,0.0,0.0,0.0,0.0,0.0,0.0,0.0,0.0,0.0,0.0,0.0,0.0,0.0,0.0,0.0,0.0,0.0,0.0,0.0,0.0,0.0,0.0,0.0,0.0,0.0,0.0,0.0,0.0,0.0,0.0,0.0,0.0,0.0,0.0,0.0,0.0,0.0,0.0,0.0,0.0,0.0,0.0,0.0,0.0,0.0,0.0,0.0,0.0,0.0,0.0,0.0,0.0,0.0,0.0,0.0,0.0,0.0,0.0,0.0,0.0,0.0,0.0,0.0,0.0,0.0,0.0,0.0,0.0,0.0,0.0,0.0,0.0,0.0,0.0,0.0,0.0,0.0,0.0,0.0,0.0,0.0,0.0,0.0,0.0,0.0,0.0,0.0,0.0,0.0,0.0,0.0,0.0,0.0,0.0,0.0,0.0,0.0,0.0,0.0,0.0,0.0,0.0,0.0,0.0,0.0,0.0,0.0,0.0,0.0,0.0,0.0,0.0,0.0,0.0,0.0,0.0,0.0,0.0,0.0,0.0,0.0,0.0,0.0,0.0,0.0,0.0,0.0,0.0,0.0,0.0,0.0,0.0,0.0,0.0,0.0,0.0,0.0,0.0,0.0,0.0,0.0,0.0,0.0,0.0,0.0,0.0,0.0,0.0,0.0,0.0,0.0,0.0,0.0,0.0,0.0,0.0,0.0,0.0,0.0,0.0,0.0,0.0,0.0,0.0,0.0,0.0,0.0,0.0,0.0,0.0,0.0,0.0,0.0,0.0,0.0,0.0,0.0,0.0,0.0,0.0,0.0,0.0,0.0,0.0,0.0,0.0,0.0,0.0,0.0,0.0,0.0,0.0,0.0,0.0,0.0,0.0,0.0,0.0,0.0,0.0,0.0,0.0,0.0,0.0,0.0,0.0,0.0,0.0,0.0,0.0,0.0,0.0,0.0,0.0,0.0,0.0,0.0,0.0,0.0,0.0,0.0,0.0,0.0,0.0,0.0,0.0,0.0,0.0,0.0,0.0,0.0,0.0,0.0,0.0,0.0,0.0,0.0,0.0,0.0,0.0,0.0,0.0,0.0,0.0,0.0,0.0,0.0,0.0,0.0,0.0,0.0,0.0,0.0,0.0,0.0,0.0,0.0,0.0,0.0,0.0,0.0,0.0,0.0,0.0,0.0,0.0,0.0,0.0,0.0,0.0,0.0,0.0,0.0,0.0,0.0,0.0,0.0,0.0,0.0,0.0,0.0,0.0,0.0,0.0,0.0,0.0,0.0,0.0,0.0,0.0,0.0,0.0,0.0,0.0,0.0,0.0,0.0,0.0,0.0,0.0,0.0,0.0,0.0,0.0,0.0,0.0,0.0,0.0,0.0,0.0,0.0,0.0,-2.2036,0.0,0.0,0.0,0.0,0.0,0.0,0.0,0.0,0.0,0.0,0.0,0.0,0.0,0.0,0.0,0.0,0.0,0.0,0.0,0.0,0.0,0.0,0.0,0.0,0.0,0.0,0.0,0.0,0.0,0.0,0.0,0.0,0.0,0.0,0.0,0.0,0.0,0.0,0.0,0.0,0.0,0.0,0.0,0.0,0.0,0.0,0.0,0.0,0.0,0.0,0.0,0.0,0.0,0.0,0.0,0.0,0.0,0.0,0.0,0.0,0.0,0.0,0.0,0.0,0.0,0.0,0.0,0.0,0.0,0.0,0.0,0.0,0.0,0.0,0.0,0.0,0.0,0.0,0.0,0.0,0.0,0.0,0.0,0.0,0.0,0.0,0.0,0.0,0.0,0.0,0.0,0.0,0.0,0.0,0.0,0.0,0.0,0.0,0.0,0.0,0.0,0.0,0.0,0.0,0.0,0.0,0.0,0.0,0.0,0.0,0.0,0.0,0.0,0.0,0.0,0.0,-2.2488,0.0,0.0,0.0,0.0,0.0,0.0,0.0,0.0,0.0,0.0,0.0,0.0,0.0,0.0,0.0,0.0,0.0,0.0,0.0,0.0,0.0,0.0,0.0,0.0,0.0,0.0,0.0,0.0,0.0,0.0,0.0,0.0,0.0,0.0,0.0,0.0,0.0,0.0,0.0,0.0,0.0,0.0,0.0,0.0,0.0,0.0,0.0,0.0,0.0,0.0,0.0,0.0,0.0,0.0,0.0,0.0,0.0,0.0,0.0,0.0,0.0,0.0,0.0,0.0,0.0,0.0,0.0,0.0,0.0,0.0,0.0,0.0,0.0,0.0,0.0,0.0,0.0,0.0,0.0,0.0,0.0,0.0,0.0,0.0,0.0,0.0,0.0,0.0,0.0,0.0,0.0,0.0,0.0,0.0,0.0,0.0,0.0,0.0,0.0,0.0,0.0,0.0,0.0,0.0,0.0,0.0,0.0,0.0,-2.9009,-2.8689,-2.8628,-2.8553,-2.8079,-2.721,-2.5203,-2.3486,-2.2225,0.0,0.0,0.0,0.0,0.0,0.0,0.0,0.0,0.0,0.0,0.0,0.0,0.0,0.0,0.0,0.0,0.0,0.0,0.0,0.0,0.0,0.0,0.0,0.0,0.0,0.0,0.0,0.0,0.0,0.0,0.0,0.0,0.0,0.0,0.0,0.0,0.0,0.0,-1.7952,-1.7495,-1.7974,-1.8469,-1.9001,-1.9475,0.0,0.0,0.0,0.0,0.0,0.0,0.0,0.0,0.0,0.0,0.0,0.0,0.0,0.0,0.0,0.0,0.0,0.0,0.0,0.0,0.0,0.0,0.0,0.0,0.0,0.0,0.0,0.0,0.0,0.0,0.0,0.0,0.0,0.0,0.0,0.0,0.0,0.0,0.0,0.0,0.0,0.0,0.0,-1.5422,-1.6008,0.0,0.0,0.0,0.0,0.0,0.0,0.0,0.0,0.0,0.0,0.0,0.0,0.0,0.0,-3.1099,-3.1428,-3.1875,-3.2468,-3.208,-3.1929,-3.1933,-3.0729,-3.0025,-2.971,-2.9103,0.0,-2.4849,-2.4402,0.0,0.0,0.0,0.0,0.0,0.0,0.0,0.0,0.0,0.0,0.0,0.0,0.0,0.0,0.0,0.0,0.0,0.0,0.0,0.0,0.0,0.0,0.0,0.0,0.0,0.0,0.0,0.0,0.0,0.0,0.0,0.0,0.0,0.0,0.0,0.0,-1.7734,-1.7775,-1.784,-1.8081,-1.8464,-1.8967,-1.9161,-1.9609,-2.0241,-2.0479,0.0,0.0,0.0,0.0,0.0,0.0,0.0,0.0,0.0,0.0,0.0,0.0,0.0,0.0,0.0,0.0,0.0,0.0,0.0,0.0,0.0,0.0,0.0,0.0,0.0,0.0,0.0,0.0,0.0,0.0,0.0,0.0,0.0,0.0,0.0,0.0,0.0,0.0,0.0,-1.6287,-1.6094,-1.5776,-1.6989,-1.8173,0.0,0.0,0.0,0.0,0.0,0.0,0.0,0.0,0.0,-2.9352,-3.0642,-3.1964,-3.3313,-3.3953,-3.4853,-3.5972,-3.5718,-3.571,-3.5897,-3.5346,-3.4673,-3.3866,-3.304,-3.1453,-2.9274,-2.7108,-2.6005,-2.5642,0.0,0.0,0.0,0.0,0.0,-2.4414,0.0,0.0,0.0,0.0,0.0,0.0,0.0,0.0,0.0,0.0,0.0,0.0,0.0,0.0,0.0,-1.7126,0.0,0.0,0.0,0.0,0.0,0.0,0.0,0.0,0.0,0.0,0.0,-1.741,-1.7825,-1.8141,-1.8417,-1.8555,-1.8805,-1.9212,-1.9055,-1.928,-1.9723,-1.9492,-1.9892,0.0,0.0,0.0,0.0,0.0,0.0,0.0,0.0,0.0,0.0,0.0,0.0,0.0,0.0,0.0,0.0,0.0,0.0,0.0,0.0,0.0,0.0,0.0,0.0,0.0,0.0,0.0,0.0,0.0,0.0,0.0,0.0,0.0,0.0,0.0,0.0,0.0,0.0,-1.6537,-1.6905,-1.5839,-1.7196,-1.8273,0.0,0.0,0.0,0.0,0.0,0.0,-2.6542,-2.8688,-3.0442,-3.1756,-3.3354,-3.4716,-3.583,-3.6407,-3.7529,-3.9186,-3.8848,-3.8959,-3.9479,-3.9369,-3.8569,-3.7239,-3.6336,-3.5023,-3.3293,-2.9824,-2.7934,-2.7152,-2.6539,-2.6201,-2.5944,-2.5338,-2.5059,-2.4933,0.0,0.0,0.0,0.0,0.0,0.0,0.0,0.0,0.0,0.0,0.0,0.0,0.0,0.0,-1.6573,-1.6531,-1.7071,-1.6888,0.0,0.0,0.0,0.0,0.0,0.0,0.0,0.0,0.0,-1.741,-1.892,-1.9447,-1.897,-1.9497,-1.9736,-1.9743,-1.9239,-1.9625,-2.0575,-1.9748,-1.9425,-1.9578,0.0,0.0,0.0,0.0,0.0,0.0,0.0,0.0,0.0,0.0,0.0,0.0,0.0,0.0,0.0,0.0,0.0,0.0,0.0,0.0,0.0,0.0,0.0,0.0,0.0,0.0,0.0,0.0,0.0,0.0,0.0,0.0,0.0,0.0,0.0,0.0,0.0,0.0,0.0,-1.5907,-1.7375,0.0,0.0,0.0,0.0,-2.2215,-2.3195,-2.4748,-2.7227,-2.9496,-3.1713,-3.3874,-3.5678,-3.7541,-3.9432,-3.9044,-3.979,-4.1616,-4.0834,-4.1038,-4.2072,-4.1317,-4.0123,-3.8603,-3.8545,-3.7606,-3.5789,-3.1751,-2.961,-2.8877,-2.884,-2.8345,-2.7669,-2.7622,-2.6711,-2.545,0.0,0.0,0.0,0.0,0.0,0.0,0.0,0.0,0.0,0.0,0.0,0.0,0.0,-1.6389,-1.6452,-1.6452,-1.6578,-1.6378,-1.5645,0.0,0.0,0.0,0.0,0.0,0.0,0.0,-1.9526,-2.0294,-2.1315,-2.1457,-2.0807,-2.1003,-2.0642,-1.9799,-1.9595,-1.9975,-2.07,-1.95,-1.9391,-1.9916,-1.9295,-1.9983,0.0,0.0,0.0,0.0,0.0,0.0,0.0,0.0,0.0,0.0,0.0,0.0,0.0,0.0,0.0,0.0,0.0,0.0,0.0,0.0,0.0,0.0,0.0,0.0,0.0,0.0,0.0,0.0,0.0,0.0,0.0,0.0,0.0,0.0,0.0,0.0,0.0,-1.8952,-1.9821,0.0,-1.9415,-1.9523,-2.0259,-2.1771,-2.3626,-2.5567,-2.7661,-3.1099,-3.3777,-3.5526,-3.7239,-3.8723,-3.9951,-4.0134,-4.0544,-4.1206,-4.0824,-4.1131,-4.1956,-4.1185,-4.0689,-4.0381,-3.9329,-3.8202,-3.6923,-3.4926,-3.333,-3.1935,-3.0381,-2.9604,-2.925,-2.8415,-2.7976,-2.7646,0.0,0.0,0.0,0.0,0.0,0.0,0.0,0.0,0.0,0.0,0.0,-1.4663,-1.5235,-1.6153,-1.6671,-1.6454,-1.659,-1.6446,-1.5944,0.0,0.0,0.0,-1.591,0.0,0.0,-1.9776,-2.0976,-2.2247,-2.2627,-2.255,-2.2113,-2.2315,-2.182,-2.0783,-2.0746,-2.1264,-2.2021,-2.0668,-1.9958,-1.9696,-1.8996,-1.9709,-2.111,0.0,0.0,0.0,0.0,0.0,0.0,0.0,0.0,0.0,0.0,0.0,0.0,0.0,0.0,0.0,0.0,0.0,0.0,0.0,0.0,0.0,0.0,0.0,0.0,0.0,0.0,0.0,0.0,0.0,0.0,0.0,0.0,0.0,0.0,0.0,-2.0908,-2.0919,-2.1633,-2.1718,-2.0726,-2.069,-2.1252,-2.2587,-2.4305,-2.6274,-2.8641,-3.1601,-3.4068,-3.5937,-3.7345,-3.857,-3.9688,-4.0052,-4.0443,-4.0903,-4.0806,-4.1145,-4.1775,-4.1283,-4.0956,-4.0697,-3.9639,-3.8435,-3.7174,-3.6644,-3.555,-3.4064,-3.2436,-3.14,-3.0711,-2.9868,-2.9219,-2.8623,0.0,0.0,0.0,0.0,0.0,0.0,0.0,0.0,0.0,0.0,-1.3725,-1.4113,-1.4252,-1.6068,-1.7082,-1.652,-1.6979,-1.7077,-1.6504,-1.5961,0.0,0.0,0.0,0.0,-1.94,-2.0484,-2.1681,-2.3038,-2.2842,-2.2768,-2.2793,-2.3391,-2.3335,-2.2729,-2.2628,-2.3367,-2.4562,-2.3188,-2.1158,-1.8909,-1.9907,-1.9973,-1.9559,0.0,0.0,0.0,0.0,0.0,0.0,0.0,0.0,0.0,0.0,0.0,0.0,0.0,0.0,0.0,0.0,0.0,0.0,0.0,0.0,0.0,0.0,0.0,0.0,0.0,0.0,0.0,0.0,0.0,0.0,0.0,0.0,0.0,-1.8647,-2.1144,-2.2719,-2.1588,-2.2569,-2.3109,-2.2477,-2.2516,-2.3225,-2.4701,-2.5194,-2.6795,-2.9905,-3.0817,-3.2418,-3.5011,-3.5859,-3.7087,-3.881,-3.881,-3.9493,-4.0792,-4.0775,-4.1098,-4.1707,-4.169,-4.0898,-3.9542,-3.9525,-3.8447,-3.6761,-3.6761,-3.6048,-3.4981,-3.5009,-3.3792,-3.2051,-3.2018,-3.0472,-2.8231,0.0,0.0,0.0,0.0,0.0,0.0,0.0,0.0,0.0,0.0,-1.2824,-1.3265,-1.3157,-1.4484,-1.5477,-1.5742,-1.5613,-1.5613,-1.583,0.0,0.0,0.0,0.0,0.0,-2.188,-2.3487,-2.4723,-2.5585,-2.6016,-2.5737,-2.4823,-2.5023,-2.4513,-2.3414,-2.2843,-2.3068,-2.3858,-2.3325,-2.2442,-2.1338,-2.0794,-2.0676,-2.0667,0.0,0.0,0.0,0.0,0.0,0.0,0.0,0.0,0.0,0.0,0.0,0.0,0.0,0.0,0.0,0.0,0.0,0.0,0.0,0.0,0.0,0.0,0.0,0.0,0.0,0.0,0.0,0.0,0.0,0.0,0.0,0.0,-2.4426,-2.3036,-2.3265,-2.3853,-2.4545,-2.4605,-2.4659,-2.473,-2.48,-2.4896,-2.4993,-2.5844,-2.66,-2.7184,-2.8539,-3.0211,-3.2323,-3.2967,-3.4522,-3.7074,-3.7074,-3.7601,-3.8641,-3.81,-3.85,-3.9691,-3.9127,-3.9498,-4.0471,-3.9909,-3.8965,-3.7856,-3.7856,-3.663,-3.4804,-3.4925,-3.4134,-3.2829,-3.2489,-3.0629,-2.8206,0.0,0.0,0.0,0.0,0.0,0.0,0.0,0.0,0.0,0.0,-1.2433,-1.2958,-1.2498,-1.3838,-1.4915,-1.5223,-1.5193,-1.5222,-1.5304,0.0,0.0,0.0,0.0,-2.2034,-2.3659,-2.494,-2.6063,-2.7031,-2.6866,-2.6505,-2.604,-2.6344,-2.5901,-2.4781,-2.46,-2.4694,-2.4998,-2.4578,-2.4073,-2.3528,-2.2862,-2.225,-2.1574,-1.9788,-1.9794,-2.0667,-1.9836,-1.9936,-2.0356,-1.9493,0.0,0.0,0.0,0.0,0.0,0.0,0.0,0.0,0.0,0.0,0.0,0.0,0.0,0.0,0.0,0.0,0.0,0.0,0.0,0.0,0.0,0.0,0.0,0.0,-2.6076,-2.7275,-2.6632,-2.5907,-2.5601,-2.6068,-2.5843,-2.5791,-2.623,-2.622,-2.6162,-2.5898,-2.6492,-2.6856,-2.69,-2.761,-2.907,-3.1364,-3.1363,-3.27,-3.5604,-3.5413,-3.5967,-3.7198,-3.6787,-3.724,-3.8425,-3.8007,-3.8447,0.0,-3.9103,-3.8534,-3.7939,-3.8292,-3.715,0.0,0.0,0.0,0.0,0.0,-3.0554,-2.857,0.0,0.0,0.0,0.0,0.0,0.0,0.0,0.0,0.0,0.0,0.0,-1.2893,-1.1982,-1.3502,-1.4655,-1.4776,-1.5216,-1.5426,0.0,0.0,0.0,-1.9656,-2.1897,-2.3749,-2.5077,-2.5645,-2.6557,-2.7824,-2.6557,-2.6243,-2.6826,-2.732,-2.7148,-2.6424,-2.6912,-2.7067,-2.6933,-2.633,-2.5737,-2.5265,-2.5265,-2.4096,-2.2223,-2.0616,-2.091,-2.2045,-2.0914,-2.0593,-2.062,-2.0003,0.0,0.0,0.0,0.0,0.0,0.0,0.0,0.0,0.0,0.0,0.0,0.0,0.0,0.0,0.0,0.0,0.0,0.0,0.0,0.0,0.0,0.0,0.0,0.0,-2.895,-2.9394,-2.9443,-2.87,-2.7758,-2.6744,-2.6562,-2.6719,-2.7187,-2.7187,-2.7139,-2.709,-2.709,-2.7331,-2.7878,0.0,0.0,0.0,0.0,-3.1564,-3.4363,-3.385,-3.439,-3.5968,-3.6076,-3.6612,-3.7512,-3.7632,-3.7709,-3.781,-3.789,-3.7744,-3.7509,-3.8296,-3.7596,-3.5969,-3.5784,-3.4979,-3.3753,-3.1981,-3.0379,0.0,0.0,0.0,0.0,0.0,0.0,0.0,0.0,0.0,0.0,-1.1833,-1.2399,-1.2344,-1.067,-1.1444,-1.2601,-1.389,-1.4156,-1.5208,0.0,0.0,-1.9576,-2.2092,-2.3638,-2.5258,-2.7016,-2.7688,-2.8412,-2.9217,-2.8412,-2.8083,-2.8192,-2.7632,-2.727,-2.7095,-2.6894,-2.6781,-2.6784,-2.6955,-2.643,-2.5505,-2.5505,-2.4259,-2.2324,-2.1536,-2.1136,-2.0866,-2.018,-2.0552,-2.1178,-2.0144,-2.0629,-2.139,-1.9935,0.0,0.0,0.0,0.0,0.0,0.0,0.0,0.0,0.0,0.0,0.0,0.0,0.0,0.0,0.0,0.0,0.0,0.0,0.0,0.0,-2.9804,-3.1336,-3.2005,-3.1182,-3.0912,-3.0078,-2.8157,-2.7627,-2.7715,-2.8476,-2.8242,-2.79,-2.7568,-2.7539,-2.7447,-2.7199,-2.7821,0.0,-3.0261,-3.0434,-3.1385,-3.3135,-3.2635,-3.2659,-3.333,0.0,0.0,-3.5747,-3.6492,-3.72,-3.7826,-3.8439,-3.8322,-3.7802,-3.8601,-3.8023,-3.6488,-3.5019,-3.3944,-3.3118,-3.2355,-3.0576,-2.8538,0.0,0.0,0.0,0.0,0.0,0.0,0.0,0.0,0.0,0.0,-1.2792,-1.2785,-1.2078,-1.2501,-1.3281,-1.4309,-1.4742,0.0,0.0,-1.9296,-2.0915,-2.3737,-2.5017,-2.6579,-2.8547,-2.8921,-2.925,-2.9606,-2.8843,-2.8448,-2.842,-2.7897,-2.7583,-2.7451,-2.756,-2.7535,-2.7408,-2.7622,-2.7055,-2.6059,-2.6059,-2.4899,-2.3104,-2.2282,-2.1898,-2.1752,-2.0949,-2.1192,-2.1769,-2.0928,-2.1044,-2.1415,-2.0947,-2.0583,-2.0296,0.0,0.0,0.0,0.0,0.0,0.0,0.0,0.0,0.0,0.0,0.0,0.0,0.0,0.0,-2.6063,0.0,0.0,-3.0294,-3.1989,-3.3181,-3.3325,-3.1713,-3.1716,-3.1091,-2.8858,-2.8232,-2.8223,-2.8857,-2.873,-2.8525,-2.831,-2.8291,-2.8512,-2.8999,-2.9039,-2.9867,-3.1675,-3.1194,-3.1577,-3.2937,-3.1846,-3.1652,-3.2297,-3.2994,-3.3765,-3.4644,-3.5627,-3.6461,-3.7203,-3.76,-3.7782,-3.7822,-3.8228,-3.7742,-3.6627,-3.5371,-3.4432,-3.3686,-3.3105,-3.1446,-2.9445,0.0,0.0,0.0,0.0,0.0,0.0,0.0,0.0,0.0,0.0,-1.3352,-1.3514,-1.3674,-1.4012,-1.4538,0.0,0.0,0.0,0.0,-2.0384,-2.2064,-2.4825,-2.6206,-2.7744,-2.9549,-2.9726,-2.9846,-2.9968,-2.9085,-2.8656,-2.8641,-2.8266,-2.7964,-2.7767,-2.8333,-2.8463,-2.8273,-2.8386,-2.7858,-2.6964,-2.6851,-2.5883,-2.4356,-2.3226,-2.2844,-2.2819,-2.1845,-2.1687,-2.1898,-2.1471,-2.1199,-2.1145,-2.1756,-2.1368,-2.0737,-2.0976,-2.0579,0.0,0.0,0.0,0.0,0.0,0.0,0.0,0.0,0.0,-2.4318,-2.6927,-2.7982,-2.8963,-3.0771,-3.1524,-3.239,-3.396,-3.4587,-3.4096,-3.1977,-3.2034,-3.1416,-2.9065,-2.8496,-2.8457,-2.8877,-2.8916,-2.8916,-2.8916,-2.9124,-2.9809,-3.0967,-3.0739,-3.1561,-3.3624,-3.2584,-3.2418,-3.3232,-3.17,-3.1182,-3.1744,-3.2318,-3.2996,-3.3774,-3.4953,-3.5799,-3.6384,-3.6523,-3.707,-3.7787,-3.7666,-3.7248,-3.6622,-3.5952,-3.5184,-3.442,-3.3613,-3.2125,-3.0505,0.0,0.0,0.0,0.0,0.0,0.0,0.0,0.0,0.0,0.0,0.0,0.0,0.0,0.0,0.0,0.0,0.0,0.0,-2.1149,-2.1146,-2.233,-2.5363,-2.7354,-2.8737,-2.9592,-3.0118,-3.0702,-3.1286,-3.0336,-2.9902,-2.9886,-2.8833,-2.8334,-2.8315,-2.8686,-2.8849,-2.8838,-2.9377,-2.9239,-2.8574,-2.8122,-2.7218,-2.6097,-2.4958,-2.3622,-2.2322,-2.1707,-2.1148,-2.0694,-2.0705,-2.136,-2.2251,-2.2451,-2.2787,-2.2904,-2.1915,0.0,-2.075,-2.1316,-2.1592,-2.2205,-2.4361,-2.3587,-2.3683,0.0,0.0,-2.865,-3.047,-3.1687,-3.2546,-3.2754,-3.3257,-3.3997,-3.5132,-3.537,-3.4658,-3.2535,-3.2247,-3.1297,-2.866,-2.832,-2.8457,-2.8877,-2.8916,-2.8916,-2.8916,-3.0079,-3.0808,-3.0967,-3.2831,-3.3997,-3.429,-3.4787,-3.4652,-3.3822,-3.2629,-3.159,-3.0781,-3.2001,-3.2664,-3.282,-3.4673,-3.5569,-3.5668,-3.6306,-3.707,-3.7758,-3.7094,-3.6778,-3.6614,-3.5902,-3.5182,-3.4436,-3.3097,-3.1731,-3.0509,0.0,0.0,0.0,0.0,0.0,0.0,0.0,0.0,0.0,0.0,0.0,0.0,0.0,0.0,0.0,0.0,0.0,0.0,-2.037,-2.0688,-2.2207,-2.5472,-2.7119,-2.8638,-3.0088,-3.0761,-3.1406,-3.2079,-3.0616,-3.0125,-3.0475,-2.8955,-2.84,-2.8696,-2.8824,-2.9076,-2.9453,-2.9691,-2.9453,-2.8875,-2.8674,-2.7532,-2.5904,-2.5116,-2.3568,-2.1814,-2.1569,-2.1302,0.0,0.0,-2.1385,-2.201,-2.3088,-2.2944,-2.2363,-2.2129,-2.1954,0.0,-2.268,-2.343,-2.4128,0.0,-2.5445,-2.6799,-2.9292,-2.9885,-3.0518,-3.2855,-3.3709,-3.4223,-3.4909,-3.5223,-3.5479,0.0,-3.5382,-3.4269,-3.256,-3.1442,-2.9977,-2.7776,-2.7549,-2.7812,-2.8496,-2.8779,-2.8916,-2.8916,-3.0176,-3.1328,-3.2095,-3.3592,-3.4775,-3.5523,-3.5538,-3.527,-3.4818,-3.3432,-3.2491,-3.2068,-3.2186,-3.2253,-3.229,-3.334,-3.4109,-3.4691,-3.5576,-3.6149,-3.6461,-3.6577,-3.6378,-3.5952,-3.5312,-3.4602,-3.3887,-3.3314,-3.2257,-3.1129,0.0,0.0,0.0,0.0,0.0,0.0,0.0,0.0,0.0,0.0,0.0,0.0,0.0,0.0,0.0,0.0,0.0,0.0,0.0,-2.0338,-2.1877,-2.4679,-2.6369,-2.8103,-2.9953,-3.0793,-3.1514,-3.2122,-3.0729,-3.0219,-3.0603,-2.9217,-2.8787,-2.9126,-2.9126,-2.9402,-2.9792,-2.9792,-2.9453,-2.8863,-2.8562,-2.7425,-2.5764,-2.4727,-2.326,-2.1705,-2.1209,-2.0876,0.0,0.0,-2.0922,-2.149,-2.3032,-2.2861,-2.2134,-2.248,-2.2747,-2.3076,-2.3787,-2.484,0.0,-2.556,-2.7227,-2.9051,-2.9653,-3.0708,-3.2127,-3.4286,-3.4806,-3.5152,-3.5793,-3.5906,-3.5956,-3.6107,-3.5051,-3.366,-3.234,-3.0629,-2.8795,-2.687,-2.666,-2.6904,-2.7529,-2.8291,-2.8789,-2.8906,-3.0541,-3.2001,-3.2927,-3.424,-3.5415,-3.6358,-3.5981,-3.5658,-3.5495,-3.406,-3.3275,-3.3099,-3.2512,-3.2158,-3.2024,-3.2414,-3.2961,-3.3671,-3.4375,-3.4854,-3.5118,-3.5644,-3.5738,-3.5464,-3.508,-3.4455,-3.3741,-3.3586,-3.2686,-3.1573,0.0,0.0,0.0,0.0,0.0,0.0,0.0,0.0,0.0,0.0,0.0,0.0,0.0,0.0,0.0,0.0,0.0,0.0,0.0,-2.054,-2.1331,-2.2733,-2.5255,-2.725,-2.8622,-2.9894,-3.0748,-3.1142,-3.0745,-3.0437,-3.0201,-2.991,-2.9754,-2.9767,-2.9767,-2.9779,-2.9792,-2.9792,-2.9453,-2.88,-2.7758,-2.7041,-2.6309,-2.4028,-2.284,-2.214,-2.0454,0.0,0.0,-1.8951,-1.9762,-2.0902,-2.2018,-2.2767,0.0,-2.3264,-2.3416,-2.3729,-2.4388,0.0,-2.6419,-2.8138,-2.8712,-2.9452,-3.1625,-3.2993,-3.3972,-3.46,-3.5107,-3.532,-3.4818,-3.4731,-3.4906,-3.5433,-3.4384,-3.3109,-3.1882,-3.0143,-2.8196,-2.6016,-2.5732,-2.5732,0.0,-2.7324,-2.8476,-2.8887,-3.1423,-3.2978,-3.2978,-3.5137,-3.6358,-3.6405,-3.6392,-3.6081,-3.5508,-3.4437,-3.3608,-3.3099,-3.2874,-3.2501,-3.2024,-3.2414,-3.2629,-3.2629,-3.2664,-3.3206,-3.4061,-3.4061,-3.4643,-3.5504,-3.5492,-3.5058,-3.4399,-3.374,-3.2661,-3.1509,0.0,0.0,0.0,0.0,0.0,0.0,0.0,0.0,0.0,0.0,0.0,0.0,0.0,0.0,0.0,0.0,0.0,0.0,0.0,-2.0051,-2.1035,-2.2393,-2.3827,-2.5241,-2.6587,-2.7889,-2.8825,-2.9304,-2.9369,-2.934,-2.9188,-2.8862,-2.8674,-2.8674,-2.8674,-2.8674,-2.8649,-2.8285,-2.8562,-2.9028,-2.6997,-2.6196,-2.5926,-2.3454,-2.1969,-2.1091,0.0,0.0,0.0,-1.9814,-2.0314,-2.1007,-2.1631,-2.1586,-2.1599,-2.3071,-2.3853,-2.4563,-2.5832,0.0,-2.9069,-2.9373,-3.0559,-3.1964,-3.3081,-3.3909,-3.4399,-3.4211,-3.4035,-3.3734,-3.3156,-3.3056,-3.3357,-3.4299,-3.3898,-3.3086,-3.186,-3.0723,-2.8844,-2.5681,-2.5557,0.0,0.0,0.0,0.0,-2.7607,-3.013,-3.1809,-3.2146,-3.486,-3.6568,-3.6945,-3.6606,-3.6445,-3.6634,-3.5542,-3.4856,-3.47,-3.3538,-3.2526,-3.1621,-3.2011,-3.2222,-3.2233,-3.2485,-3.2784,-3.3066,-3.3066,-3.3636,-3.4466,-3.4057,-3.3873,-3.3739,-3.308,-3.2258,-3.1511,0.0,0.0,0.0,0.0,0.0,0.0,0.0,0.0,0.0,0.0,0.0,0.0,0.0,0.0,0.0,0.0,0.0,0.0,0.0,0.0,-2.0588,-2.1546,-2.2574,-2.3691,-2.4866,-2.5959,-2.6775,-2.7276,-2.7236,-2.7145,-2.6985,-2.651,-2.6292,-2.6339,-2.6755,-2.6833,-2.6608,-2.6699,-2.7013,-2.7258,-2.544,-2.4696,-2.4496,-2.2419,-2.1212,0.0,0.0,0.0,-2.0297,-2.0297,-2.05,-2.0861,-2.152,-2.1736,-2.2089,-2.4013,-2.485,-2.5693,-2.8087,-2.9652,-3.073,-3.1319,-3.2596,-3.3759,-3.411,-3.4311,-3.4161,-3.3206,-3.2566,-3.1901,-3.0922,-3.0746,-3.1185,-3.2503,-3.1829,-3.1112,-3.1083,-2.9757,-2.7994,-2.5829,-2.5654,-2.5684,0.0,0.0,0.0,-2.6953,-2.9635,-3.1454,-3.1937,-3.4993,-3.6958,-3.7462,-3.6996,-3.687,-3.7186,-3.6047,-3.5307,-3.4893,-3.347,-3.229,-3.1414,-3.1458,-3.1397,-3.1215,-3.1501,-3.1792,-3.2105,-3.2105,-3.2629,-3.349,-3.3427,-3.3536,-3.3627,-3.3317,-3.2796,-3.2138,0.0,0.0,0.0,0.0,0.0,0.0,0.0,0.0,0.0,0.0,0.0,0.0,0.0,0.0,0.0,0.0,0.0,0.0,0.0,0.0,0.0,-2.0351,-2.1567,-2.2631,-2.3501,-2.414,-2.4667,-2.5061,-2.4532,-2.4122,-2.3787,-2.3263,-2.302,-2.3075,-2.4249,-2.4409,-2.3881,-2.5052,-2.4893,-2.3865,-2.3228,-2.2754,-2.2281,-2.1041,0.0,0.0,0.0,0.0,-2.0314,-2.0328,-2.0438,-2.0726,-2.1779,-2.3183,-2.4708,-2.6028,-2.6485,-2.7369,-3.0994,-3.1547,-3.1653,-3.3996,-3.4666,-3.4758,-3.4688,-3.4186,-3.3287,-3.1562,-3.0773,-2.9855,0.0,0.0,-2.8537,-3.0175,-2.858,-2.7821,-2.9736,-2.7683,-2.6104,0.0,0.0,0.0,0.0,0.0,0.0,-2.7114,0.0,-3.1915,-3.2487,-3.5514,-3.7475,-3.804,-3.7487,-3.7199,-3.7224,-3.606,-3.4956,-3.3935,-3.283,-3.2014,-3.1461,-3.0909,-3.0369,-2.9867,-2.9817,-3.0317,-3.1143,-3.1143,-3.1669,-3.2629,-3.3567,-3.393,-3.4013,-3.4362,-3.4099,-3.332,0.0,0.0,0.0,0.0,0.0,0.0,0.0,0.0,0.0,0.0,0.0,0.0,0.0,0.0,0.0,0.0,0.0,0.0,0.0,0.0,0.0,0.0,0.0,0.0,0.0,0.0,0.0,-2.2958,-2.3027,-2.2728,-2.2099,-2.1975,-2.1907,-2.1936,-2.2644,-2.2856,-2.2727,-2.3044,-2.3566,-2.4011,0.0,-2.1793,-2.2425,0.0,0.0,0.0,0.0,0.0,0.0,0.0,0.0,0.0,-2.3706,-2.4977,-2.6665,-2.7699,-2.9734,-3.1819,-3.2577,-3.4697,-3.6468,-3.5476,-3.5659,-3.5691,-3.4407,-3.3073,-3.1508,-2.9391,-2.7933,-2.6604,0.0,0.0,0.0,-2.8278,-2.9683,0.0,-2.9854,-3.0025,0.0,-2.7145,0.0,-2.7217,-2.7386,-2.666,0.0,0.0,-3.1002,-3.2063,-3.2459,-3.5877,-3.8052,-3.863,-3.7701,-3.7374,-3.7789,-3.626,-3.5157,-3.45,-3.3809,-3.3181,-3.2616,-3.1637,-3.1122,-3.0934,-3.0143,-2.9934,-3.0139,-3.0139,-3.0696,-3.1633,-3.2593,-3.3111,-3.3417,-3.4199,-3.4099,-3.344,0.0,0.0,0.0,0.0,0.0,0.0,0.0,0.0,0.0,0.0,0.0,0.0,0.0,0.0,0.0,0.0,0.0,0.0,0.0,0.0,0.0,0.0,0.0,0.0,0.0,0.0,0.0,0.0,0.0,0.0,-2.0343,-2.0131,-1.9999,-2.0036,-2.0893,-2.1067,-2.0832,-2.1377,0.0,0.0,0.0,0.0,0.0,0.0,0.0,0.0,0.0,0.0,0.0,0.0,0.0,-2.5139,-2.561,-2.7276,-2.9323,-3.0426,0.0,-3.393,-3.4891,-3.6395,-3.7508,-3.6807,-3.6661,-3.6146,-3.4033,-3.2436,-3.05,-2.7361,-2.5832,0.0,-2.3157,-2.4255,0.0,0.0,0.0,0.0,-2.9003,-2.9374,-2.9147,0.0,-2.7959,0.0,-2.8223,-2.7959,-2.869,0.0,-3.1763,-3.273,-3.4028,-3.6858,-3.8642,-3.922,-3.814,-3.7462,-3.7287,-3.6085,-3.5345,-3.5031,-3.4525,-3.3847,-3.3099,-3.2416,-3.1863,-3.1348,0.0,-3.0156,-3.0131,-2.9892,-3.0101,-3.0733,-3.2069,-3.2716,-3.3036,-3.444,-3.4502,-3.3963,0.0,0.0,0.0,0.0,0.0,0.0,0.0,0.0,0.0,0.0,0.0,0.0,0.0,0.0,0.0,0.0,0.0,0.0,0.0,0.0,0.0,0.0,0.0,0.0,0.0,0.0,0.0,0.0,0.0,0.0,0.0,0.0,0.0,0.0,0.0,0.0,0.0,0.0,0.0,0.0,0.0,0.0,0.0,0.0,0.0,0.0,0.0,0.0,0.0,0.0,-2.5289,-2.6252,-2.7771,-3.0058,-3.2407,-3.3649,-3.4401,-3.5305,-3.7454,-3.7583,-3.729,-3.8048,-3.762,-3.6312,-3.3612,-3.1889,-2.9671,-2.5546,0.0,-2.3263,-2.1569,-2.2698,-2.4035,-2.4484,0.0,-2.6724,-2.7913,-2.7633,-2.7557,-2.8271,-2.875,-2.9078,-2.9346,-2.9697,-3.0635,-3.2404,-3.2879,-3.4012,-3.6171,-3.795,-3.9019,-3.9346,-3.8404,-3.74,-3.6417,-3.5818,-3.5495,-3.5495,-3.4868,-3.411,-3.3181,-3.3031,-3.2428,-3.1461,0.0,0.0,-3.057,-3.0018,-2.9792,-2.9972,-3.1865,-3.2593,-3.2855,-3.4773,-3.513,-3.4728,0.0,0.0,0.0,0.0,0.0,0.0,0.0,0.0,0.0,0.0,-1.7367,-1.7563,0.0,0.0,0.0,0.0,0.0,0.0,0.0,0.0,0.0,0.0,0.0,0.0,0.0,0.0,0.0,0.0,0.0,0.0,0.0,0.0,0.0,0.0,0.0,0.0,0.0,0.0,0.0,0.0,0.0,0.0,0.0,0.0,0.0,0.0,0.0,0.0,0.0,0.0,-2.728,-2.9838,-3.1224,-3.3484,-3.5774,-3.6507,-3.7943,-3.9284,-3.9295,-4.064,-4.1544,-3.9299,-3.8217,-3.6746,-3.3239,-3.0438,0.0,0.0,-2.2803,-2.1711,-2.0347,-2.1845,-2.3503,-2.4308,-2.6132,-2.7714,-2.8488,-2.8774,-2.8888,0.0,-2.9189,-3.0072,-3.1616,0.0,0.0,0.0,0.0,-3.6244,-3.6693,-3.8097,-3.8492,-3.7651,-3.7425,-3.7023,-3.6417,-3.5818,-3.5495,-3.5495,-3.4525,-3.3935,-3.3721,-3.2792,-3.2252,-3.2014,0.0,0.0,-3.057,-3.0018,-2.9792,-2.9972,-3.1865,-3.2593,-3.2855,-3.4773,-3.5429,-3.534,0.0,0.0,0.0,0.0,0.0,0.0,0.0,0.0,-1.7404,-1.7308,-1.7263,-1.7382,-1.7766,-1.7646,0.0,0.0,0.0,0.0,0.0,0.0,0.0,0.0,0.0,0.0,0.0,0.0,0.0,0.0,0.0,0.0,0.0,0.0,0.0,0.0,0.0,0.0,0.0,0.0,0.0,0.0,0.0,0.0,0.0,0.0,0.0,0.0,0.0,0.0,0.0,0.0,-2.6962,-2.9924,-3.2287,-3.4622,-3.6611,-3.7225,-3.8586,-3.9987,-4.0409,-4.0959,-4.096,-3.9375,-3.7552,-3.5196,-3.1499,0.0,0.0,0.0,-2.1817,-2.0928,-1.9991,-2.1365,0.0,-2.3159,-2.4539,-2.5944,-2.6982,-2.7239,0.0,-2.8192,-2.9033,-2.9974,0.0,0.0,0.0,0.0,0.0,0.0,-3.8295,-3.8689,-3.8354,-3.7224,-3.7186,-3.6923,-3.6417,-3.6094,-3.5968,-3.5968,-3.5441,-3.4876,-3.4311,-3.3759,-3.3206,-3.2604,-3.1499,0.0,-3.0947,-3.0131,-2.9792,-2.9934,-3.1328,-3.2177,-3.2784,-3.4192,-3.5052,-3.5504,0.0,0.0,0.0,0.0,0.0,0.0,0.0,-1.7416,-1.7318,-1.7304,-1.7065,-1.7136,-1.7737,-1.7569,-1.751,0.0,0.0,0.0,0.0,0.0,0.0,0.0,0.0,0.0,0.0,0.0,0.0,0.0,0.0,0.0,0.0,0.0,0.0,0.0,0.0,0.0,0.0,0.0,0.0,0.0,0.0,0.0,0.0,0.0,0.0,0.0,0.0,0.0,0.0,0.0,-2.5756,-2.8207,-3.1231,-3.3951,-3.6148,-3.6641,-3.7928,-3.9484,-4.0816,-4.0441,-3.9488,-3.8919,-3.6547,-3.3359,-2.9727,-2.7474,0.0,-2.1979,-2.1038,-2.0553,-1.9775,-2.0903,-2.2005,0.0,-2.302,-2.4125,-2.5421,-2.5747,-2.6262,0.0,-2.874,0.0,0.0,0.0,0.0,0.0,0.0,0.0,-3.9282,-3.8818,-3.804,-3.7036,-3.701,-3.6845,-3.6417,-3.6405,-3.6405,-3.6405,-3.6166,-3.5554,-3.4668,-3.4474,-3.3897,-3.3061,-3.1876,0.0,0.0,-3.0231,-2.9792,-2.9895,-3.0833,-3.1779,-3.2713,-3.3671,-3.4658,-3.5504,0.0,0.0,0.0,0.0,0.0,0.0,0.0,-1.7811,-1.758,-1.7342,-1.7268,-1.7379,-1.7765,-1.7766,-1.7766,0.0,0.0,0.0,0.0,0.0,0.0,0.0,0.0,0.0,0.0,0.0,0.0,0.0,0.0,0.0,0.0,0.0,0.0,0.0,0.0,0.0,0.0,0.0,0.0,0.0,0.0,0.0,0.0,0.0,0.0,0.0,0.0,0.0,0.0,0.0,0.0,-2.506,-2.7117,-3.0973,-3.4698,-3.4758,0.0,0.0,-4.0127,-4.0141,-3.9506,-3.8384,-3.5568,-3.2205,-2.8955,0.0,-2.3873,-2.072,-2.0459,-2.0454,-1.9292,-2.0037,-2.1152,-2.2126,-2.3218,-2.4273,-2.5212,-2.6431,-2.7172,0.0,0.0,0.0,0.0,0.0,0.0,0.0,0.0,0.0,0.0,-3.7638,-3.7109,-3.6505,-3.648,-3.6455,-3.6405,-3.6405,-3.6405,-3.6405,-3.5353,-3.4813,-3.4688,-3.3684,-3.3169,-3.3061,0.0,0.0,0.0,-3.0231,-2.9792,-2.9895,-3.0833,-3.1779,-3.2713,-3.3671,-3.4658,-3.5504,0.0,0.0,0.0,0.0,0.0,0.0,-1.7941,-1.8013,-1.7984,-1.7584,-1.754,-1.7534,-1.7495,-1.7682,-1.7969,0.0,0.0,0.0,0.0,0.0,0.0,0.0,0.0,0.0,0.0,0.0,0.0,0.0,0.0,0.0,0.0,0.0,0.0,0.0,0.0,0.0,0.0,0.0,0.0,0.0,0.0,0.0,0.0,0.0,0.0,0.0,0.0,0.0,0.0,0.0,0.0,0.0,-2.3068,-2.5576,0.0,0.0,-3.4891,-3.712,-3.923,-3.9471,-3.8851,-3.7696,-3.4485,-3.0891,-2.814,0.0,-2.2787,-2.0398,-2.0056,-1.9953,-1.9154,-1.9635,-2.0427,-2.1219,-2.1405,0.0,-2.3672,0.0,0.0,0.0,0.0,0.0,0.0,0.0,0.0,0.0,0.0,0.0,0.0,-3.7312,-3.6923,-3.643,-3.6044,-3.6031,-3.6405,-3.5705,-3.5542,-3.5868,-3.509,-3.455,-3.4211,-3.3771,-3.3395,-3.3031,0.0,0.0,0.0,-3.0595,-3.0093,-2.983,-3.0216,-3.1267,-3.2629,-3.3031,-3.4158,-3.5504,0.0,0.0,0.0,0.0,0.0,-1.8823,-1.8237,-1.8387,-1.8405,-1.792,-1.786,-1.7831,-1.7771,-1.7782,-1.8302,-1.9592,0.0,0.0,0.0,0.0,0.0,0.0,0.0,0.0,0.0,0.0,0.0,0.0,0.0,0.0,0.0,0.0,0.0,0.0,0.0,0.0,0.0,0.0,0.0,0.0,0.0,0.0,0.0,0.0,0.0,0.0,0.0,0.0,0.0,0.0,0.0,0.0,0.0,0.0,0.0,0.0,-3.1854,-3.4517,-3.6761,-3.7483,-3.7322,-3.6353,-3.3154,-2.9604,0.0,0.0,-2.1869,-1.9985,-1.9571,-1.9422,-1.9065,-1.9308,-1.9761,-2.0352,-2.0351,-2.0878,-2.2565,-2.3306,0.0,0.0,0.0,0.0,0.0,0.0,0.0,0.0,0.0,0.0,0.0,-3.6872,-3.6521,-3.6132,-3.5696,-3.5608,-3.5868,-3.5115,-3.4868,-3.5257,-3.4738,-3.4274,-3.3884,-3.3734,-3.3357,-3.2805,0.0,0.0,0.0,-3.0834,-3.0382,-3.0018,-2.9854,-3.0771,-3.2213,-3.25,-3.365,-3.51,0.0,0.0,0.0,0.0,0.0,0.0,0.0,-1.9081,-1.8798,-1.8256,-1.8187,-1.8363,-1.8826,-1.8241,-1.8813,-2.1349,0.0,0.0,0.0,0.0,0.0,0.0,0.0,0.0,0.0,0.0,0.0,-2.1597,-2.1613,0.0,0.0,0.0,0.0,0.0,0.0,0.0,0.0,0.0,0.0,0.0,0.0,0.0,0.0,0.0,0.0,0.0,0.0,0.0,0.0,0.0,0.0,0.0,0.0,0.0,0.0,0.0,-2.6946,-3.0851,-3.2183,-3.3721,-3.4786,-3.418,-3.1521,-2.8339,0.0,-2.341,-2.1168,-1.9295,-1.8925,-1.8936,-1.8997,-1.8992,-1.9183,-1.9723,-2.074,0.0,-2.2241,-2.3153,0.0,0.0,0.0,0.0,0.0,0.0,0.0,0.0,0.0,0.0,0.0,-3.6157,-3.552,-3.5508,-3.5495,-3.5245,-3.4705,-3.4726,-3.468,-3.468,-3.4173,-3.3909,-3.3884,-3.3332,-3.2767,0.0,0.0,0.0,0.0,-3.0834,-3.062,-3.0557,-3.0005,-3.0381,-3.1315,-3.2249,-3.3206,-3.4177,0.0,0.0,0.0,0.0,0.0,0.0,0.0,-1.9235,-1.902,-1.8535,-1.8461,-1.8393,-1.817,-1.8389,-1.8879,-1.9687,0.0,0.0,0.0,0.0,0.0,0.0,0.0,0.0,0.0,0.0,-2.2223,-2.2092,-2.1764,-2.1322,-2.0764,-2.06,0.0,0.0,0.0,0.0,0.0,0.0,0.0,0.0,0.0,0.0,0.0,0.0,0.0,0.0,0.0,0.0,0.0,0.0,0.0,0.0,0.0,0.0,0.0,-2.0737,-2.3894,0.0,-2.9894,-3.0905,-3.1235,-3.1043,-2.8817,-2.6232,-2.4496,-2.2509,-2.0599,-1.9194,-1.8911,-1.8923,-1.8997,-1.8992,-1.9421,-2.074,-2.1568,-2.238,0.0,0.0,0.0,0.0,0.0,0.0,0.0,0.0,0.0,0.0,0.0,0.0,0.0,-3.5931,-3.5495,-3.5495,-3.4768,-3.4512,-3.468,-3.3972,-3.3784,-3.4161,-3.3608,-3.3332,-3.3332,-3.3156,0.0,0.0,0.0,0.0,0.0,-3.1373,-3.0934,-3.0595,-3.0419,-3.0689,-3.1315,-3.2249,-3.3206,-3.4129,0.0,0.0,0.0,0.0,0.0,0.0,0.0,-1.9376,-1.9172,-1.8796,-1.8905,-1.8962,-1.8806,-1.9092,-1.9595,-2.0257,0.0,0.0,0.0,0.0,0.0,0.0,0.0,0.0,0.0,-2.2375,-2.2032,-2.2032,-2.1414,-2.0991,-2.0731,-2.0449,-2.0466,-2.0731,0.0,0.0,0.0,0.0,0.0,0.0,0.0,0.0,-2.2296,0.0,0.0,0.0,0.0,0.0,0.0,0.0,0.0,0.0,0.0,0.0,0.0,0.0,-2.144,-2.3954,-2.6602,-2.7874,-2.8483,-2.8483,-2.6826,0.0,-2.355,-2.1934,-2.0362,-1.915,-1.8748,-1.8624,-1.8689,-1.8695,-1.9096,-2.0363,-2.1368,-2.2397,0.0,0.0,0.0,0.0,0.0,0.0,0.0,0.0,0.0,0.0,0.0,0.0,0.0,0.0,-3.4881,-3.4881,-3.4261,-3.396,-3.4098,-3.342,-3.3257,-3.3583,-3.3244,-3.3124,-3.3124,-3.3124,0.0,0.0,0.0,0.0,0.0,-3.1537,-3.1085,-3.0595,-3.0382,-3.0444,-3.0809,-3.1719,-3.2664,-3.3602,0.0,0.0,0.0,0.0,0.0,0.0,0.0,0.0,-1.925,-1.9028,-1.941,-1.9858,-2.0279,-2.0183,-2.0769,-2.2453,0.0,0.0,0.0,0.0,0.0,0.0,0.0,0.0,0.0,-2.1974,-2.1597,-2.1597,-2.0716,-2.028,-2.0263,-2.0263,-2.0263,-2.028,-2.0732,0.0,0.0,0.0,0.0,0.0,0.0,0.0,0.0,0.0,0.0,0.0,0.0,0.0,0.0,0.0,0.0,0.0,0.0,0.0,0.0,0.0,0.0,0.0,0.0,-2.4739,-2.6192,-2.6216,-2.5279,-2.4007,-2.2804,-2.1535,0.0,-1.9136,-1.8477,-1.8146,-1.8296,-1.8257,-1.8455,-1.9171,-2.0602,0.0,0.0,0.0,0.0,0.0,0.0,0.0,0.0,0.0,0.0,0.0,0.0,0.0,0.0,0.0,-3.3941,-3.4029,-3.3941,-3.3676,-3.3197,-3.327,-3.327,-3.3197,-3.3197,-3.3129,-3.3061,-3.3056,0.0,0.0,0.0,0.0,0.0,-3.1348,-3.1047,-3.057,-3.0043,-2.9829,-2.9895,-3.0871,-3.1779,-3.2749,0.0,0.0,0.0,0.0,0.0,0.0,0.0,0.0,0.0,0.0,-1.9414,-1.9654,-1.9568,-2.0362,-2.109,0.0,0.0,0.0,0.0,0.0,0.0,0.0,0.0,0.0,0.0,-2.1974,-2.1597,-2.1597,-2.0716,-2.011,-1.9763,-1.9823,-1.9808,-1.9781,-2.0265,0.0,0.0,0.0,0.0,0.0,0.0,0.0,0.0,0.0,0.0,0.0,-2.1539,-2.1245,0.0,0.0,0.0,0.0,0.0,0.0,0.0,0.0,-1.9708,-1.99,-2.0834,0.0,-2.2164,-2.2465,-2.2072,-2.1473,0.0,-2.0379,-1.9741,-1.9035,-1.8477,-1.8372,-1.9265,-1.8759,-1.9045,-2.1716,-2.2468,-2.3439,0.0,0.0,0.0,0.0,0.0,0.0,0.0,0.0,0.0,0.0,0.0,0.0,0.0,0.0,-3.4266,-3.508,-3.4233,-3.3921,-3.4304,-3.5075,-3.5075,-3.4304,-3.4304,-3.3637,-3.2428,-3.288,0.0,0.0,0.0,0.0,-3.1361,-3.0959,-3.0721,-3.0608,-3.047,-3.0168,-2.9895,-3.0871,-3.1779,-3.2749,0.0,0.0,0.0,0.0,0.0,0.0,0.0,0.0,0.0,0.0,0.0,0.0,0.0,0.0,0.0,0.0,0.0,0.0,0.0,0.0,0.0,0.0,0.0,0.0,-2.2527,-2.1729,-2.1196,-2.0959,-2.008,-1.9405,-1.891,-1.8954,-1.9084,-1.9328,-2.023,0.0,0.0,0.0,0.0,0.0,-2.2296,0.0,0.0,0.0,0.0,0.0,-2.1766,-2.1338,0.0,-2.0464,-2.0032,-1.9708,0.0,0.0,0.0,0.0,-1.9708,-1.9747,-1.9965,-2.037,-2.0805,-2.1209,-2.1002,-2.0659,-2.0509,-2.0083,-1.9479,-1.8688,0.0,-1.8208,-1.8617,-1.8429,0.0,0.0,-2.2606,0.0,0.0,0.0,0.0,0.0,0.0,0.0,0.0,0.0,0.0,0.0,0.0,0.0,0.0,0.0,-3.4059,-3.466,-3.4696,-3.4806,-3.4968,-3.5511,-3.5497,-3.4968,-3.4498,-3.3811,-3.2911,-3.2503,0.0,0.0,0.0,0.0,-3.1009,-3.0733,-3.047,-3.0231,-3.0231,-3.0055,-2.9856,-3.0381,-3.1439,-3.2664,0.0,0.0,0.0,0.0,0.0,0.0,0.0,0.0,0.0,0.0,0.0,0.0,0.0,0.0,0.0,0.0,0.0,0.0,0.0,0.0,0.0,0.0,0.0,-2.2497,-2.2209,-2.14,-2.0716,-2.0104,-1.9299,-1.863,-1.8124,-1.8108,-1.84,-1.8954,-2.0366,-2.1181,0.0,0.0,0.0,0.0,-2.2296,0.0,0.0,0.0,0.0,0.0,0.0,0.0,0.0,-2.091,-2.0362,-1.9708,-1.9708,0.0,0.0,0.0,0.0,0.0,-1.9764,-2.0314,-2.0911,-2.1101,-2.0926,-2.0707,-2.0768,0.0,0.0,0.0,0.0,0.0,0.0,-1.8204,0.0,0.0,0.0,0.0,0.0,0.0,0.0,0.0,0.0,0.0,0.0,0.0,0.0,0.0,0.0,0.0,0.0,0.0,0.0,-3.402,-3.5162,-3.5644,-3.5497,-3.5581,-3.5547,-3.537,-3.4374,-3.3768,-3.3489,-3.2054,-3.1298,0.0,0.0,0.0,-3.0495,-3.0495,-3.0218,-2.9792,-2.9792,-2.9792,-2.9792,-2.9792,-3.0996,-3.2629,0.0,0.0,0.0,0.0,0.0,0.0,0.0,0.0,0.0,0.0,0.0,0.0,0.0,0.0,0.0,0.0,0.0,0.0,0.0,0.0,0.0,0.0,-2.236,-2.2161,-2.1718,-2.1244,-2.0567,-1.968,-1.9163,-1.8661,-1.8193,-1.8133,-1.84,-1.8954,-2.0366,-2.1023,-2.115,-2.1959,-2.2296,-2.2296,-2.2296,0.0,0.0,0.0,0.0,0.0,0.0,0.0,0.0,-2.0533,-2.0089,-1.9708,-1.9708,0.0,0.0,0.0,0.0,0.0,-2.0106,-2.0855,-2.1377,-2.0639,-2.0591,-2.0787,-2.1118,-2.0418,0.0,0.0,0.0,0.0,0.0,-1.9925,0.0,0.0,0.0,0.0,0.0,0.0,0.0,0.0,0.0,0.0,0.0,0.0,0.0,0.0,0.0,0.0,0.0,0.0,0.0,-3.5489,-3.5218,-3.5468,-3.6305,-3.6823,-3.6637,-3.5796,-3.478,-3.3598,-3.2276,-3.1669,-3.0896,0.0,0.0,-3.0419,-2.9917,-2.9917,-2.9867,-2.9792,-2.9792,-2.9792,-2.9792,-2.9792,-3.0996,-3.2855,0.0,0.0,0.0,0.0,0.0,0.0,0.0,0.0,0.0,0.0,0.0,0.0,0.0,0.0,0.0,0.0,0.0,0.0,0.0,0.0,0.0,0.0,-2.1639,-2.1517,-2.1597,-2.0716,-1.9889,-1.9178,-1.841,-1.7773,-1.7299,-1.7842,-1.8243,-1.8535,-1.9974,-2.0616,-2.0682,-2.1553,-2.1913,-2.1943,0.0,0.0,0.0,0.0,0.0,0.0,0.0,0.0,0.0,0.0,-2.0227,-1.9708,-1.9708,0.0,0.0,0.0,0.0,0.0,-1.9927,-2.056,-2.106,-2.0622,-2.1144,-2.163,-2.1103,-2.06,-2.0174,0.0,0.0,0.0,0.0,0.0,0.0,0.0,0.0,0.0,0.0,0.0,0.0,0.0,0.0,0.0,0.0,0.0,0.0,0.0,0.0,0.0,0.0,0.0,0.0,0.0,-3.5277,-3.5444,-3.5953,-3.6237,-3.6316,-3.6217,-3.5182,-3.406,-3.284,-3.1769,-3.0752,-2.9804,0.0,-3.003,-2.9792,-2.9792,-2.9792,-2.9792,-2.9792,-2.9792,-2.9934,-3.0959,-3.2191,-3.3567,0.0,0.0,0.0,0.0,0.0,0.0,0.0,0.0,0.0,0.0,0.0,0.0,0.0,0.0,0.0,0.0,0.0,0.0,0.0,0.0,-2.2378,-2.1627,-2.099,-2.0815,-2.1117,-1.9997,-1.9086,-1.8464,-1.7679,-1.7097,-1.6723,-1.778,-1.829,-1.8347,-1.971,-2.0297,-2.0348,-2.1134,-2.146,-2.1491,0.0,0.0,0.0,0.0,0.0,0.0,0.0,0.0,0.0,0.0,0.0,0.0,0.0,0.0,0.0,-1.9708,-1.9708,-1.9708,-1.9708,-2.0183,-2.0703,-2.0703,-2.1476,-2.2073,-2.1477,-2.1194,-2.1066,0.0,0.0,0.0,0.0,0.0,0.0,0.0,0.0,0.0,0.0,0.0,0.0,0.0,0.0,0.0,0.0,0.0,0.0,0.0,0.0,0.0,0.0,0.0,0.0,0.0,-3.5333,-3.5504,-3.5504,-3.5504,-3.5759,-3.6252,-3.5239,-3.4264,-3.3306,-3.1847,-3.0696,-2.9792,-2.9792,-2.9792,-2.9792,-2.9792,-2.9792,-2.9792,-2.9792,-2.9792,-3.0037,-3.1901,-3.3066,-3.3856,0.0,0.0,0.0,0.0,0.0,0.0,0.0,0.0,0.0,0.0,0.0,0.0,0.0,0.0,0.0,0.0,0.0,0.0,0.0,0.0,-2.2378,-2.1627,-2.0734,-2.0085,-1.9748,-1.9163,-1.8387,-1.7401,-1.7353,-1.7271,-1.7263,-1.8343,-1.8833,-1.8893,-1.9866,-2.0297,-2.0331,-2.0829,-2.1039,-2.1039,-2.1087,0.0,0.0,0.0,0.0,0.0,0.0,0.0,0.0,0.0,0.0,0.0,0.0,0.0,-1.9708,-1.9708,-1.9708,-1.9708,-1.9708,-2.0183,-2.0703,-2.0703,-2.0773,-2.1255,-2.284,-2.2684,0.0,-2.4194,0.0,0.0,0.0,0.0,0.0,0.0,0.0,0.0,0.0,0.0,0.0,0.0,0.0,0.0,0.0,0.0,0.0,0.0,0.0,0.0,0.0,0.0,0.0,0.0,0.0,-3.5504,-3.5504,-3.5504,-3.5534,-3.5579,-3.4534,-3.3589,-3.2627,-3.1659,-3.0696,-2.9792,-2.9792,-2.9792,-2.9792,-2.9792,-2.9792,-2.9792,-2.9792,-2.9792,-3.0037,-3.1901,-3.2629,-3.2961,0.0,0.0,0.0,0.0,0.0,0.0,0.0,0.0,0.0,0.0,0.0,0.0,0.0,0.0,0.0,0.0,0.0,0.0,0.0,0.0,-2.2266,-2.1275,-2.0258,-1.9391,-1.8665,-1.8143,-1.7679,-1.7312,-1.6972,-1.6795,-1.6837,-1.7895,-1.8393,-1.8458,-1.9467,-1.9927,-1.9947,-2.0381,-2.0566,-2.0583,-2.0878,-2.0991,0.0,0.0,0.0,0.0,0.0,0.0,0.0,0.0,-2.0195,-2.0035,0.0,-1.9708,-1.9708,-1.9708,-1.9708,-1.9708,-1.9708,-2.0183,-2.0793,-2.1216,-2.1042,0.0,0.0,-2.2854,-2.3178,-2.4136,-2.4161,0.0,0.0,0.0,0.0,0.0,0.0,0.0,0.0,0.0,0.0,0.0,0.0,0.0,0.0,0.0,0.0,0.0,0.0,0.0,0.0,0.0,0.0,0.0,0.0,-3.5504,-3.5504,-3.5504,-3.5504,-3.5504,-3.51,-3.4109,-3.2593,-3.2249,-3.123,-2.9792,-2.9792,-2.9792,-2.9792,-2.9792,-2.9792,-2.9792,-2.9792,-3.0495,-3.1623,-3.2357,-3.3359,-3.4524,0.0,0.0,0.0,0.0,0.0,0.0,0.0,0.0,0.0,0.0,0.0,0.0,0.0,0.0,0.0,0.0,0.0,0.0,0.0,-2.2751,-2.2088,-2.1039,-2.0122,-1.9232,-1.8366,-1.7827,-1.7463,-1.7312,-1.693,-1.6752,-1.6774,-1.7504,-1.8027,-1.838,-1.9132,-1.9548,-1.9711,-2.0,-2.0106,-2.0141,-2.0465,-2.0582,0.0,0.0,0.0,0.0,0.0,0.0,0.0,0.0,-2.0399,0.0,0.0,0.0,-1.9892,-1.9892,-1.98,-1.9708,-1.9708,-2.0039,-2.0538,-2.1207,0.0,0.0,-2.2868,-2.3499,-2.4047,-2.5081,-2.4816,-2.4134,-2.3391,0.0,0.0,0.0,0.0,0.0,0.0,0.0,0.0,0.0,0.0,0.0,0.0,0.0,0.0,0.0,0.0,0.0,0.0,0.0,0.0,0.0,0.0,-3.5504,-3.5504,-3.5504,-3.5504,-3.5504,-3.5504,-3.4476,-3.2593,-3.2593,-3.1586,-2.9792,-2.9792,-2.9792,-2.9792,-2.9792,-2.9792,-2.9792,-2.9792,-3.0771,-3.2177,-3.25,-3.365,-3.5067,0.0,0.0,0.0,0.0,0.0,0.0,0.0,0.0,0.0,0.0,0.0,0.0,0.0,0.0,0.0,0.0,0.0,0.0,0.0,-2.245,-2.1915,-2.1039,-2.0471,-1.9791,-1.893,-1.838,-1.7847,-1.7312,-1.7312,-1.7312,-1.7312,-1.7312,-1.7867,-1.8893,-1.8893,-1.9207,-1.9708,-1.9708,-1.9708,-1.9708,-1.9708,-1.9708,-1.9708,0.0,0.0,0.0,0.0,0.0,0.0,0.0,-2.0616,-2.1023,0.0,0.0,0.0,-2.0297,-2.0017,-1.9708,-1.9708,-1.9694,-1.9852,-2.0538,0.0,0.0,-2.439,-2.4853,-2.5415,-2.7621,-2.6562,-2.5121,-2.4876,0.0,0.0,0.0,0.0,0.0,0.0,0.0,0.0,0.0,0.0,0.0,0.0,0.0,0.0,0.0,0.0,0.0,0.0,0.0,0.0,0.0,0.0,0.0,-3.5504,-3.5504,-3.5504,-3.5504,-3.5504,-3.4491,-3.2593,-3.2593,-3.1586,-2.9792,-2.9792,-2.9792,-2.9792,-2.9792,-2.9792,-2.9792,-2.9792,-3.0381,-3.1315,-3.2249,-3.3206,-3.4177,0.0,0.0,0.0,0.0,0.0,0.0,0.0,0.0,0.0,0.0,0.0,0.0,0.0,0.0,0.0,0.0,0.0,0.0,0.0,-2.2351,-2.1801,-2.1023,-2.0217,-1.9498,-1.8912,-1.8727,-1.84,-1.7867,-1.7483,-1.7312,-1.7312,-1.7312,-1.7666,-1.8361,-1.8727,-1.9207,-1.9708,-1.9708,-1.9708,-1.9708,-1.9708,-1.9708,-1.9708,0.0,0.0,0.0,0.0,0.0,0.0,0.0,0.0,0.0,0.0,0.0,0.0,-2.0297,-2.0017,-1.9708,-1.9708,-1.978,0.0,-2.109,0.0,0.0,0.0,-2.5429,0.0,0.0,-2.6838,-2.6062,-2.5599,0.0,0.0,0.0,0.0,0.0,0.0,0.0,0.0,0.0,0.0,0.0,0.0,0.0,0.0,0.0,0.0,0.0,0.0,0.0,0.0,0.0,0.0,0.0,-3.5504,-3.5504,-3.5504,-3.5504,-3.5504,-3.4839,-3.3567,-3.289,-3.1924,-3.0758,-3.0113,-2.9792,-2.9792,-2.9792,-2.9792,-2.9792,-2.9792,-3.0771,-3.2213,-3.25,-3.365,-3.51,0.0,0.0,0.0,0.0,0.0,0.0,0.0,0.0,0.0,0.0,0.0,0.0,0.0,0.0,0.0,0.0,0.0,0.0,0.0,0.0,-2.1531,-2.0717,-1.9993,-1.9277,-1.8593,-1.8574,-1.8419,-1.8106,-1.7787,-1.7415,-1.6972,-1.6972,-1.7271,-1.7807,-1.8341,-1.8874,-1.9406,-1.9603,-1.9839,-2.0094,-2.0094,-2.0094,-2.0094,0.0,0.0,0.0,0.0,0.0,0.0,0.0,0.0,0.0,-2.16,0.0,0.0,-2.0583,-2.0156,-1.9639,-1.9442,-1.9614,0.0,-2.0978,-2.1685,-2.2887,-2.5485,0.0,0.0,0.0,0.0,-2.6771,0.0,0.0,0.0,0.0,0.0,0.0,0.0,0.0,0.0,0.0,0.0,0.0,0.0,0.0,0.0,0.0,0.0,0.0,0.0,0.0,0.0,0.0,0.0,0.0,-3.4696,-3.4711,-3.4711,-3.4711,-3.4981,-3.4631,-3.3784,-3.334,-3.2464,-3.1143,-3.0216,-2.9792,-2.9792,-2.9792,-2.9792,-2.983,-3.0216,-3.1267,-3.2629,-3.3031,-3.4158,-3.5504,0.0,0.0,0.0,0.0,0.0,0.0,0.0,0.0,0.0,0.0,0.0,0.0,0.0,0.0,0.0,0.0,0.0,0.0,0.0,0.0,-2.1149,-2.0239,-1.9718,-1.9041,-1.8125,-1.8106,-1.8086,-1.8027,-1.8027,-1.7524,-1.6573,-1.6572,-1.6846,-1.7333,-1.7861,-1.8397,-1.893,-1.9424,-2.0012,-2.0598,-2.0598,-2.0598,-2.0598,-2.0598,0.0,0.0,0.0,0.0,0.0,0.0,0.0,0.0,-2.2296,-2.1706,-2.0991,-2.0991,-2.0362,-1.953,-1.9024,-1.9291,0.0,-2.0432,-2.1971,0.0,-2.6084,-2.7733,-2.8673,-2.8213,0.0,0.0,0.0,0.0,0.0,0.0,0.0,0.0,0.0,0.0,0.0,0.0,0.0,0.0,0.0,0.0,0.0,0.0,0.0,0.0,0.0,0.0,0.0,0.0,0.0,0.0,-3.3499,-3.3499,-3.3469,0.0,-3.4099,-3.4038,-3.3424,-3.3802,-3.2996,-3.1143,-3.0216,-2.9792,-2.9792,-2.9792,-2.9792,-2.9895,-3.0833,-3.1779,-3.2713,-3.3671,-3.4658,-3.5504,0.0,0.0,0.0,0.0,0.0,0.0,0.0,0.0,0.0,0.0,0.0,0.0,0.0,0.0,0.0,0.0,0.0,0.0,0.0,0.0,0.0,0.0,0.0,0.0,0.0,0.0,0.0,-1.7463,-1.7463,-1.7353,-1.7118,-1.718,-1.7242,-1.7338,-1.7919,-1.8453,-1.8912,-1.9024,-1.9387,-1.9932,-1.9932,-1.9932,-1.9932,-1.9932,-1.9828,0.0,0.0,0.0,0.0,0.0,0.0,0.0,-2.2296,-2.1706,-2.0991,-2.0991,-2.0076,-1.9043,-1.893,-1.9024,0.0,0.0,-2.2853,-2.5423,-2.6791,-2.772,-2.8237,0.0,0.0,0.0,0.0,0.0,0.0,0.0,0.0,0.0,0.0,0.0,0.0,0.0,0.0,0.0,0.0,0.0,0.0,0.0,0.0,0.0,0.0,0.0,0.0,0.0,0.0,-3.2976,-3.3484,-3.3499,-3.3245,0.0,-3.3395,-3.3365,-3.2751,-3.3613,-3.2996,-3.1143,-3.0216,-2.9792,-2.9792,-2.9792,-2.9792,-2.9895,-3.0833,-3.1779,-3.2713,-3.3671,-3.4658,-3.5504,0.0,0.0,0.0,0.0,0.0,0.0,0.0,0.0,0.0,0.0,0.0,0.0,0.0,0.0,0.0,0.0,0.0,0.0,0.0,0.0,0.0,0.0,0.0,0.0,0.0,0.0,0.0,0.0,0.0,0.0,-1.6921,-1.7254,-1.739,-1.7368,-1.7961,-1.847,-1.8914,-1.9237,-1.9689,-2.0213,-2.0528,-2.0468,-2.0183,-2.0183,-2.0104,-2.0087,-2.0764,0.0,0.0,0.0,0.0,0.0,0.0,0.0,-2.0991,-2.0991,-2.0424,-1.9635,-1.9055,0.0,0.0,-2.1133,0.0,-2.5448,-2.6289,-2.6917,0.0,0.0,0.0,0.0,0.0,0.0,0.0,0.0,0.0,0.0,0.0,0.0,0.0,0.0,0.0,0.0,0.0,0.0,0.0,0.0,0.0,0.0,0.0,0.0,0.0,0.0,-3.1106,-3.127,-3.1614,-3.1614,-3.145,-3.112,-3.2093,-3.2481,-3.235,-3.243,-3.1944,-3.0958,-2.9855,-2.9377,-2.9441,-3.0164,-3.0482,-3.0595,-3.201,-3.2855,-3.3394,-3.4361,-3.5052,-3.5504,0.0,0.0,0.0,0.0,0.0,0.0,0.0,0.0,0.0,0.0,0.0,0.0,0.0,0.0,0.0,0.0,0.0,0.0,0.0,0.0,0.0,0.0,0.0,0.0,0.0,0.0,0.0,0.0,0.0,0.0,0.0,0.0,0.0,-1.7433,-1.807,-1.8608,-1.9114,-1.9539,-2.0162,-2.0897,-2.135,-2.1261,-2.0868,-2.0868,-2.0795,-2.0707,-2.1194,-2.1632,-2.2068,-2.2536,0.0,0.0,0.0,0.0,-2.1359,-2.1359,-2.0992,-2.0374,-1.9488,0.0,-2.0934,-2.2037,-2.3349,0.0,-2.5184,-2.5762,0.0,0.0,0.0,0.0,0.0,0.0,0.0,0.0,0.0,0.0,0.0,0.0,0.0,0.0,0.0,0.0,0.0,0.0,0.0,0.0,0.0,0.0,0.0,0.0,-2.9606,-2.9606,-2.9606,-2.9606,-2.9606,-2.9606,-2.9547,-2.943,-3.0471,-3.1219,-3.1665,-3.0703,-3.037,-3.0487,-2.9374,-2.8888,-2.9001,-3.0548,-3.1217,-3.1389,-3.3276,-3.3993,-3.4129,-3.5133,-3.5504,-3.5504,0.0,0.0,0.0,0.0,0.0,0.0,0.0,0.0,0.0,0.0,0.0,0.0,0.0,0.0,0.0,0.0,0.0,0.0,-2.1672,0.0,0.0,-1.8151,-1.7524,-1.6972,0.0,0.0,0.0,0.0,0.0,0.0,0.0,0.0,0.0,-1.7448,0.0,-1.9214,-1.9728,-1.9245,-1.9998,-2.1515,-2.1017,-2.1141,-2.156,-2.156,-2.1801,-2.2173,-2.2639,-2.3156,-2.367,-2.408,-2.4203,0.0,0.0,0.0,-2.2813,-2.2813,-2.1486,-2.0107,0.0,0.0,-2.047,0.0,-2.248,-2.2924,0.0,0.0,0.0,0.0,0.0,0.0,0.0,0.0,0.0,0.0,0.0,0.0,0.0,0.0,0.0,0.0,0.0,0.0,0.0,0.0,0.0,0.0,0.0,0.0,0.0,-2.9265,-2.9606,-2.9606,-2.9606,-2.9606,-2.9606,-2.9606,-2.9295,-2.8742,-2.8746,-2.9074,-2.9662,-2.8588,-2.8671,-2.9653,-2.9143,-2.8888,-2.9001,-3.0548,-3.1217,-3.1389,-3.3276,-3.3993,-3.4129,-3.5133,-3.5504,-3.5504,0.0,0.0,0.0,0.0,0.0,0.0,0.0,0.0,0.0,0.0,0.0,0.0,0.0,0.0,0.0,-2.2746,-2.2835,-2.2451,-2.1337,-1.9958,-1.8883,-1.8145,-1.7585,-1.7055,-1.6522,0.0,0.0,0.0,0.0,0.0,0.0,-1.6834,-1.7069,0.0,0.0,0.0,-1.9261,0.0,0.0,-2.1173,-2.1649,-2.1545,-2.1205,-2.185,-2.2146,-2.2352,-2.3235,-2.3852,-2.4257,-2.4429,-2.4491,-2.4444,-2.416,0.0,0.0,0.0,-2.153,-2.0896,-2.0804,-2.0846,-2.0965,0.0,-2.1603,-2.2069,0.0,0.0,0.0,0.0,0.0,0.0,0.0,0.0,0.0,0.0,0.0,0.0,0.0,0.0,0.0,0.0,0.0,0.0,0.0,0.0,0.0,0.0,0.0,0.0,-2.75,-2.8124,-2.8483,-2.8483,-2.8483,-2.8483,-2.8483,-2.8483,-2.8528,-2.8607,-2.8079,-2.8111,-2.8545,-2.766,-2.771,-2.846,-2.814,-2.8488,-2.9362,-3.0909,-3.2006,-3.2925,-3.4293,-3.4839,-3.4872,-3.5359,-3.5504,-3.5504,0.0,0.0,0.0,0.0,0.0,0.0,0.0,0.0,0.0,0.0,0.0,0.0,0.0,0.0,0.0,0.0,-2.2495,-2.2068,-2.0894,-1.9743,-1.8798,-1.8145,-1.7727,-1.725,-1.671,0.0,0.0,0.0,0.0,0.0,-1.6206,-1.602,-1.6125,0.0,-1.7417,-1.825,0.0,0.0,0.0,-2.1269,-2.1936,-2.1798,-2.1285,-2.1946,-2.2287,-2.2501,-2.3585,-2.4331,-2.4812,-2.4998,-2.5066,-2.497,-2.4447,-2.3987,0.0,0.0,0.0,-2.1809,0.0,0.0,-2.1519,-2.0804,-2.0996,-2.1413,0.0,0.0,0.0,0.0,0.0,0.0,0.0,0.0,0.0,0.0,0.0,0.0,0.0,0.0,0.0,0.0,0.0,0.0,0.0,0.0,0.0,0.0,0.0,0.0,-2.6348,-2.6986,-2.727,-2.7106,-2.727,-2.727,-2.7091,-2.727,-2.769,-2.8338,-2.7538,-2.737,-2.7717,-2.6913,-2.6987,-2.7709,-2.7618,-2.8324,-2.9631,-3.1392,-3.2863,-3.4095,-3.51,-3.5504,-3.5504,-3.5504,-3.5504,-3.5504,0.0,0.0,0.0,0.0,0.0,0.0,0.0,0.0,0.0,0.0,0.0,0.0,-2.236,-2.2577,-2.2428,-2.1731,-2.1943,-2.1617,-2.0417,-1.9912,-1.9188,-1.8165,-1.8066,0.0,-1.7271,-1.725,0.0,0.0,0.0,0.0,-1.6006,-1.5423,-1.5253,-1.5545,-1.698,-1.8365,-1.961,0.0,0.0,0.0,0.0,-2.1503,-2.2523,-2.1959,-2.2278,-2.3151,-2.3911,-2.4773,-2.5659,-2.6336,-2.6589,-2.6506,-2.604,-2.5519,-2.485,0.0,0.0,0.0,0.0,-2.176,0.0,-2.0897,0.0,0.0,0.0,0.0,0.0,0.0,0.0,0.0,0.0,0.0,0.0,0.0,0.0,0.0,0.0,0.0,0.0,0.0,0.0,0.0,0.0,0.0,0.0,0.0,0.0,0.0,-2.5659,-2.6288,-2.6363,-2.5734,-2.6318,-2.6348,-2.5719,-2.6333,-2.7001,-2.7634,-2.6719,-2.6526,-2.7012,-2.6091,-2.6409,-2.7729,-2.8215,-2.8828,-2.9666,-3.2067,-3.3413,-3.4095,-3.51,-3.5504,-3.5504,-3.5504,-3.5504,-3.5504,0.0,0.0,0.0,0.0,0.0,0.0,0.0,0.0,0.0,0.0,0.0,0.0,0.0,-2.1936,-2.1772,-2.126,-2.1054,-2.0636,-1.9904,-1.9434,-1.8708,-1.7626,-1.7585,-1.7353,-1.6795,-1.7105,0.0,0.0,0.0,-1.6508,-1.6678,-1.5603,-1.5463,-1.6122,-1.6641,-1.7163,-1.7725,-1.887,0.0,0.0,0.0,0.0,0.0,0.0,0.0,0.0,0.0,0.0,-2.5642,-2.5913,-2.6302,-2.6556,-2.5728,-2.5354,-2.4824,-2.2889,-2.2486,-2.2463,0.0,0.0,0.0,-2.1512,0.0,0.0,0.0,0.0,0.0,0.0,0.0,0.0,0.0,0.0,0.0,0.0,0.0,0.0,0.0,0.0,0.0,0.0,0.0,0.0,0.0,0.0,0.0,0.0,0.0,0.0,-2.4963,-2.5576,-2.5854,-2.5615,-2.5839,-2.5839,-2.5615,-2.6258,-2.6707,-2.6946,-2.6578,-2.689,-2.7809,-2.6992,-2.7319,-2.857,-2.9337,-3.0261,-3.1293,-3.2172,-3.3496,-3.4986,-3.5359,-3.5504,-3.5504,-3.5504,-3.5504,-3.5504,0.0,0.0,0.0,0.0,0.0,0.0,0.0,0.0,0.0,-2.3081,0.0,0.0,0.0,0.0,-2.1038,-2.032,-1.9821,-1.9426,-1.9115,-1.8807,-1.8243,-1.7353,-1.7312,-1.7126,-1.6774,0.0,0.0,0.0,0.0,0.0,0.0,-1.5917,-1.591,-1.6575,-1.6336,-1.6318,0.0,0.0,0.0,-1.9699,0.0,0.0,-2.0763,0.0,0.0,0.0,0.0,0.0,0.0,0.0,-2.5547,-2.5681,-2.5322,-2.481,-2.4099,-2.2727,-2.2523,-2.2553,-2.1859,0.0,0.0,0.0,0.0,0.0,0.0,0.0,0.0,0.0,0.0,0.0,0.0,0.0,0.0,0.0,0.0,0.0,0.0,0.0,0.0,0.0,0.0,0.0,0.0,0.0,0.0,0.0,0.0,0.0,-2.4261,-2.4889,-2.5247,-2.5247,-2.5061,-2.5046,-2.5247,-2.5929,-2.6378,-2.6602,-2.652,-2.7016,-2.7953,-2.742,-2.7897,-2.9147,-2.9956,-3.089,-3.1887,-3.2419,-3.364,-3.519,-3.5415,-3.5504,-3.5504,-3.5504,-3.5504,-3.5504,0.0,0.0,0.0,0.0,0.0,0.0,0.0,0.0,-2.3069,-2.2733,0.0,0.0,0.0,0.0,0.0,-1.889,-1.8357,-1.8086,-1.8086,-1.8086,-1.7847,-1.7338,-1.7297,-1.7297,-1.7297,0.0,0.0,0.0,0.0,0.0,0.0,0.0,-1.6493,-1.6766,-1.6052,-1.6015,-1.6479,0.0,-1.7725,-1.9483,0.0,-1.9056,-2.0643,0.0,0.0,0.0,-2.2113,-2.2901,0.0,-2.4645,0.0,0.0,0.0,-2.4035,-2.2838,-2.34,-2.3182,-2.2853,0.0,0.0,0.0,0.0,0.0,0.0,0.0,0.0,0.0,0.0,0.0,0.0,0.0,0.0,0.0,0.0,0.0,0.0,0.0,0.0,0.0,0.0,0.0,0.0,0.0,0.0,0.0,0.0,0.0,-2.3595,-2.3595,-2.4216,-2.4575,-2.4575,-2.3954,-2.3924,-2.4575,-2.5247,-2.5905,-2.6572,-2.6505,-2.6786,-2.7335,-2.7268,-2.7987,-2.9333,-3.0026,-3.0632,-3.1286,-3.2865,-3.3888,-3.4578,-3.5235,-3.5504,-3.5504,-3.5504,-3.5504,-3.5504,0.0,0.0,0.0,0.0,0.0,0.0,-2.3714,-2.32,-2.2703,0.0,0.0,0.0,-2.0732,-1.9908,-1.9119,-1.8372,-1.8171,-1.7947,-1.7544,-1.7524,-1.7489,-1.7377,-1.7368,-1.7368,-1.7368,0.0,0.0,0.0,0.0,0.0,0.0,0.0,0.0,0.0,-1.6658,-1.6361,-1.6182,-1.6978,0.0,-1.7066,-1.8225,-1.8701,0.0,0.0,0.0,0.0,0.0,-2.16,-2.2621,0.0,-2.3685,-2.4178,0.0,-2.4035,-2.3295,-2.3032,-2.3152,-2.3281,-2.3032,0.0,0.0,0.0,0.0,0.0,0.0,0.0,0.0,0.0,0.0,0.0,0.0,0.0,0.0,0.0,0.0,0.0,0.0,0.0,0.0,0.0,0.0,0.0,0.0,0.0,0.0,0.0,-2.3595,-2.3595,-2.3595,-2.3789,-2.3879,-2.3879,-2.3699,-2.3684,-2.3879,-2.4499,-2.516,-2.5875,-2.6301,-2.7108,-2.8246,-2.8236,-2.8704,-2.9546,-3.0168,-3.0553,-3.0835,-3.2721,-3.3888,-3.4578,-3.5235,-3.5504,-3.5504,-3.5504,-3.5504,-3.5504,0.0,0.0,0.0,0.0,0.0,-2.366,-2.3522,-2.2905,-2.232,0.0,0.0,0.0,-2.011,-1.9339,-1.871,-1.8195,-1.7932,-1.7779,-1.7682,-1.7476,-1.735,-1.7385,-1.7601,-1.7614,-1.741,-1.7721,0.0,0.0,0.0,0.0,0.0,0.0,0.0,0.0,0.0,0.0,0.0,0.0,0.0,0.0,-1.7816,0.0,0.0,-1.8583,-1.9105,0.0,0.0,0.0,-2.2598,-2.2577,-2.3337,0.0,0.0,0.0,0.0,0.0,-2.331,-2.352,-2.3182,-2.3325,-2.3595,0.0,0.0,0.0,-2.2403,-2.168,0.0,0.0,0.0,0.0,0.0,0.0,0.0,0.0,0.0,0.0,0.0,0.0,0.0,0.0,0.0,0.0,0.0,0.0,0.0,0.0,-2.3595,-2.3595,-2.3595,-2.3595,-2.3595,-2.3595,-2.3595,-2.3486,-2.3231,-2.3853,-2.4384,-2.4808,-2.5691,-2.67,-2.7784,-2.8338,-2.8801,-2.922,-3.0118,-3.0507,-3.0614,-3.1974,-3.2984,-3.3754,-3.4696,-3.507,-3.5115,-3.54,-3.5504,-3.5504,0.0,0.0,-2.47,-2.4503,-2.4002,-2.3533,-2.3189,-2.2513,-2.1898,0.0,-2.1055,-2.0447,-1.9617,-1.9106,-1.8647,-1.8248,-1.7752,-1.7677,-1.8179,-1.7739,-1.7524,-1.7586,-1.8028,-1.8066,-1.7576,-1.7586,-1.7561,0.0,0.0,0.0,0.0,0.0,0.0,0.0,0.0,0.0,0.0,0.0,0.0,-1.7899,-1.7481,-1.7885,0.0,0.0,-1.8868,-1.9724,-1.9778,-2.1164,-2.2963,-2.2619,-2.3293,0.0,0.0,0.0,0.0,0.0,-2.3595,-2.3595,-2.3595,-2.3595,-2.3595,0.0,0.0,0.0,-2.2173,-2.1859,-2.1455,0.0,0.0,0.0,0.0,0.0,0.0,0.0,0.0,0.0,0.0,0.0,0.0,0.0,0.0,0.0,0.0,0.0,-2.2838,-2.3445,-2.3565,-2.3595,-2.3595,-2.3595,-2.3595,-2.3595,-2.3595,-2.3312,-2.2694,-2.3351,-2.3692,-2.3706,-2.4929,-2.5877,-2.6632,-2.7829,-2.8412,-2.8562,-2.9834,-3.0402,-3.0436,-3.1011,-3.1732,-3.2617,-3.3855,-3.4409,-3.4593,-3.525,-3.5504,-3.5504,0.0,0.0,-2.4495,-2.4294,-2.3735,-2.3171,-2.2785,-2.2135,-2.1412,-2.065,-1.9816,-1.9246,-1.9065,-1.8619,-1.8292,-1.8201,-1.8103,-1.8091,-1.8191,-1.8103,-1.8242,-1.8669,-1.8795,-1.8795,-1.8682,-1.8682,-1.8469,-1.8041,0.0,0.0,0.0,0.0,0.0,0.0,0.0,0.0,0.0,0.0,0.0,-1.8164,-1.8499,0.0,-1.7521,-1.8038,-1.8319,-1.8497,-1.895,-2.0004,-2.1409,-2.2755,-2.3347,-2.3566,0.0,0.0,0.0,-2.3595,0.0,0.0,0.0,0.0,0.0,0.0,0.0,0.0,-2.3295,-2.2853,-2.2433,0.0,0.0,0.0,0.0,0.0,0.0,0.0,0.0,0.0,0.0,0.0,0.0,0.0,0.0,0.0,0.0,0.0,-2.2179,-2.2838,-2.3325,-2.3595,-2.3595,-2.3595,-2.3595,-2.3595,-2.3595,-2.3312,-2.2694,-2.3258,-2.3583,-2.3706,-2.4393,-2.5364,-2.6602,-2.6856,-2.7275,-2.7869,-2.9217,-2.9786,-2.9864,-3.0994,-3.1871,-3.2542,-3.3196,-3.3885,-3.4593,-3.525,-3.5504,-3.5504,-2.4503,-2.4503,-2.4408,-2.4145,-2.3595,-2.3015,-2.2439,-2.1753,-2.0991,-2.006,-1.9111,-1.8611,-1.8906,-1.8742,-1.8705,-1.8981,-1.8756,-1.8707,-1.8982,-1.8756,-1.8719,-1.8995,-1.9259,-1.9271,-1.9008,-1.9008,-1.887,-1.8594,0.0,0.0,0.0,0.0,0.0,0.0,0.0,0.0,0.0,0.0,-1.9281,-1.8423,-1.8228,0.0,-1.7213,-1.6988,-1.7234,-1.7828,-1.8677,-2.0161,-2.1909,-2.3369,-2.3897,0.0,0.0,-2.3975,-2.4022,0.0,-2.3595,-2.3595,0.0,0.0,0.0,-2.3595,0.0,0.0,0.0,-2.2927,-2.2598,0.0,0.0,0.0,0.0,0.0,0.0,0.0,0.0,0.0,0.0,0.0,0.0,0.0,0.0,0.0,0.0,0.0,-2.162,-2.2628,-2.3251,-2.3595,-2.3595,-2.3595,-2.3595,-2.3595,-2.3595,-2.3312,-2.2694,-2.2965,-2.3123,-2.3207,-2.4144,-2.5136,-2.6123,-2.6782,-2.7285,-2.766,-2.8678,-2.9307,-2.96,-2.9711,-3.0645,-3.2064,-3.2638,-3.313,-3.3574,-3.4262,-3.4711,-3.4996,-2.4435,-2.4435,-2.4355,-2.409,-2.3559,-2.2937,-2.2187,-2.1456,-2.068,-1.975,-1.8655,-1.8207,-1.8926,-1.8806,-1.8902,-1.946,-1.9083,-1.907,-1.9623,-1.9233,-1.9008,-1.9008,-1.9497,-1.956,-1.9008,-1.9096,-1.9146,-1.9146,0.0,0.0,0.0,0.0,0.0,0.0,0.0,0.0,0.0,0.0,0.0,-1.8346,0.0,-1.7063,-1.7174,-1.614,-1.6371,-1.7453,-1.8921,-2.0779,-2.2709,-2.407,-2.4472,-2.435,-2.3999,-2.4131,0.0,0.0,0.0,0.0,0.0,0.0,0.0,0.0,0.0,-2.3505,0.0,0.0,0.0,0.0,0.0,0.0,0.0,0.0,0.0,0.0,0.0,0.0,0.0,0.0,0.0,0.0,0.0,0.0,0.0,0.0,-2.1335,-2.2433,-2.3176,-2.3595,-2.3595,-2.3595,-2.3595,-2.3595,-2.3595,-2.3312,-2.2694,-2.2938,-2.2938,-2.2709,-2.4181,-2.512,-2.5644,-2.6866,-2.748,-2.763,-2.8308,-2.8886,-2.9294,-2.8546,-2.935,-3.1087,-3.1766,-3.2213,-3.2617,-3.3395,-3.4054,-3.4533,-2.4237,-2.4237,-2.4228,-2.4181,-2.3631,-2.2902,-2.2051,-2.1406,-2.0686,-1.9803,-1.8343,-1.7803,-1.888,-1.8151,-1.7806,-1.8329,-1.8329,-1.853,-1.9058,-1.9033,-1.9008,-1.9008,-1.9497,-1.956,-1.9008,-1.9472,-1.971,-1.971,-1.9171,0.0,0.0,0.0,0.0,0.0,-1.8455,0.0,0.0,0.0,-1.7864,0.0,-1.5985,-1.6019,0.0,-1.6383,-1.6601,-1.7438,-1.9831,-2.1189,-2.2185,0.0,-2.4576,-2.4003,0.0,-2.4965,-2.3939,-2.5061,0.0,0.0,0.0,0.0,0.0,0.0,-2.4036,0.0,0.0,0.0,0.0,0.0,0.0,0.0,0.0,0.0,0.0,0.0,0.0,0.0,0.0,0.0,0.0,0.0,0.0,0.0,0.0,0.0,0.0,-2.1799,-2.2921,-2.3595,-2.3595,-2.3595,-2.3595,-2.3595,-2.3595,-2.3312,-2.2694,-2.3813,-2.3813,-2.2709,-2.461,-2.5529,-2.563,-2.6363,-2.7046,-2.763,-2.8308,-2.8535,-2.8497,-2.8972,-2.9199,-2.9341,-3.0019,-3.1205,-3.2662,-3.3903,-3.4444,-3.4593,-2.419,-2.419,-2.4084,-2.3692,-2.338,-2.2795,-2.1569,-2.0799,-2.0086,-1.9331,-1.8708,-1.8511,0.0,0.0,0.0,0.0,0.0,-1.8757,0.0,0.0,-1.9146,-1.9434,-1.9685,-1.9698,-1.9459,-1.9685,-1.9798,-1.9798,-1.9559,-1.9447,0.0,0.0,0.0,0.0,-1.8388,0.0,-1.8325,0.0,-1.7042,0.0,0.0,0.0,0.0,-1.5394,-1.6431,-1.8394,-2.0232,-2.1495,-2.2489,0.0,-2.4542,0.0,0.0,0.0,0.0,0.0,0.0,0.0,0.0,0.0,0.0,0.0,0.0,0.0,-2.4091,0.0,-2.4171,0.0,0.0,0.0,0.0,0.0,0.0,0.0,0.0,0.0,0.0,0.0,0.0,0.0,0.0,0.0,0.0,0.0,0.0,0.0,0.0,-2.3242,-2.358,-2.3595,-2.3789,-2.4156,-2.4171,-2.4238,-2.4381,-2.4908,-2.4908,-2.4395,-2.5601,-2.6183,-2.6198,-2.6881,-2.733,-2.763,-2.8308,-2.8481,-2.8312,-2.8487,-2.8742,-2.8998,-2.8763,-2.9407,-3.0635,-3.2074,-3.2815,-3.3319,-2.4084,0.0,0.0,0.0,-2.3247,-2.2764,-2.1455,-2.0657,0.0,0.0,0.0,0.0,-1.8994,-1.8732,0.0,0.0,-1.8473,-1.8375,0.0,0.0,-1.8349,-1.862,-1.9117,-1.9305,-1.9131,-1.9501,-1.9741,-1.9798,-1.9798,-1.9798,0.0,0.0,0.0,0.0,0.0,-1.7899,-1.7646,0.0,0.0,-1.5911,-1.6001,-1.5711,-1.5194,-1.4886,-1.6359,-1.8771,-1.9943,-2.1259,-2.2549,-2.337,-2.4253,0.0,-2.4343,0.0,0.0,0.0,0.0,0.0,-2.5555,0.0,0.0,0.0,0.0,0.0,0.0,0.0,0.0,0.0,0.0,0.0,0.0,0.0,0.0,-2.2697,0.0,0.0,0.0,0.0,0.0,0.0,0.0,0.0,0.0,0.0,0.0,0.0,-2.2224,-2.2897,-2.3325,-2.3505,-2.3924,-2.459,-2.4605,-2.4918,-2.56,-2.5794,-2.5794,-2.5615,-2.6452,-2.6791,-2.6617,-2.73,-2.7705,-2.7899,-2.8382,-2.846,-2.8193,-2.8077,-2.812,-2.8247,-2.7604,-2.7769,-2.8554,-3.0393,-3.1404,-3.2029,-2.3785,-2.3986,0.0,0.0,0.0,0.0,0.0,0.0,0.0,0.0,0.0,0.0,0.0,0.0,0.0,0.0,0.0,-1.674,-1.7315,0.0,-1.6097,0.0,0.0,-1.8034,0.0,-1.8715,-1.9537,-1.9798,-1.9798,-1.9798,0.0,0.0,0.0,0.0,0.0,-1.8189,-1.8525,-1.6569,-1.5792,-1.5836,-1.5147,-1.4833,-1.4879,0.0,-1.6607,-1.8032,-1.8722,0.0,0.0,-2.3245,-2.3663,0.0,0.0,0.0,0.0,0.0,0.0,0.0,0.0,0.0,0.0,-2.6338,0.0,0.0,0.0,0.0,-2.5381,0.0,0.0,0.0,0.0,0.0,-2.262,-2.2698,-2.2147,0.0,0.0,0.0,0.0,0.0,0.0,0.0,0.0,0.0,0.0,-2.0718,-2.1934,-2.2703,-2.2718,-2.3266,-2.3924,-2.459,-2.4605,-2.4918,-2.56,-2.6243,-2.6243,-2.563,-2.6941,-2.7225,-2.6617,-2.73,-2.7959,-2.8562,-2.8592,-2.839,-2.8016,-2.7999,-2.7434,-2.6589,-2.6555,-2.6555,-2.6909,-2.9774,-3.0817,-3.0997,0.0,0.0,0.0,0.0,0.0,0.0,0.0,-2.2045,0.0,0.0,0.0,0.0,0.0,-2.0025,-1.9497,0.0,0.0,-1.8203,-1.8413,-1.8025,0.0,0.0,0.0,-1.8601,0.0,0.0,-2.0081,-2.0402,-2.0402,0.0,0.0,0.0,0.0,0.0,0.0,-1.7427,0.0,0.0,0.0,0.0,0.0,-1.5371,-1.5713,0.0,0.0,-1.7859,-1.9001,-2.0151,0.0,-2.2601,-2.3316,-2.3743,-2.4157,-2.4582,-2.5016,-2.548,-2.5749,0.0,0.0,0.0,-2.5565,-2.5384,0.0,0.0,0.0,0.0,0.0,0.0,0.0,0.0,0.0,-2.26,-2.2467,-2.2105,-2.2221,-2.2444,0.0,0.0,0.0,0.0,0.0,0.0,0.0,0.0,0.0,-2.0658,-2.153,-2.2239,0.0,-2.3266,-2.4118,-2.5217,-2.5247,-2.5809,-2.6926,-2.7151,-2.7151,-2.6941,-2.739,-2.748,-2.7285,-2.7974,-2.8382,-2.8626,-2.8928,-2.8668,-2.7978,-2.7853,-2.7301,-2.6499,-2.6499,-2.6713,-2.7255,-2.9231,-2.9925,-3.019,-2.3045,0.0,0.0,0.0,0.0,0.0,0.0,0.0,0.0,0.0,-2.2352,0.0,-2.1584,0.0,-2.0616,0.0,-1.9517,-1.9054,-1.924,-1.8477,0.0,-1.7413,-1.7978,0.0,0.0,0.0,0.0,0.0,0.0,-1.9606,0.0,0.0,0.0,0.0,0.0,-1.6824,-1.6743,0.0,-1.501,0.0,0.0,-1.5674,0.0,0.0,-1.6903,-1.7792,0.0,-1.9655,-2.0781,-2.1712,-2.2606,-2.3334,-2.3297,-2.4178,-2.5187,-2.4971,-2.5384,-2.5864,-2.5642,-2.5404,0.0,-2.4476,-2.4586,0.0,-2.455,0.0,0.0,0.0,0.0,0.0,0.0,0.0,-2.2103,-2.1763,-2.2077,-2.2483,0.0,-2.3015,0.0,0.0,0.0,0.0,0.0,0.0,-2.0228,-2.0658,-2.1545,-2.2254,0.0,0.0,-2.4208,-2.557,-2.5615,-2.6243,-2.7585,-2.76,-2.76,-2.76,-2.76,-2.772,-2.7974,-2.8397,-2.8687,-2.8876,-2.916,-2.8778,-2.7886,-2.7741,-2.7229,-2.6499,-2.6499,-2.6839,-2.745,-2.8576,-2.9243,-2.9819,0.0,0.0,0.0,0.0,-2.2959,0.0,0.0,0.0,-2.4133,0.0,-2.2746,-2.2474,-2.1698,-2.1119,-2.0981,-2.1509,-1.9978,-1.9215,-1.9708,-1.8105,0.0,0.0,-1.6856,-1.6833,-1.5959,0.0,0.0,0.0,0.0,0.0,0.0,0.0,0.0,0.0,-1.7024,0.0,-1.6464,-1.5719,-1.541,-1.541,-1.541,-1.5684,-1.6124,-1.6105,0.0,-1.7861,-1.772,-1.8787,-2.0343,-2.0744,-2.1678,-2.2661,-2.2712,-2.3543,-2.4395,-2.3799,-2.4133,-2.4543,-2.3913,-2.4094,-2.4318,-2.3828,0.0,0.0,0.0,0.0,-2.5091,0.0,0.0,0.0,0.0,0.0,0.0,-2.1632,-2.1653,-2.2109,-2.3384,0.0,0.0,0.0,0.0,0.0,0.0,-2.0733,-2.0703,-2.0748,-2.1939,-2.2658,0.0,0.0,-2.4208,-2.557,-2.5615,-2.6243,-2.7585,-2.76,-2.76,-2.76,-2.76,-2.7944,-2.8547,-2.8554,-2.882,-2.926,-2.9229,-2.8619,-2.7703,-2.767,-2.7196,-2.6499,-2.6499,-2.6851,-2.7394,-2.7946,-2.885,-2.9792,-2.3244,-2.3672,-2.4202,0.0,-2.4279,-2.3877,0.0,0.0,0.0,0.0,-2.3884,-2.3811,-2.3389,-2.2485,-2.1945,-2.2083,-2.0942,0.0,0.0,0.0,0.0,-1.6844,-1.7326,-1.7275,-1.65,-1.7744,0.0,-1.8892,0.0,0.0,-1.7637,0.0,0.0,0.0,0.0,0.0,-1.6464,-1.5719,-1.541,-1.541,-1.541,-1.5869,0.0,0.0,-1.7274,-1.8891,-1.8761,-1.9379,-2.0415,-2.1583,-2.194,-2.204,-2.2953,-2.3157,-2.3269,-2.3991,-2.4339,-2.4445,-2.4265,-2.4036,-2.3808,-2.3656,-2.339,-2.3257,0.0,0.0,0.0,0.0,0.0,0.0,0.0,0.0,0.0,-2.0965,-2.0997,-2.1476,0.0,0.0,0.0,-2.3551,0.0,0.0,-2.2149,-2.1291,-2.0897,-2.141,-2.1754,0.0,0.0,0.0,0.0,-2.557,-2.5615,-2.6243,-2.7585,-2.76,-2.76,-2.76,-2.76,-2.769,-2.7874,-2.8228,-2.8438,-2.8527,-2.8226,-2.7937,-2.7637,-2.704,-2.6679,-2.6499,-2.6499,-2.7077,-2.7959,-2.8511,-2.9176,-2.9792,-2.4602,0.0,0.0,-2.685,0.0,0.0,-2.5591,0.0,0.0,-2.4789,-2.4778,0.0,-2.3692,-2.302,-2.2644,-2.2644,-2.1882,0.0,-2.1408,0.0,0.0,-1.8186,-1.8165,-1.7708,-1.6652,-1.7811,0.0,-1.8613,0.0,0.0,-1.8294,0.0,0.0,0.0,0.0,-1.7305,0.0,-1.6128,-1.5693,-1.5723,-1.6116,0.0,0.0,-1.7079,-1.7823,-1.8783,-1.9083,-1.9555,-2.0169,-2.1115,-2.1439,-2.1612,-2.2631,-2.317,-2.3468,-2.3855,-2.3945,-2.3892,-2.3609,-2.3285,-2.2909,-2.2445,-2.2518,-2.2691,-2.2594,-2.2827,-2.3108,0.0,0.0,0.0,0.0,0.0,0.0,-2.0745,-2.1007,0.0,0.0,0.0,0.0,0.0,-2.2569,0.0,-2.302,-2.165,-2.1111,-2.2074,0.0,0.0,0.0,0.0,0.0,-2.557,-2.5884,-2.6527,-2.7585,-2.7899,-2.7899,-2.76,-2.76,-2.7582,-2.7568,-2.8075,-2.8095,-2.7679,-2.7683,-2.7517,-2.7129,-2.6679,-2.6499,-2.6549,-2.7027,-2.7557,-2.821,-2.9013,-2.9515,-2.9792,0.0,0.0,0.0,0.0,0.0,0.0,0.0,-2.7311,0.0,-2.577,0.0,-2.5087,-2.3526,-2.3296,-2.319,-2.3007,0.0,-2.2171,-2.2096,-2.1157,-2.0244,-1.9511,-1.8964,-1.8058,-1.668,-1.7643,-1.8163,0.0,0.0,-1.916,-1.9714,0.0,0.0,0.0,0.0,0.0,0.0,-1.6971,-1.6467,0.0,-1.7324,-1.7448,-1.7216,-1.8206,-1.8477,-1.8395,-1.8944,-1.9393,-1.9792,-2.0138,-2.0589,-2.1156,-2.2052,-2.3067,-2.3892,-2.3472,-2.3365,-2.3227,-2.2647,-2.2396,-2.2083,-2.1144,-2.197,-2.2744,-2.182,-2.2334,-2.302,-2.3095,-2.2556,-2.1995,0.0,0.0,0.0,0.0,0.0,0.0,0.0,0.0,0.0,0.0,0.0,0.0,0.0,-2.1953,-2.1485,0.0,0.0,0.0,0.0,0.0,0.0,-2.557,-2.6243,0.0,-2.772,0.0,-2.8177,-2.7593,-2.7503,-2.738,-2.7236,-2.7741,-2.7543,-2.6786,-2.7328,-2.7162,-2.6499,-2.6499,-2.6537,-2.67,-2.7708,-2.8147,-2.8335,-2.9402,-2.9792,-2.9792,0.0,0.0,0.0,0.0,0.0,-2.9749,-3.0528,-2.9767,-2.8566,-2.7147,-2.7068,-2.6512,-2.4932,-2.4334,-2.3632,-2.2556,-2.1945,0.0,0.0,0.0,0.0,-1.8884,-1.8762,-1.8286,-1.744,-1.7395,-1.7898,0.0,-1.8759,-1.9079,-1.9871,0.0,0.0,0.0,0.0,0.0,-1.8436,-1.8659,0.0,-1.814,-1.8714,-1.911,-1.9295,-1.8786,-1.9233,-1.9977,-1.8687,-1.8736,-1.9489,-2.026,-2.0291,-2.019,-2.1559,-2.1824,-2.18,-2.2846,-2.3166,-2.3128,-2.301,-2.2644,-2.2259,-2.2071,-2.2234,-2.2397,-2.2209,-2.2322,-2.2556,-2.3007,-2.197,-2.1232,-2.202,0.0,0.0,0.0,0.0,0.0,0.0,0.0,0.0,0.0,0.0,-2.1589,0.0,0.0,0.0,0.0,0.0,0.0,0.0,0.0,0.0,0.0,0.0,0.0,0.0,0.0,-2.7691,-2.7517,-2.6968,-2.6367,-2.5786,-2.614,-2.6237,-2.6099,-2.6511,-2.6624,-2.6499,-2.6499,-2.6763,-2.7241,-2.7846,-2.8386,-2.8825,-2.9541,-2.9792,-2.9792,0.0,0.0,0.0,0.0,0.0,0.0,0.0,-3.2053,0.0,-2.82,-2.7661,-2.6778,-2.4874,-2.4451,-2.3868,-2.282,-2.2234,-2.1681,-2.1157,-2.0591,-1.9981,-1.9293,-1.9254,0.0,-1.8194,-1.8409,-1.8957,-1.9761,-1.9709,-2.0182,-2.1129,-2.0854,0.0,0.0,0.0,-2.0208,0.0,0.0,0.0,-1.9287,-2.0014,-2.0125,-1.9935,-2.0194,-2.0155,-1.9879,-1.9497,-1.9044,-1.8821,-2.0139,-2.0103,-1.9757,-2.1377,-2.1377,-2.0997,-2.2145,-2.2476,-2.2567,-2.2987,-2.2907,-2.2644,-2.2355,-2.2493,-2.2631,-2.2343,-2.2506,-2.2706,-2.2681,-2.1845,-2.1106,-2.1016,-2.0855,0.0,0.0,0.0,0.0,0.0,0.0,0.0,0.0,0.0,0.0,0.0,0.0,0.0,0.0,0.0,0.0,0.0,0.0,0.0,0.0,0.0,0.0,0.0,0.0,0.0,-2.6425,-2.6087,-2.5675,-2.528,-2.5707,-2.5827,-2.5762,-2.6278,-2.6499,-2.6499,-2.6499,-2.6826,-2.7344,-2.7896,-2.8448,-2.8963,-2.9578,-2.9792,-2.9792,0.0,-3.5712,0.0,0.0,-3.5665,0.0,-3.3984,-3.3591,-3.2299,-2.9251,-2.8315,-2.7183,-2.5208,-2.4862,-2.4399,-2.3469,-2.2856,-2.2264,-2.1619,-2.1012,-2.0427,-1.9823,-1.9798,-1.9527,-1.8965,-1.9345,-1.9851,0.0,-2.0594,-2.1203,0.0,-2.1983,0.0,0.0,0.0,0.0,0.0,0.0,-2.0139,-2.0465,-2.1272,-2.1187,-2.0673,-2.1556,-2.1037,-1.9911,-2.043,-1.9726,-1.8754,-2.0139,-2.0009,-1.9562,-2.1132,-2.1144,-2.0782,-2.1659,-2.1908,-2.2075,-2.2884,-2.3108,-2.2995,-2.2569,-2.2782,-2.2957,-2.2406,-2.2531,-2.2631,-2.2234,-2.1694,-2.1031,-1.9987,-2.0201,0.0,0.0,0.0,0.0,0.0,0.0,0.0,0.0,0.0,0.0,-2.2245,0.0,0.0,0.0,0.0,0.0,0.0,0.0,0.0,0.0,0.0,-2.5323,-2.5412,0.0,-2.5908,0.0,-2.5244,-2.5076,-2.4875,-2.5423,-2.5659,-2.5624,-2.6248,-2.6499,-2.6499,-2.6499,-2.6889,-2.7494,-2.7934,-2.8524,-2.9126,-2.9628,-2.9792,-2.9792,0.0,0.0,0.0,0.0,0.0,0.0,0.0,-3.3502,-3.2117,-3.052,-2.9782,-2.8855,-2.7363,-2.6653,-2.5774,-2.4475,-2.37,-2.2865,-2.1837,-2.1091,-2.0427,-1.9823,-1.9798,-1.9773,-1.9695,-1.9123,-1.9415,0.0,-2.0527,-2.1067,-2.2322,-2.2744,0.0,0.0,0.0,0.0,0.0,-2.2591,-2.2474,-2.2114,-2.27,-2.287,-2.2719,-2.2144,-2.1815,-2.1553,-2.0846,-2.0494,-2.0365,-2.0526,-2.0009,-1.9464,-2.043,-2.0655,-2.0782,-2.1659,-2.1908,-2.2075,-2.2884,-2.3108,-2.3095,-2.3045,-2.3058,-2.2957,-2.2406,-2.197,-2.1631,-2.1581,-2.1157,-2.0578,-1.9924,-1.9849,-2.0049,0.0,0.0,0.0,0.0,0.0,0.0,0.0,0.0,0.0,0.0,0.0,0.0,0.0,0.0,0.0,0.0,0.0,0.0,-2.2881,0.0,-2.4869,-2.548,-2.5495,0.0,-2.5226,-2.4662,-2.4314,-2.4129,-2.4652,-2.5161,-2.5624,-2.6248,-2.6499,-2.6499,-2.6499,-2.7115,-2.8034,-2.8084,-2.8762,-2.9716,-2.9779,-2.9792,-2.9792,0.0,0.0,0.0,0.0,0.0,0.0,0.0,-3.5114,-3.381,-3.1989,-3.08,-2.9616,-2.8191,-2.7474,-2.6713,-2.573,-2.4354,-2.3164,-2.2339,-2.1342,-2.0476,-1.9837,-1.9798,-1.9798,-1.9798,-1.9862,-2.0308,0.0,0.0,-2.1956,-2.2782,-2.2995,0.0,0.0,0.0,-2.2669,-2.2769,-2.2656,-2.2681,-2.2794,-2.3007,-2.3108,-2.3078,-2.2732,-2.2322,-2.1908,-2.2051,-2.1447,-2.0751,-2.176,-2.1195,-2.0042,-1.9879,-2.0171,-2.0558,-2.0398,-2.108,-2.197,-2.2292,-2.2732,-2.2975,-2.2506,-2.2732,-2.2825,-2.175,-2.1774,-2.1794,-2.1157,-2.0566,-2.0075,-1.9849,-2.0087,-2.0528,0.0,0.0,0.0,0.0,0.0,0.0,0.0,0.0,-2.0729,0.0,0.0,0.0,0.0,0.0,0.0,0.0,0.0,0.0,-2.2521,0.0,-2.387,-2.4079,-2.4034,-2.4157,-2.4466,-2.4231,-2.4416,-2.4971,-2.5184,-2.5586,-2.616,-2.6399,-2.6499,-2.6512,-2.6851,-2.7406,-2.8134,-2.8461,-2.9089,-2.9792,-2.9792,-2.9792,-2.9702,-4.1627,0.0,-3.9937,0.0,-3.9717,-3.8513,-3.702,-3.6166,-3.5026,-3.3134,-3.2029,-3.0809,-2.9182,-2.8296,-2.7625,-2.71,-2.5286,-2.3897,-2.3251,-2.1843,-2.0754,-2.0105,-1.9901,0.0,-2.0049,-2.0478,-2.0968,-2.1493,-2.2046,0.0,-2.2869,0.0,0.0,0.0,-2.2694,-2.2744,-2.3083,-2.2694,-2.2744,-2.3108,-2.3108,-2.3108,-2.3108,-2.3108,-2.2763,-2.2322,-2.2884,-2.2341,-2.1479,-2.2433,-2.2113,-2.1195,-2.0333,-2.0494,-2.0846,-2.0236,-2.0942,-2.1939,-2.2187,-2.2659,-2.2877,-2.1933,-2.211,-2.2211,-2.0889,-2.1066,-2.129,-2.0575,-2.0087,-1.9798,-1.9798,-2.0137,-2.0536,-2.0893,0.0,0.0,0.0,0.0,0.0,0.0,-2.1069,-2.0891,-2.0771,0.0,0.0,0.0,0.0,0.0,0.0,0.0,0.0,0.0,0.0,0.0,0.0,-2.3195,-2.359,-2.4004,-2.4167,-2.472,-2.5598,-2.5774,-2.6109,-2.6499,-2.6499,-2.6499,-2.6537,-2.709,-2.7607,-2.816,-2.8675,-2.9289,-2.9792,-2.9792,-2.9585,-2.9197,-4.2096,-4.2188,-4.1903,-4.0783,-4.0624,-3.9804,-3.7195,-3.6166,-3.5193,-3.3781,-3.3582,-3.2751,-3.0691,-2.9328,-2.8566,-2.8566,-2.667,-2.5243,-2.4698,-2.2729,-2.1351,0.0,0.0,-2.0075,-2.0666,-2.0691,-2.0968,-2.1493,0.0,0.0,-2.2305,0.0,-2.3108,-2.3108,-2.3095,-2.3095,-2.3108,-2.3095,-2.3095,-2.3108,-2.3108,-2.3108,-2.3108,-2.3108,-2.3095,-2.3078,-2.3108,-2.3078,-2.2944,-2.2199,-2.2445,-2.2914,-2.2125,-2.1877,-2.1877,-2.1877,-2.1877,-2.2063,-2.2884,-2.3078,-2.279,-2.1536,-2.1224,-2.0949,-1.9869,-1.963,-1.9679,-1.9794,-1.9811,-1.9798,-1.9798,-1.9811,-1.9752,-1.9645,0.0,0.0,0.0,0.0,0.0,0.0,-2.1182,-2.1282,-2.0756,0.0,0.0,0.0,0.0,0.0,0.0,0.0,0.0,-2.1521,-2.202,0.0,-2.2322,-2.3439,-2.3991,-2.4004,-2.4556,-2.5084,-2.5611,-2.6223,-2.6487,-2.6499,-2.6499,-2.6499,-2.6537,-2.709,-2.7607,-2.816,-2.8675,-2.9289,-2.9792,-2.9792,-2.9106,-2.8136,-4.3687,-4.2984,-4.2121,-4.1517,-4.1439,-4.0749,-3.8618,-3.7666,-3.6669,-3.5218,-3.4595,-3.3689,-3.2114,-3.0749,-2.9602,0.0,-2.7174,-2.5987,0.0,-2.3442,-2.2245,-2.2048,-2.0989,-2.0679,-2.1245,-2.1594,-2.187,-2.2046,0.0,0.0,0.0,-2.302,-2.3108,-2.3108,-2.3108,-2.3108,-2.3108,-2.3108,-2.3108,-2.3108,-2.3108,-2.3108,-2.3108,-2.3108,-2.3108,-2.3108,-2.3108,-2.3108,-2.3078,-2.2793,-2.2884,-2.3078,-2.2793,-2.2732,-2.2506,-2.1353,-2.1428,-2.1815,-2.1491,-2.1385,-2.1161,-2.0166,-2.0355,-2.0583,-1.9848,-2.0022,-2.0471,-2.0876,-2.0195,-1.9561,-1.9667,-1.9179,-1.8783,-1.8844,-1.9272,0.0,0.0,0.0,0.0,0.0,-2.1081,-2.1031,0.0,-2.1732,0.0,0.0,0.0,0.0,0.0,0.0,0.0,0.0,-2.2757,0.0,-2.3985,-2.4004,-2.4368,-2.5084,-2.5259,-2.5837,-2.6741,-2.6587,-2.67,-2.7052,-2.7052,-2.7052,-2.7128,-2.8021,-2.8511,-2.8687,-2.9302,-2.9628,-2.9792,-2.9792,-2.9067,-2.8016,-4.3611,-4.2928,-4.2064,-4.1334,-4.1298,-4.0822,-3.9099,-3.8065,-3.7155,-3.6235,-3.5454,-3.4469,-3.3128,-3.2013,0.0,-2.9117,-2.7515,-2.6426,-2.6,-2.4379,-2.3312,-2.2989,-2.1982,-2.1444,-2.1509,0.0,0.0,-2.2309,-2.2832,-2.3108,-2.3108,-2.3108,-2.3108,-2.3108,-2.3108,-2.3108,-2.3108,-2.3108,-2.3108,-2.3108,-2.3108,-2.3108,-2.3108,-2.3108,-2.3108,-2.3108,-2.3108,-2.3108,-2.3108,-2.3108,-2.3108,-2.3108,-2.3108,-2.2884,-2.2445,-2.1396,-2.1459,-2.1721,-2.0846,-2.059,-2.0353,-1.9306,-1.9447,-1.9765,-1.9518,-2.0,-2.06,-2.0932,-2.0318,-1.9627,-1.9372,-1.8754,-1.8326,-1.8412,-1.865,-1.9057,-1.9666,0.0,0.0,0.0,0.0,0.0,0.0,-2.2297,0.0,0.0,0.0,0.0,0.0,0.0,0.0,-2.3409,-2.3434,0.0,-2.4775,-2.4669,-2.4933,-2.5598,-2.6025,-2.6703,-2.7582,-2.7231,-2.7268,-2.7595,-2.7595,-2.7595,-2.7657,-2.8561,-2.8888,-2.895,-2.9566,-2.9792,-2.9753,-2.9326,-2.845,-2.74,-4.2335,-4.2207,0.0,0.0,-4.0469,0.0,-3.882,-3.757,-3.6795,-3.6795,-3.605,-3.5048,-3.3746,-3.2951,-3.1744,-2.9759,0.0,0.0,0.0,-2.5472,-2.4444,-2.3753,-2.303,-2.2319,-2.1634,-2.2108,-2.2372,-2.2372,-2.2857,-2.3108,-2.3108,-2.3108,-2.3108,-2.3108,-2.3108,-2.3108,-2.3108,-2.3108,-2.3108,-2.3108,-2.3108,-2.3108,-2.3108,-2.3108,-2.3108,-2.3108,-2.3108,-2.3108,-2.3108,-2.3108,-2.3108,-2.3108,-2.3108,-2.2537,-2.1908,-2.1908,-2.1815,-2.1522,-2.0719,-2.0462,-2.0126,-1.8881,-1.8584,-1.8723,-1.9042,-1.9654,-2.0181,-2.0205,-2.0164,-1.9825,-1.8981,-1.8526,-1.8233,-1.8167,-1.7879,-1.7934,-1.8608,0.0,0.0,0.0,0.0,0.0,0.0,-2.2807,-2.312,0.0,0.0,0.0,0.0,0.0,-2.3484,-2.4092,-2.4067,-2.4343,-2.4888,-2.5372,-2.5611,-2.5674,-2.6766,-2.757,-2.8109,-2.8109,-2.8134,-2.816,-2.816,-2.816,-2.821,-2.8725,-2.895,-2.9001,-2.9578,-2.9792,-2.9663,-2.8518,-2.7481,-2.6595,0.0,0.0,-4.1328,-4.1143,-4.0381,-3.952,-3.8712,-3.757,-3.6795,-3.6795,-3.5653,-3.4526,-3.3686,-3.2548,-3.1221,-2.9732,-2.8682,-2.7904,-2.7405,-2.6186,-2.5314,-2.4983,-2.3836,-2.3072,-2.2736,-2.2844,-2.2907,-2.2907,-2.3045,-2.3108,-2.3108,-2.3108,-2.3108,-2.3108,-2.3108,-2.3108,-2.3108,-2.3108,-2.3108,-2.3108,-2.3108,-2.3108,-2.3108,-2.3108,-2.3108,-2.3108,-2.3108,-2.3108,-2.3108,-2.3108,-2.3108,-2.3108,-2.3108,-2.2537,-2.1908,-2.1908,-2.0942,-1.989,-1.9661,-1.911,-1.8533,-1.8231,-1.8657,-1.9175,-1.9221,-1.9566,-1.9946,-2.0404,-1.966,-1.8771,-1.8283,-1.8032,-1.7694,-1.7041,-1.7794,-1.8501,-1.8688,-1.9568,0.0,0.0,-2.1782,-2.2305,-2.2857,-2.3032,-2.3283,0.0,0.0,0.0,0.0,-2.4462,-2.4637,-2.5197,-2.4833,-2.5096,-2.6097,-2.5749,-2.5824,-2.6298,-2.6989,-2.757,-2.8109,-2.8109,-2.8335,-2.87,-2.87,-2.87,-2.875,-2.9352,-2.9591,-2.9603,-2.9741,-2.9792,-2.9663,-2.8518,-2.7924,-2.7602,-4.1693,-4.1035,-4.048,-4.0211,-3.9514,-3.8879,-3.8513,-3.7195,-3.6366,-3.6761,-3.5518,-3.4455,-3.4112,-3.285,-3.1508,-3.0155,-2.9162,-2.8308,-2.7645,-2.6954,-2.6214,-2.5439,-2.4708,-2.3817,-2.2761,-2.297,-2.3108,-2.3108,-2.3108,-2.3108,-2.3108,-2.3108,-2.3108,-2.3108,-2.3108,-2.3108,-2.3108,-2.3108,-2.3108,-2.3108,-2.3108,-2.3108,-2.3108,-2.3108,-2.3108,-2.3108,-2.3108,-2.3108,-2.3108,-2.3108,-2.3108,-2.3108,-2.3108,-2.2279,-2.1302,-2.1302,-2.0365,-1.9199,-1.8821,-1.8361,-1.8008,-1.8008,-1.8361,-1.8821,-1.9199,-1.9414,-1.9619,-1.9922,-1.9393,-1.8696,-1.8104,-1.7905,-1.7756,-1.7624,-1.823,-1.8821,-1.915,-2.0076,0.0,-2.1458,-2.197,-2.2493,-2.3045,-2.3346,-2.3665,-2.3979,0.0,0.0,-2.5536,-2.5812,-2.5963,-2.6021,-2.5724,-2.6101,-2.7241,-2.6653,-2.6779,-2.7595,-2.7632,-2.8084,-2.8875,-2.8875,-2.9038,-2.9327,-2.9327,-2.9327,-2.9352,-2.9666,-2.9792,-2.9792,-2.9792,-2.9792,-2.9663,-2.8518,-2.8096,-2.8004,-3.992,-3.9751,-3.9533,-3.8982,-3.8509,-3.8201,-3.8143,-3.6705,-3.5814,-3.6386,-3.5293,-3.4406,-3.4309,-3.3182,-3.1909,-3.0572,-2.942,-2.8386,-2.7493,-2.7433,-2.6785,-2.5287,-2.5231,-2.4355,-2.2476,-2.2869,-2.3108,-2.3108,-2.3108,-2.3108,-2.3108,-2.3108,-2.3108,-2.3108,-2.3108,-2.3108,-2.3108,-2.3108,-2.3108,-2.3108,-2.3108,-2.3108,-2.3108,-2.3108,-2.3108,-2.3108,-2.3108,-2.3108,-2.3108,-2.3108,-2.3108,-2.3078,-2.2944,-2.1865,-2.0558,-2.043,-1.9781,-1.8944,-1.8202,-1.8008,-1.8008,-1.8008,-1.8008,-1.8202,-1.8944,-1.911,-1.911,-1.911,-1.911,-1.887,-1.8091,-1.7951,-1.8187,-1.8881,-1.8918,-1.9146,-1.9946,0.0,-2.1056,-2.1656,-2.2221,-2.2757,-2.3308,-2.381,-2.4192,-2.4356,-2.5209,-2.6013,0.0,-2.719,-2.7231,-2.6876,-2.6788,-2.719,-2.8097,-2.7645,-2.7871,-2.8762,-2.8411,-2.8737,-2.9666,-2.9754,-2.9792,-2.9792,-2.9792,-2.9792,-2.9792,-2.9792,-2.9792,-2.9792,-2.9792,-2.9792,-2.9663,-2.8518,-2.8215,-2.8347,-4.0651,-3.9677,-3.9056,-3.9625,-3.8418,-3.7386,-3.7367,-3.636,-3.5435,-3.4996,-3.4267,-3.3531,-3.296,-3.216,-3.1155,-2.9873,-2.9555,-2.8652,-2.6794,-2.6669,-2.6,-2.4538,-2.4452,-2.4008,-2.3012,-2.3058,-2.3108,-2.3108,-2.3108,-2.3108,-2.3108,-2.3108,-2.3108,-2.3108,-2.3108,-2.3108,-2.3108,-2.3108,-2.3108,-2.3108,-2.3108,-2.3108,-2.3108,-2.3108,-2.3108,-2.3108,-2.3108,-2.3108,-2.3108,-2.3108,-2.3108,-2.2975,-2.2292,-2.1396,-2.0462,-1.9726,-1.8877,-1.8168,-1.8042,-1.8008,-1.8008,-1.8008,-1.8008,-1.8042,-1.8168,-1.8202,-1.8202,-1.8202,-1.8202,-1.8141,-1.7882,-1.8335,-1.8907,-1.9404,-1.9563,-1.9994,-2.1091,0.0,-2.1732,-2.2732,-2.3389,-2.3954,-2.4474,-2.4612,-2.5084,-2.6047,-2.626,-2.6801,-2.7795,-2.7934,-2.816,-2.8536,-2.8097,-2.7934,-2.8109,-2.8021,-2.8059,-2.8235,-2.8612,-2.885,-2.9076,-2.9566,-2.9792,-2.9792,-2.9792,-2.9792,-2.9792,-2.9792,-2.9792,-2.9792,-2.9792,-2.9792,-2.9663,-2.8518,-2.8727,-2.9404,-3.994,-3.9245,-3.8817,-3.9184,-3.8319,-3.7488,-3.7229,-3.6522,-3.5688,-3.4719,-3.4012,-3.3339,-3.2668,-3.1923,-3.0972,-2.9726,-2.9193,-2.8099,-2.603,-2.6283,-2.6014,-2.4922,-2.4509,-2.3914,-2.3138,-2.3108,-2.3108,-2.3108,-2.3108,-2.3108,-2.3108,-2.3108,-2.3108,-2.3108,-2.3108,-2.3108,-2.3108,-2.3108,-2.3108,-2.3108,-2.3108,-2.3108,-2.3108,-2.3108,-2.3108,-2.3108,-2.3108,-2.3108,-2.3108,-2.3108,-2.2823,-2.2384,-2.2002,-2.0974,-1.9814,-1.9431,-1.8687,-1.8008,-1.8008,-1.8008,-1.8008,-1.8008,-1.8008,-1.8008,-1.8008,-1.8008,-1.8008,-1.8008,-1.8008,-1.8048,-1.8175,-1.8563,-1.9111,-1.9804,-1.9831,0.0,0.0,-2.1744,-2.2234,-2.3007,-2.3873,-2.4544,-2.4763,-2.5071,-2.5573,-2.6436,-2.6763,-2.7381,-2.8449,-2.8512,-2.8775,-2.9377,-2.9151,-2.9013,-2.9013,-2.8699,-2.8699,-2.9013,-2.895,-2.9051,-2.9402,-2.9666,-2.9792,-2.9792,-2.9792,-2.9792,-2.9792,-2.9792,-2.9792,-2.9792,-2.9792,-2.9792,-2.9753,-2.9197,-2.9365,-2.9702,-3.9164,-3.9026,-3.8906,-3.8726,-3.8403,-3.7966,-3.7303,-3.6744,-3.5916,-3.4552,-3.3912,-3.3287,-3.2437,-3.1702,-3.0808,-2.9711,-2.888,-2.7732,-2.6016,-2.6122,-2.5837,-2.4922,-2.4337,-2.3738,-2.3108,-2.3108,-2.3108,-2.3108,-2.3108,-2.3108,-2.3108,-2.3108,-2.3108,-2.3108,-2.3108,-2.3108,-2.3108,-2.3108,-2.3108,-2.3108,-2.3108,-2.3108,-2.3108,-2.3108,-2.3108,-2.3108,-2.3108,-2.3108,-2.3078,-2.2884,-2.2414,-2.1815,-2.1428,-2.0365,-1.9276,-1.9044,-1.8529,-1.8008,-1.8008,-1.8008,-1.8008,-1.8008,-1.8008,-1.8008,-1.8008,-1.8008,-1.8008,-1.8008,-1.8008,-1.8164,-1.8701,-1.8986,-1.9448,-2.0532,0.0,0.0,0.0,-2.2322,-2.2769,-2.3584,-2.4594,-2.5247,-2.5385,-2.5875,-2.6414,-2.7027,-2.7419,-2.8097,-2.9076,-2.9126,-2.934,-2.9779,-2.9792,-2.9792,-2.9792,-2.9352,-2.9352,-2.9779,-2.934,-2.9365,-2.9792,-2.9792,-2.9792,-2.9792,-2.9792,-2.9792,-2.9792,-2.9792,-2.9792,-2.9792,-2.9792,-2.988,-2.9967,-2.9842,-2.9955,-3.0143,-3.9164,-3.949,-3.9571,-3.8833,-3.8872,-3.8605,-3.7394,-3.6744,-3.573,-3.3921,-3.3633,-3.3077,-3.1739,-3.0984,-3.0313,-2.9666,-2.8973,-2.8275,-2.7478,-2.6215,-2.4838,-2.3335,-2.3215,-2.3155,-2.3108,-2.3108,-2.3108,-2.3108,-2.3108,-2.3108,-2.3108,-2.3108,-2.3108,-2.3108,-2.3108,-2.3108,-2.3108,-2.3108,-2.3108,-2.3108,-2.3108,-2.3108,-2.3108,-2.3108,-2.3108,-2.3108,-2.3108,-2.3108,-2.2987,-2.223,-2.1939,-2.1628,-2.0009,-1.9398,-1.9144,-1.8337,-1.8042,-1.8008,-1.8008,-1.8008,-1.8008,-1.8008,-1.8008,-1.8008,-1.8008,-1.8008,-1.8008,-1.8008,-1.8008,-1.8365,-1.9472,-1.9736,-2.0255,-2.1885,0.0,0.0,-2.3577,-2.3358,-2.3622,-2.5234,-2.5996,-2.6575,-2.7055,-2.7595,-2.8147,-2.8662,-2.875,-2.9076,-2.9691,-2.9729,-2.9741,-2.9792,-2.9792,-2.9792,-2.9792,-2.9754,-2.9754,-2.9792,-2.9741,-2.9754,-2.9792,-2.9792,-2.9792,-2.9792,-2.9792,-2.9792,-2.9792,-2.9792,-2.9792,-2.9792,-2.9792,-3.0105,-3.0495,-2.998,-3.0419,-3.1198,-3.9171,-3.9131,-3.905,-3.8744,-3.8781,-3.8469,-3.7381,-3.7034,-3.6096,-3.3887,-3.3239,-3.2441,-3.1022,-3.0313,-2.9669,-2.9026,-2.834,-2.743,-2.6312,-2.5728,-2.4724,-2.3168,-2.3108,-2.3335,-2.3826,-2.3365,-2.3335,-2.3826,-2.3335,-2.3108,-2.3108,-2.3108,-2.3108,-2.3108,-2.3108,-2.3108,-2.3108,-2.3108,-2.3108,-2.3108,-2.3108,-2.3108,-2.3108,-2.3108,-2.3108,-2.3108,-2.3108,-2.3108,-2.2975,-2.2168,-2.1522,-2.0878,-1.9694,-1.8921,-1.8428,-1.811,-1.8008,-1.8008,-1.8008,-1.8008,-1.8008,-1.8008,-1.8008,-1.8008,-1.8008,-1.8008,-1.8134,-1.8687,-1.8821,-1.9162,-2.0343,-2.0544,-2.1025,-2.2553,0.0,-2.2585,-2.4268,-2.4286,-2.4499,-2.5485,-2.6449,-2.709,-2.7268,-2.7783,-2.8335,-2.885,-2.8888,-2.9176,-2.9767,-2.9792,-2.9792,-2.9792,-2.9792,-2.9792,-2.9792,-2.9792,-2.9792,-2.9792,-2.9792,-2.9792,-2.9792,-2.9792,-2.9792,-2.9792,-2.9792,-2.9792,-2.9792,-2.9792,-2.9792,-2.9792,-2.9792,-2.9917,-3.0118,-3.0256,-3.0557,-3.0922,-3.918,-3.9102,-3.8995,-3.8744,-3.8906,-3.8661,-3.7397,-3.7206,-3.6328,-3.3928,-3.3024,-3.2142,-3.0932,-2.9894,-2.9175,-2.8936,-2.8066,-2.7118,-2.6163,-2.5864,-2.5175,-2.3872,-2.3813,-2.4076,-2.4624,-2.4105,-2.3989,-2.4292,-2.3738,-2.3335,-2.3108,-2.3108,-2.3108,-2.3108,-2.3108,-2.3108,-2.3108,-2.3108,-2.3108,-2.3108,-2.3108,-2.3108,-2.3108,-2.3108,-2.3108,-2.3108,-2.3108,-2.3108,-2.2944,-2.1877,-2.1101,-2.0398,-1.9233,-1.8654,-1.8361,-1.8076,-1.8202,-1.8337,-1.8076,-1.8008,-1.8008,-1.8008,-1.8008,-1.8008,-1.8008,-1.8202,-1.8596,-1.9177,-1.9646,-2.0292,-2.135,-2.1668,-2.2185,-2.3436,-2.3321,-2.3565,-2.4883,-2.5059,-2.5322,-2.6038,-2.6967,-2.7607,-2.7783,-2.831,-2.88,-2.9126,-2.9202,-2.9365,-2.9779,-2.9792,-2.9792,-2.9792,-2.9792,-2.9792,-2.9792,-2.9792,-2.9792,-2.9792,-2.9792,-2.9792,-2.9792,-2.9792,-2.9792,-2.9792,-2.9792,-2.9792,-2.9792,-2.9792,-2.9792,-2.9792,-2.9792,-2.9993,-3.0319,-3.0532,-3.0947,-3.1411,-3.9161,-3.9534,-3.9642,-3.8851,-3.9357,-3.9273,-3.7468,-3.7206,-3.6346,-3.3928,-3.3024,-3.2331,-3.1578,-2.9747,-2.8861,-2.9532,-2.8364,-2.76,-2.76,-2.6904,-2.6176,-2.5453,-2.5398,-2.5398,-2.5398,-2.5398,-2.5035,-2.4321,-2.4292,-2.3884,-2.3108,-2.3108,-2.3108,-2.3108,-2.3108,-2.3108,-2.3108,-2.3108,-2.3108,-2.3108,-2.3108,-2.3108,-2.3108,-2.3108,-2.3108,-2.3108,-2.3108,-2.3108,-2.2841,-2.1164,-2.059,-2.0301,-1.8563,-1.8586,-1.9144,-1.8269,-1.862,-1.911,-1.8269,-1.8008,-1.8008,-1.8008,-1.8008,-1.8008,-1.8008,-1.8697,-1.9309,-1.9342,-2.0423,-2.1661,-2.2565,-2.3156,-2.3779,-2.4658,-2.48,-2.4976,-2.5523,-2.5598,-2.6025,-2.719,-2.777,-2.8335,-2.8838,-2.9453,-2.9792,-2.9792,-2.9792,-2.9792,-2.9792,-2.9792,-2.9792,-2.9792,-2.9792,-2.9792,-2.9792,-2.9792,-2.9792,-2.9792,-2.9792,-2.9792,-2.9792,-2.9792,-2.9792,-2.9792,-2.9792,-2.9792,-2.9792,-2.9792,-2.9792,-2.9792,-2.983,-3.0484,-3.1364,-3.0809,-3.1662,-3.3036,-3.9175,-3.908,-3.8977,-3.8744,-3.8587,-3.8203,-3.7329,-3.688,-3.5921,-3.3885,-3.3024,-3.1968,-3.0343,-2.922,-2.8487,-2.8229,-2.7824,-2.76,-2.76,-2.6904,-2.6642,-2.6916,-2.5946,-2.5646,-2.6149,-2.5646,-2.5287,-2.5063,-2.4538,-2.3884,-2.3108,-2.3108,-2.3108,-2.3108,-2.3108,-2.3108,-2.3108,-2.3108,-2.3108,-2.3108,-2.3108,-2.3108,-2.3108,-2.3108,-2.3108,-2.3108,-2.3108,-2.3108,-2.2841,-2.1164,-2.059,-2.0398,-1.9266,-1.9077,-1.9365,-1.9726,-2.0009,-2.0171,-1.989,-1.9814,-1.9529,-1.8303,-1.8462,-1.8911,-1.8911,-1.9884,-2.0941,-2.1564,-2.2306,-2.3143,-2.403,-2.4295,-2.4628,-2.5264,-2.536,-2.5561,-2.616,-2.6575,-2.6904,-2.7278,-2.8109,-2.8712,-2.8875,-2.9453,-2.9792,-2.9792,-2.9792,-2.9792,-2.9792,-2.9792,-2.9792,-2.9792,-2.9792,-2.9792,-2.9792,-2.9792,-2.9792,-2.9792,-2.9792,-2.9792,-2.9792,-2.9792,-2.9792,-2.9792,-2.9792,-2.9792,-2.9792,-2.9792,-3.0177,-3.0848,-3.1302,-3.2087,-3.3041,-3.3715,-3.3794,-3.3634,-3.9178,-3.8865,-3.8707,-3.8707,-3.8259,-3.7738,-3.7268,-3.6741,-3.5729,-3.385,-3.2784,-3.1631,-3.0117,-2.8906,-2.8154,-2.8019,-2.775,-2.76,-2.76,-2.7178,-2.7111,-2.7575,-2.6759,-2.6481,-2.693,-2.6481,-2.6135,-2.5837,-2.5091,-2.4337,-2.3573,-2.3245,-2.3108,-2.3108,-2.3108,-2.3108,-2.3108,-2.3108,-2.3108,-2.3108,-2.3108,-2.3108,-2.3108,-2.3108,-2.3108,-2.3108,-2.3108,-2.2884,-2.2476,-2.1459,-2.0878,-2.0462,-1.9562,-1.9781,-2.0365,-2.0558,-2.0846,-2.1049,-2.0687,-2.059,-2.041,-1.9563,-1.9739,-2.0127,-2.0127,-2.1229,-2.2389,-2.2894,-2.3718,-2.4492,-2.5023,-2.5498,-2.59,-2.6214,-2.6264,-2.6465,-2.7065,-2.7241,-2.7444,-2.7883,-2.8524,-2.8976,-2.9252,-2.9591,-2.9792,-2.9792,-2.9792,-2.9792,-2.9792,-2.9792,-2.9792,-2.9792,-2.9792,-2.9792,-2.9792,-2.9792,-2.9792,-2.9792,-2.9792,-2.9792,-2.9792,-2.9792,-2.9792,-2.9792,-2.9792,-2.9792,-2.983,-3.0216,-3.0696,-3.1307,-3.234,-3.3227,-3.3974,-3.4546,-3.4512,-3.4135,-3.9125,-3.8869,-3.8673,-3.8643,-3.8191,-3.7684,-3.7193,-3.6664,-3.5679,-3.3935,-3.2513,-3.1413,-3.0658,-2.8862,-2.794,-2.8535,-2.7985,-2.76,-2.76,-2.76,-2.76,-2.76,-2.76,-2.76,-2.76,-2.76,-2.7255,-2.651,-2.5837,-2.5119,-2.4379,-2.3649,-2.3305,-2.3305,-2.3245,-2.3215,-2.3198,-2.3138,-2.3108,-2.3108,-2.3108,-2.3108,-2.3108,-2.3108,-2.3108,-2.3108,-2.3108,-2.2567,-2.1877,-2.1721,-2.1144,-2.0365,-1.965,-2.0558,-2.1753,-2.1037,-2.1396,-2.1858,-2.1094,-2.0914,-2.1028,-2.156,-2.1818,-2.1829,-2.163,-2.2684,-2.3673,-2.3673,-2.4779,-2.5749,-2.5749,-2.6628,-2.7356,-2.7356,-2.7356,-2.7532,-2.8034,-2.772,-2.7808,-2.8762,-2.8938,-2.9214,-2.9741,-2.9792,-2.9792,-2.9792,-2.9792,-2.9792,-2.9792,-2.9792,-2.9792,-2.9792,-2.9792,-2.9792,-2.9792,-2.9792,-2.9792,-2.9792,-2.9792,-2.9792,-2.9792,-2.9792,-2.9792,-2.9792,-2.9792,-2.9792,-2.9856,-3.0796,-3.1254,-3.1479,-3.3088,-3.4093,-3.4552,-3.4214,-3.4352,-3.4598,-3.8844,-3.875,-3.8562,-3.815,-3.7685,-3.7169,-3.665,-3.6109,-3.544,-3.452,-3.3218,-3.2109,-3.1349,-2.9552,-2.8408,-2.8523,-2.7976,-2.76,-2.76,-2.76,-2.76,-2.76,-2.76,-2.76,-2.76,-2.76,-2.7255,-2.651,-2.6336,-2.5864,-2.5147,-2.4979,-2.4894,-2.4894,-2.4308,-2.4031,-2.4002,-2.3365,-2.3108,-2.3108,-2.3108,-2.3108,-2.3108,-2.3108,-2.3108,-2.3108,-2.3108,-2.2567,-2.1678,-2.0333,-1.9759,-1.9661,-2.0171,-2.1037,-2.2002,-2.2433,-2.2689,-2.2892,-2.32,-2.3249,-2.3384,-2.3924,-2.4883,-2.5254,-2.3439,-2.4141,-2.5145,-2.5145,-2.6111,-2.6917,-2.6917,-2.7469,-2.7921,-2.7921,-2.7921,-2.7971,-2.8084,-2.8373,-2.8624,-2.8863,-2.9327,-2.9654,-2.9779,-2.9792,-2.9792,-2.9792,-2.9792,-2.9792,-2.9792,-2.9792,-2.9792,-2.9792,-2.9792,-2.9792,-2.9792,-2.9792,-2.9792,-2.9792,-2.9792,-2.9792,-2.9792,-2.9792,-2.9792,-2.9792,-2.9792,-2.9792,-2.9856,-3.0796,-3.1646,-3.2448,-3.4059,-3.5239,-3.6045,-3.6125,-3.5742,-3.4991,-3.8747,-3.8707,-3.853,-3.7997,-3.7506,-3.702,-3.6478,-3.5941,-3.5362,-3.4688,-3.3712,-3.2667,-3.1622,-3.0326,-2.9361,-2.8943,-2.8391,-2.8018,-2.8018,-2.776,-2.76,-2.76,-2.76,-2.76,-2.76,-2.76,-2.7408,-2.7008,-2.6669,-2.6283,-2.5933,-2.5563,-2.5398,-2.537,-2.5007,-2.4624,-2.4263,-2.3855,-2.3454,-2.3133,-2.3409,-2.3521,-2.3547,-2.381,-2.391,-2.3873,-2.3609,-2.3077,-2.2218,-2.0494,-2.0451,-2.1132,-2.1195,-2.1815,-2.2567,-2.2975,-2.3296,-2.3615,-2.3916,-2.4368,-2.5025,-2.6013,-2.7013,-2.7295,-2.5527,-2.6226,-2.7308,-2.7637,-2.8158,-2.8549,-2.8385,-2.8821,-2.9025,-2.8573,-2.8461,-2.8599,-2.8875,-2.8875,-2.9001,-2.9315,-2.9616,-2.9792,-2.9792,-2.9792,-2.9792,-2.9792,-2.9792,-2.9792,-2.9792,-2.9792,-2.9792,-2.9792,-2.9792,-2.9792,-2.9792,-2.9792,-2.993,-3.0181,-3.0181,-3.0043,-2.9817,-3.0319,-3.0269,-2.9804,-3.0068,-3.0043,-2.9895,-3.1291,-3.2177,-3.2769,-3.4355,-3.5508,-3.614,-3.5588,-3.4882,-3.4145,-3.8732,-3.8707,-3.853,-3.7997,-3.7506,-3.702,-3.6478,-3.5941,-3.5385,-3.483,-3.3968,-3.3001,-3.1954,-3.1006,-3.019,-2.9454,-2.885,-2.8487,-2.8487,-2.7959,-2.76,-2.76,-2.76,-2.76,-2.76,-2.76,-2.76,-2.76,-2.6982,-2.6695,-2.6669,-2.6054,-2.5783,-2.5783,-2.5646,-2.5175,-2.4494,-2.4456,-2.3981,-2.3308,-2.3904,-2.4142,-2.4192,-2.4612,-2.4725,-2.4632,-2.4268,-2.3673,-2.2782,-2.1167,-2.1604,-2.2793,-2.2094,-2.2445,-2.3108,-2.3108,-2.3619,-2.424,-2.431,-2.525,-2.6523,-2.792,-2.8758,-2.9046,-2.8032,-2.8598,-2.9508,-3.0053,-3.0233,-3.0156,-2.9714,-3.0134,-3.0215,-2.9227,-2.9038,-2.9252,-2.9729,-2.9377,-2.9252,-2.9729,-2.9792,-2.9792,-2.9792,-2.9792,-2.9792,-2.9792,-2.9792,-2.9792,-2.9792,-2.9792,-2.9792,-2.9792,-2.988,-2.993,-2.993,-3.0212,-3.0556,-3.1012,-3.1299,-3.0939,-3.0093,-3.0896,-3.0821,-3.0093,-3.0545,-3.0432,-3.0072,-3.194,-3.269,-3.2755,-3.4241,-3.5136,-3.5411,-3.4091,-3.3336,-3.2943,-3.8707,-3.8707,-3.853,-3.7997,-3.7506,-3.702,-3.6478,-3.5941,-3.5577,-3.547,-3.3822,-3.2768,-3.3113,-3.1459,-3.0071,-2.9451,-2.885,-2.8487,-2.8487,-2.7959,-2.76,-2.76,-2.76,-2.76,-2.76,-2.76,-2.76,-2.76,-2.7484,-2.7458,-2.7458,-2.7357,-2.7291,-2.7265,-2.6642,-2.5933,-2.5244,-2.5085,-2.4576,-2.3929,-2.4481,-2.4675,-2.4687,-2.4763,-2.4519,-2.4167,-2.4537,-2.384,-2.2548,-2.109,-2.1259,-2.2032,-2.1939,-2.2445,-2.3108,-2.3108,-2.4034,-2.5139,-2.5665,-2.7198,-2.8784,-2.9513,-3.0722,-3.1679,-3.154,-3.1087,-3.0743,-3.086,-3.1223,-3.1282,-3.0432,-3.0728,-3.079,-2.9807,-2.9679,-2.9704,-2.9779,-2.9729,-2.9704,-2.9779,-2.9792,-2.9792,-2.9792,-2.9792,-2.9792,-2.9792,-2.9792,-2.9792,-2.9792,-2.9792,-2.9792,-2.9792,-3.0256,-3.0507,-3.0507,-3.1863,-3.2594,-3.2686,-3.4103,-3.3488,-3.116,-3.0859,-3.0884,-3.1185,-3.1248,-3.0984,-3.0653,-3.2522,-3.304,-3.2713,-3.3722,-3.42,-3.4139,-3.3246,-3.266,-3.2403,-3.8707,-3.8707,-3.853,-3.7997,-3.7506,-3.702,-3.6478,-3.5941,-3.5447,-3.5047,-3.4191,-3.357,-3.3415,-3.2219,-3.1133,-3.0468,-2.954,-2.8996,-2.8996,-2.8125,-2.76,-2.76,-2.76,-2.76,-2.76,-2.76,-2.76,-2.76,-2.76,-2.7382,-2.6997,-2.7281,-2.7053,-2.6377,-2.6651,-2.6199,-2.5235,-2.5134,-2.4843,-2.4481,-2.4687,-2.4996,-2.5259,-2.5259,-2.5109,-2.4883,-2.4833,-2.4201,-2.332,-2.2718,-2.2945,-2.3408,-2.2764,-2.3326,-2.415,-2.387,-2.5244,-2.7012,-2.7698,-2.9565,-3.1576,-3.2775,-3.3469,-3.4016,-3.4536,-3.4073,-3.3398,-3.3021,-3.3133,-3.2944,-3.1848,-3.1834,-3.1513,-3.0037,-2.9792,-2.9792,-2.9792,-2.9792,-2.9792,-2.9792,-2.9792,-2.9792,-2.9792,-2.9792,-2.9792,-2.9792,-2.9792,-2.9792,-2.9792,-2.9792,-2.9792,-2.9792,-3.003,-3.0595,-3.15,-3.2187,-3.3165,-3.4339,-3.4771,-3.4326,-3.3195,-3.3555,-3.3212,-3.2302,-3.2599,-3.2122,-3.1196,-3.3152,-3.3813,-3.361,-3.3746,-3.3275,-3.2528,-3.2511,-3.2565,-3.2729]},{"header":{"parameterUnit":"m.s-1","parameterCategory":1,"la1":30.6,"la2":28.766,"lo1":-90.7593,"lo2":-88.6598,"dy":0.0162,"dx":0.0183,"nx":116,"ny":114,"refTime":"2023-06-22T12:00:00:Z","depth":0,"parameterNumber":3,"parameterNumberName":"V-component_of_WINDS"},"data":[0.0,0.0,0.0,0.0,0.0,0.0,0.0,0.0,0.0,0.0,0.0,0.0,0.0,0.0,0.0,0.0,0.0,0.0,0.0,0.0,0.0,0.0,0.0,0.0,0.0,0.0,0.0,0.0,0.0,0.0,0.0,0.0,0.0,0.0,0.0,0.0,0.0,0.0,0.0,0.0,0.0,0.0,0.0,0.0,0.0,0.0,0.0,0.0,0.0,0.0,0.0,0.0,0.0,0.0,0.0,0.0,0.0,0.0,0.0,0.0,0.0,0.0,0.0,0.0,0.0,0.0,0.0,0.0,0.0,0.0,0.0,0.0,0.0,0.0,0.0,0.0,0.0,0.0,0.0,0.0,0.0,0.0,0.0,0.0,0.0,0.0,0.0,0.0,0.0,0.0,0.0,0.0,0.0,0.0,0.0,0.0,0.0,0.0,0.0,0.0,0.0,0.0,0.0,0.0,0.0,0.0,0.0,0.0,0.0,0.0,0.0,0.0,0.0,0.0,0.0,0.0,0.0,0.0,0.0,0.0,0.0,0.0,0.0,0.0,0.0,0.0,0.0,0.0,0.0,0.0,0.0,0.0,0.0,0.0,0.0,0.0,0.0,0.0,0.0,0.0,0.0,0.0,0.0,0.0,0.0,0.0,0.0,0.0,0.0,0.0,0.0,0.0,0.0,0.0,0.0,0.0,0.0,0.0,0.0,0.0,0.0,0.0,0.0,0.0,0.0,0.0,0.0,0.0,0.0,0.0,0.0,0.0,0.0,0.0,0.0,0.0,0.0,0.0,0.0,0.0,0.0,0.0,0.0,0.0,0.0,0.0,0.0,0.0,0.0,0.0,0.0,0.0,0.0,0.0,0.0,0.0,0.0,0.0,0.0,0.0,0.0,0.0,0.0,0.0,0.0,0.0,0.0,0.0,0.0,0.0,0.0,0.0,0.0,0.0,0.0,0.0,0.0,0.0,0.0,0.0,0.0,0.0,0.0,0.0,0.0,0.0,0.0,0.0,0.0,0.0,0.0,0.0,0.0,0.0,0.0,0.0,0.0,0.0,0.0,0.0,0.0,0.0,0.0,0.0,0.0,0.0,0.0,0.0,0.0,0.0,0.0,0.0,0.0,0.0,0.0,0.0,0.0,0.0,0.0,0.0,0.0,0.0,0.0,0.0,0.0,0.0,0.0,0.0,0.0,0.0,0.0,0.0,0.0,0.0,0.0,0.0,0.0,0.0,0.0,0.0,0.0,0.0,0.0,0.0,0.0,0.0,0.0,0.0,0.0,0.0,0.0,0.0,0.0,0.0,0.0,0.0,0.0,0.0,0.0,0.0,0.0,0.0,0.0,0.0,0.0,0.0,0.0,0.0,0.0,0.0,0.0,0.0,0.0,0.0,0.0,0.0,0.0,0.0,0.0,0.0,0.0,0.0,0.0,0.0,0.0,0.0,0.0,0.0,0.0,0.0,0.0,0.0,0.0,0.0,0.0,0.0,0.0,0.0,0.0,0.0,0.0,0.0,0.0,0.0,0.0,0.0,0.0,0.0,0.0,0.0,0.0,0.0,0.0,0.0,0.0,0.0,0.0,0.0,0.0,0.0,0.0,0.0,0.0,0.0,0.0,0.0,0.0,0.0,0.0,0.0,0.0,0.0,0.0,0.0,0.0,0.0,0.0,0.0,0.0,0.0,0.0,0.0,0.0,0.0,0.0,0.0,0.0,0.0,0.0,0.0,0.0,0.0,0.0,0.0,0.0,0.0,0.0,0.0,0.0,0.0,0.0,0.0,0.0,0.0,0.0,0.0,0.0,0.0,0.0,0.0,0.0,0.0,0.0,0.0,0.0,0.0,0.0,0.0,0.0,0.0,0.0,0.0,0.0,0.0,0.0,0.0,0.0,0.0,0.0,0.0,0.0,0.0,0.0,0.0,0.0,0.0,0.0,0.0,0.0,0.0,0.0,0.0,0.0,0.0,0.0,0.0,0.0,0.0,0.0,0.0,0.0,0.0,0.0,0.0,0.0,0.0,0.0,0.0,0.0,0.0,0.0,0.0,0.0,0.0,0.0,0.0,0.0,0.0,0.0,0.0,0.0,0.0,0.0,0.0,0.0,0.0,0.0,0.0,0.0,0.0,0.0,0.0,0.0,0.0,0.0,0.0,0.0,0.0,0.0,0.0,0.0,0.0,0.0,0.0,0.0,0.0,0.0,0.0,0.0,0.0,0.0,0.0,0.0,0.0,0.0,0.0,0.0,0.0,0.0,0.0,0.0,0.0,0.0,0.0,0.0,0.0,0.0,0.0,0.0,0.0,0.0,0.0,0.0,0.0,0.0,0.0,0.0,0.0,0.0,0.0,0.0,0.0,0.0,0.0,0.0,0.0,0.0,0.0,0.0,0.0,0.0,0.0,0.0,0.0,0.0,0.0,0.0,0.0,0.0,0.0,0.0,0.0,0.0,0.0,0.0,0.0,0.0,0.0,0.0,0.0,0.0,0.0,0.0,0.0,0.0,0.0,0.0,0.0,0.0,0.0,0.0,0.0,0.0,0.0,0.0,0.0,0.0,0.0,0.0,0.0,0.0,0.0,0.0,0.0,0.0,0.0,0.0,0.0,0.0,0.0,0.0,0.0,0.0,0.0,0.0,0.0,0.0,0.0,0.0,0.0,0.0,0.0,0.0,0.0,0.0,0.0,0.0,0.0,0.0,0.0,0.0,0.0,0.0,0.0,0.0,0.0,0.0,0.0,0.0,0.0,0.0,0.0,0.0,0.0,0.0,0.0,0.0,0.0,0.0,0.0,0.0,0.0,0.0,0.0,0.0,0.0,0.0,0.0,0.0,0.0,0.0,0.0,0.0,0.0,0.0,0.0,0.0,0.0,0.0,0.0,0.0,0.0,0.0,0.0,0.0,0.0,0.0,0.0,0.0,0.0,0.0,0.0,0.0,0.0,0.0,0.0,0.0,0.0,0.0,0.0,0.0,0.0,0.0,0.0,0.0,0.0,0.0,0.0,0.0,0.0,0.0,0.0,0.0,0.0,0.0,0.0,0.0,0.0,0.0,0.0,0.0,0.0,0.0,0.0,0.0,0.0,0.0,0.0,0.0,0.0,0.0,0.0,0.0,0.0,0.0,0.0,0.0,0.0,0.0,0.0,0.0,0.0,0.0,0.0,0.0,0.0,0.0,0.0,0.0,0.0,0.0,0.0,0.0,0.0,0.0,0.0,0.0,0.0,0.0,0.0,0.0,0.0,0.0,0.0,0.0,0.0,0.0,0.0,0.0,0.0,0.0,0.0,0.0,0.0,0.0,0.0,0.0,0.0,0.0,0.0,0.0,0.0,0.0,0.0,0.0,0.0,0.0,0.0,0.0,0.0,0.0,0.0,0.0,0.0,0.0,0.0,0.0,0.0,0.0,0.0,0.0,0.0,0.0,0.0,0.0,0.0,0.0,0.0,0.0,0.0,0.0,0.0,0.0,0.0,0.0,0.0,0.0,0.0,0.0,0.0,0.0,0.0,0.0,0.0,0.0,0.0,0.0,0.0,0.0,0.0,0.0,0.0,0.0,0.0,0.0,0.0,0.0,0.0,0.0,0.0,0.0,0.0,0.0,0.0,0.0,0.0,0.0,0.0,0.0,0.0,0.0,0.0,0.0,0.0,0.0,0.0,0.0,0.0,0.0,0.0,0.0,0.0,0.0,0.0,0.0,0.0,0.0,0.0,0.0,0.0,0.0,0.0,0.0,0.0,0.0,0.0,0.0,0.0,0.0,0.0,0.0,0.0,0.0,0.0,0.0,0.0,0.0,0.0,0.0,0.0,0.0,0.0,0.0,0.0,0.0,0.0,0.0,0.0,0.0,0.0,0.0,0.0,0.0,0.0,0.0,0.0,0.0,0.0,0.0,0.0,0.0,0.0,0.0,0.0,0.0,0.0,0.0,0.0,0.0,0.0,0.0,0.0,0.0,0.0,0.0,0.0,0.0,0.0,0.0,0.0,0.0,0.0,0.0,0.0,0.0,0.0,0.0,0.0,0.0,0.0,0.0,0.0,0.0,0.0,0.0,0.0,0.0,0.0,0.0,0.0,0.0,0.0,0.0,0.0,0.0,0.0,0.0,0.0,0.0,0.0,0.0,0.0,0.0,0.0,0.0,0.0,0.0,0.0,0.0,0.0,0.0,0.0,0.0,0.0,0.0,0.0,0.0,0.0,0.0,0.0,0.0,0.0,0.0,0.0,0.0,0.0,0.0,0.0,0.0,0.0,0.0,0.0,0.0,0.0,0.0,0.0,0.0,0.0,0.0,0.0,0.0,0.0,0.0,0.0,0.0,0.0,0.0,0.0,0.0,0.0,0.0,0.0,0.0,0.0,0.0,0.0,0.0,0.0,0.0,0.0,0.0,0.0,0.0,0.0,0.0,0.0,0.0,0.0,0.0,0.0,0.0,0.0,0.0,0.0,0.0,0.0,0.0,0.0,0.0,0.0,0.0,0.0,0.0,0.0,0.0,0.0,0.0,0.0,0.0,0.0,0.0,0.0,0.0,0.0,0.0,0.0,0.0,0.0,0.0,0.0,0.0,0.0,0.0,0.0,0.0,0.0,0.0,0.0,0.0,0.0,0.0,0.0,0.0,0.0,0.0,0.0,0.0,0.0,0.0,0.0,0.0,0.0,0.0,0.0,0.0,0.0,0.0,0.0,0.0,0.0,0.0,0.0,0.0,0.0,0.0,0.0,0.0,0.0,0.0,0.0,0.0,0.0,0.0,0.0,0.0,0.0,0.0,0.0,0.0,0.0,0.0,0.0,0.0,0.0,0.0,0.0,0.0,0.0,0.0,0.0,0.0,0.0,0.0,0.0,0.0,0.0,0.0,0.0,0.0,0.0,0.0,0.0,0.0,0.0,0.0,0.0,0.0,0.0,0.0,0.0,0.0,0.0,0.0,0.0,0.0,0.0,0.0,0.0,0.0,0.0,0.0,0.0,0.0,0.0,0.0,0.0,0.0,0.0,0.0,0.0,0.0,0.0,0.0,0.0,0.0,0.0,0.0,0.0,0.0,0.0,0.0,0.0,0.0,0.0,0.0,0.0,0.0,0.0,0.0,0.0,0.0,0.0,0.0,0.0,0.0,0.0,0.0,0.0,0.0,0.0,0.0,0.0,0.0,0.0,0.0,0.0,0.0,0.0,0.0,0.0,0.0,0.0,0.0,0.0,0.0,0.0,0.0,0.0,0.0,0.0,0.0,0.0,0.0,0.0,0.0,0.0,0.0,0.0,0.0,0.0,0.0,0.0,0.0,0.0,0.0,0.0,0.0,0.0,0.0,0.0,0.0,0.0,0.0,0.0,0.0,0.0,0.0,0.0,0.0,0.0,0.0,0.0,0.0,0.0,0.0,0.0,0.0,0.0,0.0,0.0,0.0,0.0,0.0,0.0,0.0,0.0,0.0,0.0,0.0,0.0,0.0,0.0,0.0,0.0,0.0,0.0,0.0,0.0,0.0,0.0,0.0,0.0,0.0,0.0,0.0,0.0,0.0,0.0,0.0,0.0,0.0,0.0,0.0,0.0,0.0,0.0,0.0,0.0,0.0,0.0,0.0,0.0,0.0,0.0,0.0,0.0,0.0,0.0,0.0,0.0,0.0,0.0,0.0,0.0,0.0,0.0,0.0,0.0,0.0,0.0,0.0,0.0,0.0,0.0,0.0,0.0,0.0,0.0,0.0,0.0,0.0,0.0,0.0,0.0,0.0,0.0,0.0,0.0,0.0,0.0,0.0,0.0,0.0,0.0,0.0,0.0,0.0,0.0,0.0,0.0,0.0,0.0,0.0,0.0,0.0,0.0,0.0,0.0,0.0,0.0,0.0,0.0,0.0,0.0,0.0,0.0,0.0,0.0,0.0,0.0,0.0,0.0,0.0,0.0,0.0,0.0,0.0,0.0,0.0,0.0,0.0,0.0,0.0,0.0,0.0,0.0,0.0,0.0,0.0,0.0,0.0,0.0,0.0,0.0,0.0,0.0,0.0,0.0,0.0,0.0,0.0,0.0,0.0,0.0,0.0,0.0,0.0,0.0,0.0,0.0,0.0,0.0,0.0,0.0,0.0,0.0,0.0,0.0,0.0,0.0,-0.9811,0.0,0.0,0.0,0.0,0.0,0.0,0.0,0.0,0.0,0.0,0.0,0.0,0.0,0.0,0.0,0.0,0.0,0.0,0.0,0.0,0.0,0.0,0.0,0.0,0.0,0.0,0.0,0.0,0.0,0.0,0.0,0.0,0.0,0.0,0.0,0.0,0.0,0.0,0.0,0.0,0.0,0.0,0.0,0.0,0.0,0.0,0.0,0.0,0.0,0.0,0.0,0.0,0.0,0.0,0.0,0.0,0.0,0.0,0.0,0.0,0.0,0.0,0.0,0.0,0.0,0.0,0.0,0.0,0.0,0.0,0.0,0.0,0.0,0.0,0.0,0.0,0.0,0.0,0.0,0.0,0.0,0.0,0.0,0.0,0.0,0.0,0.0,0.0,0.0,0.0,0.0,0.0,0.0,0.0,0.0,0.0,0.0,0.0,0.0,0.0,0.0,0.0,0.0,0.0,0.0,0.0,0.0,0.0,0.0,0.0,0.0,0.0,0.0,0.0,0.0,0.0,-0.9604,0.0,0.0,0.0,0.0,0.0,0.0,0.0,0.0,0.0,0.0,0.0,0.0,0.0,0.0,0.0,0.0,0.0,0.0,0.0,0.0,0.0,0.0,0.0,0.0,0.0,0.0,0.0,0.0,0.0,0.0,0.0,0.0,0.0,0.0,0.0,0.0,0.0,0.0,0.0,0.0,0.0,0.0,0.0,0.0,0.0,0.0,0.0,0.0,0.0,0.0,0.0,0.0,0.0,0.0,0.0,0.0,0.0,0.0,0.0,0.0,0.0,0.0,0.0,0.0,0.0,0.0,0.0,0.0,0.0,0.0,0.0,0.0,0.0,0.0,0.0,0.0,0.0,0.0,0.0,0.0,0.0,0.0,0.0,0.0,0.0,0.0,0.0,0.0,0.0,0.0,0.0,0.0,0.0,0.0,0.0,0.0,0.0,0.0,0.0,0.0,0.0,0.0,0.0,0.0,0.0,0.0,0.0,0.0,-1.3489,-1.407,-1.5302,-1.3543,-1.2612,-1.2257,-1.1386,-1.0151,-0.8754,0.0,0.0,0.0,0.0,0.0,0.0,0.0,0.0,0.0,0.0,0.0,0.0,0.0,0.0,0.0,0.0,0.0,0.0,0.0,0.0,0.0,0.0,0.0,0.0,0.0,0.0,0.0,0.0,0.0,0.0,0.0,0.0,0.0,0.0,0.0,0.0,0.0,0.0,-1.9894,-2.0349,-1.9875,-1.9335,-1.8673,-1.7042,0.0,0.0,0.0,0.0,0.0,0.0,0.0,0.0,0.0,0.0,0.0,0.0,0.0,0.0,0.0,0.0,0.0,0.0,0.0,0.0,0.0,0.0,0.0,0.0,0.0,0.0,0.0,0.0,0.0,0.0,0.0,0.0,0.0,0.0,0.0,0.0,0.0,0.0,0.0,0.0,0.0,0.0,0.0,-1.875,-1.8174,0.0,0.0,0.0,0.0,0.0,0.0,0.0,0.0,0.0,0.0,0.0,0.0,0.0,0.0,-1.3161,-1.4447,-1.4737,-1.4033,-1.462,-1.4049,-1.2458,-1.3083,-1.2591,-1.1219,-1.1648,0.0,-0.9106,-0.8791,0.0,0.0,0.0,0.0,0.0,0.0,0.0,0.0,0.0,0.0,0.0,0.0,0.0,0.0,0.0,0.0,0.0,0.0,0.0,0.0,0.0,0.0,0.0,0.0,0.0,0.0,0.0,0.0,0.0,0.0,0.0,0.0,0.0,0.0,0.0,0.0,-2.0089,-2.0675,-2.1261,-2.103,-2.0642,-2.0074,-1.9287,-1.7656,-1.5426,-1.4373,0.0,0.0,0.0,0.0,0.0,0.0,0.0,0.0,0.0,0.0,0.0,0.0,0.0,0.0,0.0,0.0,0.0,0.0,0.0,0.0,0.0,0.0,0.0,0.0,0.0,0.0,0.0,0.0,0.0,0.0,0.0,0.0,0.0,0.0,0.0,0.0,0.0,0.0,0.0,-1.9758,-2.0415,-1.876,-1.9288,-1.886,0.0,0.0,0.0,0.0,0.0,0.0,0.0,0.0,0.0,-1.3493,-1.4698,-1.5418,-1.549,-1.6104,-1.6392,-1.6299,-1.567,-1.5296,-1.5053,-1.4236,-1.3658,-1.3255,-1.2683,-1.1799,-1.0655,-0.9866,-0.9241,-0.8798,0.0,0.0,0.0,0.0,0.0,-0.9802,0.0,0.0,0.0,0.0,0.0,0.0,0.0,0.0,0.0,0.0,0.0,0.0,0.0,0.0,0.0,-1.9062,0.0,0.0,0.0,0.0,0.0,0.0,0.0,0.0,0.0,0.0,0.0,-2.0703,-2.1196,-2.162,-2.1949,-2.2113,-2.1824,-2.1151,-2.0978,-1.903,-1.5865,-1.5435,-1.4255,0.0,0.0,0.0,0.0,0.0,0.0,0.0,0.0,0.0,0.0,0.0,0.0,0.0,0.0,0.0,0.0,0.0,0.0,0.0,0.0,0.0,0.0,0.0,0.0,0.0,0.0,0.0,0.0,0.0,0.0,0.0,0.0,0.0,0.0,0.0,0.0,0.0,0.0,-2.0837,-2.1492,-1.9343,-2.1235,-2.1585,0.0,0.0,0.0,0.0,0.0,0.0,-1.7402,-1.8364,-1.8201,-1.6531,-1.7225,-1.7736,-1.7913,-1.8201,-1.8355,-1.8377,-1.7043,-1.6638,-1.6962,-1.5162,-1.4517,-1.4763,-1.3631,-1.279,-1.2118,-1.0855,-1.0167,-0.9916,-0.9659,-0.9504,-0.9411,-0.9191,-0.9871,-1.0938,0.0,0.0,0.0,0.0,0.0,0.0,0.0,0.0,0.0,0.0,0.0,0.0,0.0,0.0,-1.9621,-1.9657,-2.0299,-2.0578,0.0,0.0,0.0,0.0,0.0,0.0,0.0,0.0,0.0,-2.0703,-2.2547,-2.3176,-2.2658,-2.3236,-2.2904,-2.183,-2.118,-2.0146,-1.8771,-1.7205,-1.58,-1.4487,0.0,0.0,0.0,0.0,0.0,0.0,0.0,0.0,0.0,0.0,0.0,0.0,0.0,0.0,0.0,0.0,0.0,0.0,0.0,0.0,0.0,0.0,0.0,0.0,0.0,0.0,0.0,0.0,0.0,0.0,0.0,0.0,0.0,0.0,0.0,0.0,0.0,0.0,0.0,-2.0314,-2.3588,0.0,0.0,0.0,0.0,-2.3615,-2.3758,-2.3433,-2.2395,-2.2227,-2.1441,-1.9804,-2.0547,-2.0863,-2.0691,-2.1698,-2.1268,-1.9406,-1.9095,-1.7737,-1.5521,-1.514,-1.4653,-1.4146,-1.4077,-1.3687,-1.3026,-1.1557,-1.0814,-1.0546,-1.0533,-1.0352,-1.0037,-1.0053,-1.0792,-1.1834,0.0,0.0,0.0,0.0,0.0,0.0,0.0,0.0,0.0,0.0,0.0,0.0,0.0,-2.033,-2.073,-2.073,-2.1029,-2.0962,-2.0344,0.0,0.0,0.0,0.0,0.0,0.0,0.0,-2.0486,-2.1292,-2.2315,-2.296,-2.3211,-2.3429,-2.3332,-2.2978,-2.2742,-2.1751,-2.0121,-1.8065,-1.6452,-1.5111,-1.2923,-1.2096,0.0,0.0,0.0,0.0,0.0,0.0,0.0,0.0,0.0,0.0,0.0,0.0,0.0,0.0,0.0,0.0,0.0,0.0,0.0,0.0,0.0,0.0,0.0,0.0,0.0,0.0,0.0,0.0,0.0,0.0,0.0,0.0,0.0,0.0,0.0,0.0,0.0,-2.5093,-2.7917,0.0,-2.7535,-2.7817,-2.8012,-2.7803,-2.8032,-2.7779,-2.6829,-2.6561,-2.5569,-2.3681,-2.3553,-2.3153,-2.2317,-2.1905,-2.1388,-2.0657,-1.9527,-1.8636,-1.8026,-1.7641,-1.6958,-1.6059,-1.5691,-1.4712,-1.3393,-1.2712,-1.2131,-1.1623,-1.1095,-1.0775,-1.0719,-1.1157,-1.202,-1.3039,0.0,0.0,0.0,0.0,0.0,0.0,0.0,0.0,0.0,0.0,0.0,-1.7907,-1.9326,-2.0444,-2.1005,-2.0778,-2.1044,-2.0909,-2.0135,0.0,0.0,0.0,-2.041,0.0,0.0,-2.008,-2.0703,-2.1862,-2.2284,-2.2748,-2.3201,-2.3413,-2.345,-2.3285,-2.3708,-2.2953,-2.1311,-1.9872,-1.7852,-1.5492,-1.3928,-1.3357,-1.3319,0.0,0.0,0.0,0.0,0.0,0.0,0.0,0.0,0.0,0.0,0.0,0.0,0.0,0.0,0.0,0.0,0.0,0.0,0.0,0.0,0.0,0.0,0.0,0.0,0.0,0.0,0.0,0.0,0.0,0.0,0.0,0.0,0.0,0.0,0.0,-2.8385,-2.9125,-3.1772,-3.3125,-3.2069,-3.2556,-3.2961,-3.2941,-3.3377,-3.3031,-3.1531,-3.0986,-2.955,-2.7019,-2.621,-2.5167,-2.3671,-2.2892,-2.2073,-2.1293,-2.0234,-1.9625,-1.948,-1.9196,-1.8503,-1.759,-1.7184,-1.592,-1.4177,-1.3975,-1.3336,-1.2398,-1.1846,-1.1662,-1.1827,-1.2257,-1.3124,-1.4115,0.0,0.0,0.0,0.0,0.0,0.0,0.0,0.0,0.0,0.0,-1.6249,-1.712,-1.8038,-1.971,-2.0494,-1.9819,-2.0325,-2.0397,-1.9756,-1.9064,0.0,0.0,0.0,0.0,-2.0578,-2.0754,-2.1352,-2.2394,-2.2594,-2.2669,-2.2644,-2.3289,-2.3234,-2.268,-2.395,-2.3726,-2.2458,-2.2688,-2.0122,-1.5902,-1.5729,-1.5326,-1.4839,0.0,0.0,0.0,0.0,0.0,0.0,0.0,0.0,0.0,0.0,0.0,0.0,0.0,0.0,0.0,0.0,0.0,0.0,0.0,0.0,0.0,0.0,0.0,0.0,0.0,0.0,0.0,0.0,0.0,0.0,0.0,0.0,0.0,-2.5028,-2.838,-3.1198,-3.2156,-3.5087,-3.6803,-3.6323,-3.8034,-3.9135,-3.9055,-3.9737,-3.9079,-3.6602,-3.5373,-3.3205,-2.977,-2.8587,-2.7007,-2.4904,-2.4904,-2.373,-2.1462,-2.1453,-2.0828,-1.967,-1.9662,-1.9234,-1.8491,-1.8483,-1.7319,-1.5368,-1.5368,-1.4427,-1.2905,-1.2829,-1.3014,-1.3317,-1.3344,-1.4048,-1.505,0.0,0.0,0.0,0.0,0.0,0.0,0.0,0.0,0.0,0.0,-1.7018,-1.8511,-1.8922,-2.083,-2.1899,-2.142,-2.0393,-1.9849,-2.0126,0.0,0.0,0.0,0.0,0.0,-2.0582,-2.1055,-2.1634,-2.2339,-2.2765,-2.3022,-2.3097,-2.3283,-2.3312,-2.321,-2.4124,-2.4044,-2.3344,-2.4366,-2.3291,-2.0696,-1.7996,-1.652,-1.593,0.0,0.0,0.0,0.0,0.0,0.0,0.0,0.0,0.0,0.0,0.0,0.0,0.0,0.0,0.0,0.0,0.0,0.0,0.0,0.0,0.0,0.0,0.0,0.0,0.0,0.0,0.0,0.0,0.0,0.0,0.0,0.0,-2.983,-3.0501,-3.2466,-3.5033,-3.8344,-4.0448,-4.1759,-4.2193,-4.274,-4.2797,-4.2219,-4.1865,-4.1156,-3.9925,-3.7873,-3.5687,-3.3325,-3.1766,-2.9681,-2.7059,-2.7059,-2.639,-2.5094,-2.4743,-2.4116,-2.3321,-2.3047,-2.2007,-2.051,-2.028,-1.911,-1.7252,-1.7252,-1.6549,-1.5224,-1.3494,-1.3103,-1.3682,-1.4423,-1.5648,-1.7032,0.0,0.0,0.0,0.0,0.0,0.0,0.0,0.0,0.0,0.0,-1.6725,-1.825,-1.8143,-1.9947,-2.0909,-2.0248,-1.9533,-1.9137,-1.9197,0.0,0.0,0.0,0.0,-2.0502,-2.1302,-2.1442,-2.187,-2.2631,-2.2493,-2.2588,-2.2887,-2.3103,-2.3424,-2.3879,-2.5088,-2.546,-2.5217,-2.6299,-2.5702,-2.3786,-2.1647,-2.0122,-1.9003,-1.7895,-1.8178,-1.9104,-1.8906,-1.9337,-1.983,-1.8783,0.0,0.0,0.0,0.0,0.0,0.0,0.0,0.0,0.0,0.0,0.0,0.0,0.0,0.0,0.0,0.0,0.0,0.0,0.0,0.0,0.0,0.0,0.0,0.0,-3.1076,-3.3681,-3.6321,-3.6914,-3.8588,-4.2644,-4.3872,-4.4671,-4.5432,-4.5529,-4.5314,-4.4857,-4.4418,-4.3718,-4.2633,-4.0934,-3.8842,-3.632,-3.4679,-3.2486,-2.9611,-2.9322,-2.8482,-2.7088,-2.6789,-2.6258,-2.5493,-2.5276,-2.42,0.0,-2.2349,-2.0922,-1.8761,-1.8884,-1.8019,0.0,0.0,0.0,0.0,0.0,-1.7111,-1.8114,0.0,0.0,0.0,0.0,0.0,0.0,0.0,0.0,0.0,0.0,0.0,-1.6916,-1.6378,-1.7877,-1.859,-1.7687,-1.8134,-1.8263,0.0,0.0,0.0,-2.0578,-2.0734,-2.129,-2.2382,-2.2,-2.2284,-2.3296,-2.2284,-2.202,-2.251,-2.3077,-2.3756,-2.4587,-2.6562,-2.7484,-2.7587,-2.8484,-2.7781,-2.6049,-2.6049,-2.4789,-2.2714,-2.1117,-2.1512,-2.2778,-2.1752,-2.1465,-2.1493,-2.0759,0.0,0.0,0.0,0.0,0.0,0.0,0.0,0.0,0.0,0.0,0.0,0.0,0.0,0.0,0.0,0.0,0.0,0.0,0.0,0.0,0.0,0.0,0.0,0.0,-3.4502,-3.6789,-4.1757,-4.1371,-4.1938,-4.563,-4.6007,-4.6278,-4.709,-4.709,-4.7005,-4.6921,-4.6921,-4.6283,-4.4832,0.0,0.0,0.0,0.0,-3.5287,-3.2396,-3.1773,-3.0426,-2.8418,-2.8313,-2.7778,-2.6819,-2.6719,-2.5856,-2.4437,-2.4313,-2.2735,-2.0313,-2.0416,-1.9311,-1.7543,-1.7164,-1.7345,-1.7852,-1.8002,-1.8344,0.0,0.0,0.0,0.0,0.0,0.0,0.0,0.0,0.0,0.0,-1.3523,-1.5041,-1.5835,-1.5203,-1.6497,-1.7304,-1.7,-1.6983,-1.7265,0.0,0.0,-1.9921,-2.0556,-2.1471,-2.2297,-2.2921,-2.3336,-2.3841,-2.4462,-2.3841,-2.3565,-2.3708,-2.4447,-2.4879,-2.5156,-2.7789,-2.8971,-2.9101,-3.094,-3.0877,-2.9535,-2.9535,-2.6883,-2.2916,-2.2994,-2.2965,-2.2921,-2.3062,-2.3799,-2.4524,-2.3326,-2.3265,-2.3394,-2.1708,0.0,0.0,0.0,0.0,0.0,0.0,0.0,0.0,0.0,0.0,0.0,0.0,0.0,0.0,0.0,0.0,0.0,0.0,0.0,0.0,-3.5519,-3.7345,-3.9878,-4.402,-4.4353,-4.5228,-4.804,-4.7851,-4.8003,-4.9323,-4.8917,-4.8325,-4.775,-4.7699,-4.7301,-4.6406,-4.4959,0.0,-4.223,-4.0113,-3.7736,-3.5223,-3.4541,-3.3379,-3.1698,0.0,0.0,-2.8883,-2.8128,-2.7151,-2.5997,-2.5082,-2.4179,-2.3279,-2.2399,-2.1403,-2.0226,-1.8424,-1.7529,-1.7424,-1.8213,-1.8921,-1.9476,0.0,0.0,0.0,0.0,0.0,0.0,0.0,0.0,0.0,0.0,-1.3869,-1.474,-1.4849,-1.5335,-1.555,-1.5311,-1.5467,0.0,0.0,-1.9593,-2.0598,-2.142,-2.2625,-2.3515,-2.3954,-2.4268,-2.4544,-2.4788,-2.4962,-2.5058,-2.5089,-2.6186,-2.7105,-2.7873,-2.9554,-3.0715,-3.153,-3.2556,-3.2243,-3.0987,-3.0987,-2.8897,-2.5716,-2.5297,-2.5191,-2.5189,-2.4745,-2.5255,-2.5944,-2.4941,-2.4639,-2.4473,-2.3111,-2.169,-2.0252,0.0,0.0,0.0,0.0,0.0,0.0,0.0,0.0,0.0,0.0,0.0,0.0,0.0,0.0,-3.1061,0.0,0.0,-3.6103,-3.8123,-3.9544,-4.1523,-4.4769,-4.5507,-4.6642,-4.9236,-4.89,-4.8883,-4.9982,-4.9763,-4.9407,-4.9035,-4.9001,-4.8647,-4.7788,-4.6248,-4.4805,-4.3497,-4.1302,-3.9344,-3.7723,-3.6393,-3.5076,-3.3811,-3.2494,-3.1349,-3.0315,-2.9369,-2.8359,-2.7279,-2.6696,-2.6027,-2.5272,-2.3888,-2.3412,-2.3278,-2.1148,-1.958,-1.8673,-1.9647,-2.0178,-2.057,0.0,0.0,0.0,0.0,0.0,0.0,0.0,0.0,0.0,0.0,-1.2315,-1.3222,-1.3946,-1.383,-1.3706,0.0,0.0,0.0,0.0,-1.9857,-2.0984,-2.2108,-2.3493,-2.4438,-2.4795,-2.4888,-2.4988,-2.5146,-2.6017,-2.6431,-2.6476,-2.8081,-2.9468,-3.0637,-3.1467,-3.2528,-3.3694,-3.3829,-3.32,-3.2064,-3.1929,-3.0778,-2.9026,-2.7679,-2.7285,-2.7255,-2.6033,-2.5732,-2.581,-2.525,-2.4712,-2.4164,-2.3536,-2.2615,-2.138,-1.9689,-1.8651,0.0,0.0,0.0,0.0,0.0,0.0,0.0,0.0,0.0,-2.8981,-3.2019,-3.3274,-3.4517,-3.6671,-3.7569,-3.8601,-4.0472,-4.122,-4.2482,-4.5037,-4.5856,-4.7129,-4.959,-4.9357,-4.9289,-5.0016,-5.0084,-5.0084,-5.0084,-4.994,-4.9489,-4.8726,-4.7108,-4.5495,-4.4018,-4.2083,-4.0573,-3.9604,-3.7778,-3.6348,-3.5256,-3.3466,-3.2213,-3.1426,-3.0317,-2.9314,-2.8426,-2.8215,-2.7493,-2.6397,-2.5049,-2.5006,-2.5643,-2.3852,-2.2199,-2.0835,-2.1466,-2.1669,-2.181,0.0,0.0,0.0,0.0,0.0,0.0,0.0,0.0,0.0,0.0,0.0,0.0,0.0,0.0,0.0,0.0,0.0,0.0,-1.8063,-1.875,-1.9799,-2.1519,-2.3157,-2.4274,-2.4775,-2.5272,-2.5762,-2.6311,-2.7255,-2.7702,-2.7748,-2.9989,-3.1125,-3.1379,-3.3291,-3.423,-3.4444,-3.5011,-3.4846,-3.4129,-3.3514,-3.2437,-3.1032,-2.9744,-2.8214,-2.6602,-2.5869,-2.4652,-2.339,-2.3249,-2.3157,-2.3041,-2.2846,-2.2344,-2.1546,-2.0258,0.0,-1.7566,-1.7926,-1.8894,-2.0347,-2.2618,-2.4002,-2.6245,0.0,0.0,-3.4219,-3.6312,-3.7764,-3.8701,-3.9035,-3.9634,-4.0516,-4.1961,-4.2246,-4.3183,-4.5718,-4.616,-4.695,-4.8899,-4.9052,-4.9289,-5.0016,-5.0084,-5.0084,-5.0084,-4.9326,-4.8827,-4.8726,-4.6347,-4.4911,-4.4688,-4.3054,-4.1573,-4.0307,-3.8886,-3.7564,-3.628,-3.3796,-3.2522,-3.2393,-3.0608,-2.9714,-2.9534,-2.8557,-2.7493,-2.6438,-2.5853,-2.5692,-2.5756,-2.5139,-2.4464,-2.3723,-2.3014,-2.2949,-2.3252,0.0,0.0,0.0,0.0,0.0,0.0,0.0,0.0,0.0,0.0,0.0,0.0,0.0,0.0,0.0,0.0,0.0,0.0,-1.7017,-1.8384,-1.982,-2.1421,-2.3522,-2.484,-2.5247,-2.5812,-2.6411,-2.6977,-2.8425,-2.9282,-2.9623,-3.1668,-3.2815,-3.323,-3.4123,-3.4728,-3.51,-3.5385,-3.51,-3.4488,-3.4173,-3.2811,-3.0735,-2.9148,-2.7052,-2.4928,-2.4649,-2.3659,0.0,0.0,-2.2437,-2.2349,-2.1862,-2.1302,-2.0492,-1.89,-1.8381,0.0,-1.9846,-2.2041,-2.4181,0.0,-2.7891,-3.1102,-3.3697,-3.499,-3.645,-3.9155,-4.0172,-4.0786,-4.1511,-4.1884,-4.2282,0.0,-4.3401,-4.4359,-4.5964,-4.6288,-4.6717,-4.7629,-4.7716,-4.8173,-4.9357,-4.9847,-5.0084,-5.0084,-4.9243,-4.8472,-4.7921,-4.5919,-4.451,-4.3966,-4.2919,-4.2126,-4.1587,-3.9843,-3.8721,-3.8133,-3.5357,-3.3988,-3.3952,-3.2196,-3.1119,-3.0558,-2.9523,-2.8819,-2.8359,-2.75,-2.7537,-2.7963,-2.6549,-2.6193,-2.6356,-2.5047,-2.4308,-2.4048,0.0,0.0,0.0,0.0,0.0,0.0,0.0,0.0,0.0,0.0,0.0,0.0,0.0,0.0,0.0,0.0,0.0,0.0,0.0,-1.7836,-1.9398,-2.0754,-2.3074,-2.4592,-2.5134,-2.5896,-2.6737,-2.7678,-2.9416,-3.0684,-3.1483,-3.3243,-3.4307,-3.4788,-3.4788,-3.504,-3.5504,-3.5504,-3.51,-3.4474,-3.4114,-3.2467,-3.0033,-2.801,-2.5495,-2.3022,-2.2844,-2.1951,0.0,0.0,-2.0786,-2.0708,-2.0154,-1.9786,-1.9283,-1.7922,-1.8338,-1.9535,-2.0953,-2.3987,0.0,-2.7172,-3.091,-3.4698,-3.5417,-3.6596,-3.8287,-4.0861,-4.1572,-4.1893,-4.2656,-4.2791,-4.2851,-4.303,-4.3869,-4.4872,-4.5761,-4.6057,-4.6194,-4.619,-4.6177,-4.6599,-4.7682,-4.9001,-4.9864,-5.0067,-4.8995,-4.8007,-4.7353,-4.5438,-4.4028,-4.3329,-4.288,-4.259,-4.2396,-4.0591,-3.9568,-3.9358,-3.6587,-3.5171,-3.4949,-3.3346,-3.2249,-3.1536,-3.0884,-3.0432,-3.0126,-2.9318,-2.9264,-2.9626,-2.8029,-2.7777,-2.8186,-2.6895,-2.5767,-2.5002,0.0,0.0,0.0,0.0,0.0,0.0,0.0,0.0,0.0,0.0,0.0,0.0,0.0,0.0,0.0,0.0,0.0,0.0,0.0,-1.6781,-1.7938,-1.9033,-2.1192,-2.2916,-2.4017,-2.5084,-2.6611,-2.8662,-3.0213,-3.1725,-3.3176,-3.4712,-3.5459,-3.5474,-3.5474,-3.5489,-3.5504,-3.5504,-3.51,-3.4399,-3.308,-3.1383,-2.9348,-2.6803,-2.3911,-2.1102,-2.0454,0.0,0.0,-1.748,-1.7484,-1.7539,-1.7436,-1.7748,0.0,-1.8094,-1.8878,-1.9911,-2.0555,0.0,-2.6943,-2.8759,-3.1888,-3.5177,-3.7689,-3.932,-4.0487,-4.1235,-4.1931,-4.2186,-4.1587,-4.1482,-4.1692,-4.2321,-4.3227,-4.4138,-4.5008,-4.5326,-4.5232,-4.4722,-4.4682,-4.4682,0.0,-4.7327,-4.9323,-5.0033,-4.8387,-4.7317,-4.7317,-4.4772,-4.3329,-4.329,-4.3275,-4.3,-4.241,-4.104,-4.0053,-3.9358,-3.7075,-3.5624,-3.4949,-3.3346,-3.2558,-3.2558,-3.2522,-3.1997,-3.1143,-3.1143,-3.0582,-2.9792,-2.9715,-2.9352,-2.88,-2.8248,-2.7346,-2.644,0.0,0.0,0.0,0.0,0.0,0.0,0.0,0.0,0.0,0.0,0.0,0.0,0.0,0.0,0.0,0.0,0.0,0.0,0.0,-1.5385,-1.6695,-1.7812,-1.9641,-2.1179,-2.2309,-2.3401,-2.4892,-2.6852,-2.8798,-3.0449,-3.1853,-3.3423,-3.4173,-3.4173,-3.4173,-3.4173,-3.4143,-3.3709,-3.3295,-3.2811,-3.0852,-2.9029,-2.7202,-2.4024,-2.1589,-1.971,0.0,0.0,0.0,-1.6188,-1.5907,-1.5544,-1.5111,-1.5647,-1.6799,-1.8683,-1.9794,-2.1072,-2.4248,0.0,-3.0168,-3.2765,-3.5622,-3.8093,-3.9424,-4.0412,-4.0995,-4.0771,-4.0561,-4.0202,-3.9514,-3.9394,-3.9753,-4.0876,-4.2615,-4.4106,-4.4976,-4.6089,-4.6048,-4.4035,-4.4265,0.0,0.0,0.0,0.0,-4.7817,-4.6176,-4.5323,-4.5802,-4.422,-4.3484,-4.3932,-4.3529,-4.3434,-4.3658,-4.2357,-4.1632,-4.1354,-3.9268,-3.7665,-3.6537,-3.4934,-3.4178,-3.4115,-3.3057,-3.2429,-3.2141,-3.2141,-3.1573,-3.0694,-3.0331,-2.9446,-2.831,-2.7758,-2.7128,-2.6499,0.0,0.0,0.0,0.0,0.0,0.0,0.0,0.0,0.0,0.0,0.0,0.0,0.0,0.0,0.0,0.0,0.0,0.0,0.0,0.0,-1.555,-1.6645,-1.8118,-1.953,-2.0865,-2.1782,-2.3173,-2.5104,-2.6706,-2.8171,-2.9579,-3.0835,-3.1404,-3.139,-3.1396,-3.1279,-3.1085,-3.0646,-3.0133,-2.9488,-2.7763,-2.6081,-2.4283,-2.1602,-1.9781,0.0,0.0,0.0,-1.561,-1.561,-1.5343,-1.4949,-1.4549,-1.5504,-1.7219,-1.9445,-2.1037,-2.2983,-2.7064,-3.0174,-3.2954,-3.5712,-3.8249,-4.0232,-4.0651,-4.0891,-4.0711,-3.9574,-3.8811,-3.8018,-3.6851,-3.6641,-3.7165,-3.8736,-4.0739,-4.2627,-4.4186,-4.5603,-4.5907,-4.4401,-4.4434,-4.4485,0.0,0.0,0.0,-4.6684,-4.5309,-4.4713,-4.54,-4.4289,-4.3947,-4.4646,-4.3992,-4.3843,-4.4317,-4.3054,-4.2171,-4.1677,-3.9888,-3.8482,-3.7355,-3.6109,-3.5409,-3.5127,-3.4077,-3.3429,-3.3101,-3.3101,-3.2558,-3.1642,-3.0967,-3.0064,-2.9103,-2.8205,-2.7519,-2.7027,0.0,0.0,0.0,0.0,0.0,0.0,0.0,0.0,0.0,0.0,0.0,0.0,0.0,0.0,0.0,0.0,0.0,0.0,0.0,0.0,0.0,-1.5475,-1.6586,-1.7921,-1.9545,-2.0211,-2.149,-2.3472,-2.4107,-2.5198,-2.6651,-2.7238,-2.7495,-2.75,-2.7469,-2.7169,-2.6698,-2.6631,-2.5947,-2.4822,-2.4053,-2.2655,-2.0868,-1.9621,0.0,0.0,0.0,0.0,-1.5588,-1.5634,-1.5683,-1.5724,-1.5679,-1.7233,-1.9261,-2.0427,-2.2671,-2.5522,-2.8965,-3.2172,-3.5154,-3.7591,-3.9791,-4.1331,-4.1339,-4.0741,-3.9582,-3.7614,-3.6593,-3.5502,0.0,0.0,-3.4084,-3.6202,-3.8013,-4.0103,-4.2864,-4.4194,-4.5099,0.0,0.0,0.0,0.0,0.0,0.0,-4.6727,0.0,-4.5368,-4.5968,-4.4948,-4.4661,-4.5334,-4.4676,-4.4332,-4.4362,-4.3069,-4.1752,-4.0442,-3.9125,-3.8153,-3.7494,-3.6836,-3.6193,-3.5594,-3.5534,-3.4953,-3.4061,-3.4061,-3.3518,-3.2558,-3.1646,-3.1228,-3.0963,-2.9478,-2.8549,-2.7959,0.0,0.0,0.0,0.0,0.0,0.0,0.0,0.0,0.0,0.0,0.0,0.0,0.0,0.0,0.0,0.0,0.0,0.0,0.0,0.0,0.0,0.0,0.0,0.0,0.0,0.0,0.0,-2.0357,-2.2237,-2.3639,-2.4597,-2.5616,-2.6108,-2.6084,-2.5707,-2.544,-2.5241,-2.4336,-2.3721,-2.3187,0.0,-2.0102,-1.9365,0.0,0.0,0.0,0.0,0.0,0.0,0.0,0.0,0.0,-1.7904,-1.9296,-2.1069,-2.2682,-2.5061,-2.8027,-3.1804,-3.4022,-3.623,-4.0275,-4.0661,-4.0164,-4.0554,-3.8638,-3.6325,-3.4795,-3.2418,-3.0469,0.0,0.0,0.0,-3.6276,-3.9212,0.0,-4.5212,-4.7243,0.0,-4.6663,0.0,-4.7141,-4.7314,-4.6177,0.0,0.0,-4.5855,-4.5263,-4.6035,-4.5408,-4.5349,-4.6037,-4.493,-4.4541,-4.5035,-4.3309,-4.1991,-4.1115,-4.0292,-3.9544,-3.8871,-3.7704,-3.709,-3.6866,-3.5923,-3.5359,-3.5133,-3.5133,-3.4543,-3.3553,-3.2593,-3.1559,-3.0487,-2.9338,-2.8549,-2.8059,0.0,0.0,0.0,0.0,0.0,0.0,0.0,0.0,0.0,0.0,0.0,0.0,0.0,0.0,0.0,0.0,0.0,0.0,0.0,0.0,0.0,0.0,0.0,0.0,0.0,0.0,0.0,0.0,0.0,0.0,-2.0974,-2.1873,-2.2309,-2.2302,-2.2016,-2.1768,-2.1479,-2.0825,0.0,0.0,0.0,0.0,0.0,0.0,0.0,0.0,0.0,0.0,0.0,0.0,0.0,-1.8987,-2.0325,-2.2088,-2.3904,-2.5361,0.0,-3.0151,-3.3401,-3.4993,-3.6539,-3.9731,-3.9573,-3.8424,-3.7715,-3.571,-3.3431,-3.1337,-2.9198,0.0,-2.7354,-2.8906,0.0,0.0,0.0,0.0,-4.5091,-4.7237,-4.8269,0.0,-4.8426,0.0,-4.8883,-4.8426,-4.8224,0.0,-4.6542,-4.5675,-4.6302,-4.5925,-4.6052,-4.6741,-4.5454,-4.4646,-4.4436,-4.3099,-4.2216,-4.1841,-4.1145,-4.0337,-3.9358,-3.8631,-3.7973,-3.736,0.0,-3.5938,-3.5908,-3.5624,-3.5166,-3.4509,-3.3136,-3.208,-3.1213,-2.9806,-2.895,-2.8499,0.0,0.0,0.0,0.0,0.0,0.0,0.0,0.0,0.0,0.0,0.0,0.0,0.0,0.0,0.0,0.0,0.0,0.0,0.0,0.0,0.0,0.0,0.0,0.0,0.0,0.0,0.0,0.0,0.0,0.0,0.0,0.0,0.0,0.0,0.0,0.0,0.0,0.0,0.0,0.0,0.0,0.0,0.0,0.0,0.0,0.0,0.0,0.0,0.0,0.0,-2.0662,-2.0835,-2.2994,-2.5222,-2.7253,-2.8235,-2.997,-3.2069,-3.432,-3.5587,-3.6565,-3.7883,-3.762,-3.647,-3.4278,-3.2521,-3.0592,-2.7878,0.0,-2.5836,-2.5422,-2.7051,-2.9418,-3.2344,0.0,-3.9434,-4.4026,-4.5875,-4.7372,-4.8968,-4.9796,-5.0238,-5.0195,-5.0669,-5.061,-4.966,-4.7505,-4.6386,-4.6715,-4.6448,-4.6501,-4.689,-4.5768,-4.4571,-4.3305,-4.2686,-4.2396,-4.2396,-4.1647,-4.0651,-3.9544,-3.9364,-3.8646,-3.7494,0.0,0.0,-3.6432,-3.5774,-3.5504,-3.5326,-3.3359,-3.2593,-3.2357,-3.0495,-2.9478,-2.9076,0.0,0.0,0.0,0.0,0.0,0.0,0.0,0.0,0.0,0.0,-1.0384,-1.0166,0.0,0.0,0.0,0.0,0.0,0.0,0.0,0.0,0.0,0.0,0.0,0.0,0.0,0.0,0.0,0.0,0.0,0.0,0.0,0.0,0.0,0.0,0.0,0.0,0.0,0.0,0.0,0.0,0.0,0.0,0.0,0.0,0.0,0.0,0.0,0.0,0.0,0.0,-2.279,-2.4816,-2.6142,-2.8097,-3.0018,-3.0633,-3.205,-3.3849,-3.5693,-3.6272,-3.6755,-3.8451,-3.6986,-3.4794,-3.3384,-3.0107,0.0,0.0,-2.4134,-2.2828,-2.377,-2.6033,-2.8894,-3.2331,-3.5234,-3.9033,-4.4609,-4.616,-4.7489,0.0,-5.0557,-5.0924,-5.0719,0.0,0.0,0.0,0.0,-4.7448,-4.7497,-4.6732,-4.5873,-4.487,-4.4601,-4.4122,-4.3305,-4.2686,-4.2396,-4.2396,-4.1145,-4.0442,-4.0187,-3.908,-3.8437,-3.8153,0.0,0.0,-3.6432,-3.5774,-3.5504,-3.5326,-3.3359,-3.2593,-3.2357,-3.0495,-2.9729,-2.9654,0.0,0.0,0.0,0.0,0.0,0.0,0.0,0.0,-1.0587,-1.0632,-1.0998,-1.0993,-1.0361,-1.0603,0.0,0.0,0.0,0.0,0.0,0.0,0.0,0.0,0.0,0.0,0.0,0.0,0.0,0.0,0.0,0.0,0.0,0.0,0.0,0.0,0.0,0.0,0.0,0.0,0.0,0.0,0.0,0.0,0.0,0.0,0.0,0.0,0.0,0.0,0.0,0.0,-2.2225,-2.5109,-2.7092,-2.9051,-3.0721,-3.1235,-3.2378,-3.3777,-3.5205,-3.6,-3.6558,-3.696,-3.5249,-3.2821,-3.0418,0.0,0.0,0.0,-2.2347,-2.1766,-2.3303,-2.5518,0.0,-3.0873,-3.3011,-3.6457,-4.2558,-4.3803,0.0,-4.8585,-5.0287,-5.114,0.0,0.0,0.0,0.0,0.0,0.0,-4.7502,-4.6725,-4.5708,-4.4362,-4.4317,-4.4003,-4.3305,-4.3015,-4.2865,-4.2865,-4.2237,-4.1564,-4.0891,-4.0232,-3.9574,-3.8856,-3.7539,0.0,-3.6881,-3.5908,-3.5504,-3.5359,-3.3891,-3.3031,-3.2429,-3.1057,-3.0203,-2.9792,0.0,0.0,0.0,0.0,0.0,0.0,0.0,-0.9753,-1.069,-1.0526,-1.1619,-1.186,-1.0448,-1.0766,-1.0862,0.0,0.0,0.0,0.0,0.0,0.0,0.0,0.0,0.0,0.0,0.0,0.0,0.0,0.0,0.0,0.0,0.0,0.0,0.0,0.0,0.0,0.0,0.0,0.0,0.0,0.0,0.0,0.0,0.0,0.0,0.0,0.0,0.0,0.0,0.0,-2.0487,-2.3355,-2.5859,-2.83,-3.0331,-3.0746,-3.1825,-3.3131,-3.4248,-3.5466,-3.6264,-3.5352,-3.3489,-3.104,-2.766,-2.4361,0.0,-2.1411,-2.1084,-2.1423,-2.3102,-2.4911,-2.6814,0.0,-3.0342,-3.3435,-3.9616,-4.1005,-4.296,0.0,-4.9779,0.0,0.0,0.0,0.0,0.0,0.0,0.0,-4.6918,-4.6262,-4.5334,-4.4137,-4.4107,-4.3813,-4.3305,-4.329,-4.329,-4.329,-4.3006,-4.2372,-4.1407,-4.1085,-4.0397,-3.9313,-3.7988,0.0,0.0,-3.6028,-3.5504,-3.5392,-3.4394,-3.3415,-3.25,-3.1536,-3.0595,-2.9792,0.0,0.0,0.0,0.0,0.0,0.0,0.0,-0.9847,-1.0485,-1.1128,-1.2317,-1.2397,-1.0517,-1.0361,-1.0361,0.0,0.0,0.0,0.0,0.0,0.0,0.0,0.0,0.0,0.0,0.0,0.0,0.0,0.0,0.0,0.0,0.0,0.0,0.0,0.0,0.0,0.0,0.0,0.0,0.0,0.0,0.0,0.0,0.0,0.0,0.0,0.0,0.0,0.0,0.0,0.0,-1.9667,-2.1474,-2.525,-2.9051,-2.9101,0.0,0.0,-3.3671,-3.5126,-3.6042,-3.4866,-3.2592,-2.99,-2.6942,0.0,-2.0706,-2.0184,-2.0504,-2.1274,-2.2539,-2.3879,-2.5264,-2.6663,-2.8041,-3.0929,-3.6683,-3.9185,-4.2042,0.0,0.0,0.0,0.0,0.0,0.0,0.0,0.0,0.0,0.0,-4.4855,-4.4127,-4.3409,-4.3379,-4.3349,-4.329,-4.329,-4.329,-4.329,-4.2132,-4.1489,-4.1339,-4.0142,-3.9529,-3.9313,0.0,0.0,0.0,-3.6028,-3.5504,-3.5392,-3.4394,-3.3415,-3.25,-3.1536,-3.0595,-2.9792,0.0,0.0,0.0,0.0,0.0,0.0,-0.8058,-0.8957,-0.9815,-1.0592,-1.2168,-1.2449,-1.0512,-1.0312,-1.04,0.0,0.0,0.0,0.0,0.0,0.0,0.0,0.0,0.0,0.0,0.0,0.0,0.0,0.0,0.0,0.0,0.0,0.0,0.0,0.0,0.0,0.0,0.0,0.0,0.0,0.0,0.0,0.0,0.0,0.0,0.0,0.0,0.0,0.0,0.0,0.0,0.0,-1.7901,-2.0711,0.0,0.0,-2.9277,-3.1148,-3.2918,-3.4616,-3.56,-3.4316,-3.1808,-2.8932,-2.6298,0.0,-1.9722,-1.9871,-2.0188,-2.0888,-2.2426,-2.34,-2.4291,-2.5232,-2.551,0.0,-3.2582,0.0,0.0,0.0,0.0,0.0,0.0,0.0,0.0,0.0,0.0,0.0,0.0,-4.4466,-4.4003,-4.3319,-4.2955,-4.294,-4.329,-4.2551,-4.2357,-4.2746,-4.1818,-4.1175,-4.0771,-4.0247,-3.9798,-3.9364,0.0,0.0,0.0,-3.6462,-3.5863,-3.5472,-3.5067,-3.3973,-3.2558,-3.2177,-3.1095,-2.9792,0.0,0.0,0.0,0.0,0.0,-0.6758,-0.7207,-0.8114,-0.9002,-0.973,-1.1296,-1.1914,-1.081,-1.0449,-1.0487,-1.0944,0.0,0.0,0.0,0.0,0.0,0.0,0.0,0.0,0.0,0.0,0.0,0.0,0.0,0.0,0.0,0.0,0.0,0.0,0.0,0.0,0.0,0.0,0.0,0.0,0.0,0.0,0.0,0.0,0.0,0.0,0.0,0.0,0.0,0.0,0.0,0.0,0.0,0.0,0.0,0.0,-2.6728,-2.8963,-3.0846,-3.2944,-3.4349,-3.3238,-3.0715,-2.7849,0.0,0.0,-1.8843,-1.9089,-1.9486,-2.0288,-2.1883,-2.2807,-2.355,-2.4201,-2.4253,-2.5667,-2.9877,-3.1858,0.0,0.0,0.0,0.0,0.0,0.0,0.0,0.0,0.0,0.0,0.0,-4.3943,-4.3524,-4.306,-4.2635,-4.253,-4.2746,-4.1848,-4.1647,-4.2111,-4.1399,-4.0846,-4.0382,-4.0202,-3.9753,-3.9095,0.0,0.0,0.0,-3.6746,-3.6207,-3.5774,-3.5579,-3.4476,-3.2996,-3.2713,-3.1586,-3.0177,0.0,0.0,0.0,0.0,0.0,0.0,0.0,-0.7516,-0.81,-0.8635,-0.9645,-1.0655,-1.148,-1.0825,-1.0536,-1.1143,0.0,0.0,0.0,0.0,0.0,0.0,0.0,0.0,0.0,0.0,0.0,-1.3792,-1.3802,0.0,0.0,0.0,0.0,0.0,0.0,0.0,0.0,0.0,0.0,0.0,0.0,0.0,0.0,0.0,0.0,0.0,0.0,0.0,0.0,0.0,0.0,0.0,0.0,0.0,0.0,0.0,-2.2611,-2.5887,-2.7065,-2.9768,-3.2086,-3.1389,-2.9202,-2.66,0.0,-2.0848,-1.804,-1.745,-1.8275,-1.9481,-2.0686,-2.1895,-2.2912,-2.3505,-2.4717,0.0,-2.9315,-3.2761,0.0,0.0,0.0,0.0,0.0,0.0,0.0,0.0,0.0,0.0,0.0,-4.309,-4.2425,-4.241,-4.2396,-4.2096,-4.1452,-4.1384,-4.1422,-4.1422,-4.0726,-4.0412,-4.0382,-3.9723,-3.905,0.0,0.0,0.0,0.0,-3.6746,-3.6492,-3.6417,-3.5759,-3.4872,-3.3876,-3.2961,-3.1997,-3.1044,0.0,0.0,0.0,0.0,0.0,0.0,0.0,-0.7168,-0.7349,-0.7512,-0.9154,-1.0406,-1.0676,-1.1519,-1.1768,-1.1054,0.0,0.0,0.0,0.0,0.0,0.0,0.0,0.0,0.0,0.0,-1.2992,-1.3176,-1.36,-1.4213,-1.4983,-1.5208,0.0,0.0,0.0,0.0,0.0,0.0,0.0,0.0,0.0,0.0,0.0,0.0,0.0,0.0,0.0,0.0,0.0,0.0,0.0,0.0,0.0,0.0,0.0,-1.74,-2.0049,0.0,-2.5084,-2.6337,-2.7092,-2.6867,-2.5051,-2.2904,-2.1388,-1.9267,-1.7593,-1.7358,-1.8262,-1.9467,-2.0686,-2.1895,-2.3197,-2.4717,-2.5704,-2.6909,0.0,0.0,0.0,0.0,0.0,0.0,0.0,0.0,0.0,0.0,0.0,0.0,0.0,-4.2821,-4.2396,-4.2396,-4.1527,-4.113,-4.1422,-4.0487,-4.0262,-4.0711,-4.0053,-3.9723,-3.9723,-3.9514,0.0,0.0,0.0,0.0,0.0,-3.7389,-3.6866,-3.6462,-3.6252,-3.5303,-3.3876,-3.2961,-3.1997,-3.1068,0.0,0.0,0.0,0.0,0.0,0.0,0.0,-0.6719,-0.7002,-0.7004,-0.8196,-0.9506,-1.0667,-1.1757,-1.2096,-1.1315,0.0,0.0,0.0,0.0,0.0,0.0,0.0,0.0,0.0,-1.253,-1.3238,-1.3238,-1.4073,-1.4664,-1.5062,-1.541,-1.5387,-1.5062,0.0,0.0,0.0,0.0,0.0,0.0,0.0,0.0,-1.2905,0.0,0.0,0.0,0.0,0.0,0.0,0.0,0.0,0.0,0.0,0.0,0.0,0.0,-1.799,-2.01,-2.2322,-2.3389,-2.3847,-2.3847,-2.251,0.0,-1.9761,-1.8405,-1.739,-1.7319,-1.8065,-1.9076,-2.0306,-2.1506,-2.2808,-2.4268,-2.5465,-2.6692,0.0,0.0,0.0,0.0,0.0,0.0,0.0,0.0,0.0,0.0,0.0,0.0,0.0,0.0,-4.1662,-4.1662,-4.0831,-4.0472,-4.0636,-3.9828,-3.9634,-4.0023,-3.9619,-3.9388,-3.9388,-3.9388,0.0,0.0,0.0,0.0,0.0,-3.7584,-3.7045,-3.6462,-3.6207,-3.5489,-3.4442,-3.3498,-3.2522,-3.1609,0.0,0.0,0.0,0.0,0.0,0.0,0.0,0.0,-0.6959,-0.6996,-0.7089,-0.8302,-1.1357,-1.1682,-1.172,-1.1813,0.0,0.0,0.0,0.0,0.0,0.0,0.0,0.0,0.0,-1.3106,-1.3792,-1.3792,-1.5016,-1.5632,-1.5654,-1.5654,-1.5654,-1.5632,-1.5028,0.0,0.0,0.0,0.0,0.0,0.0,0.0,0.0,0.0,0.0,0.0,0.0,0.0,0.0,0.0,0.0,0.0,0.0,0.0,0.0,0.0,0.0,0.0,0.0,-2.0713,-2.1929,-2.1901,-2.1164,-2.0189,-1.9008,-1.803,0.0,-1.7306,-1.7727,-1.8506,-1.9792,-2.0956,-2.1994,-2.2897,-2.4552,0.0,0.0,0.0,0.0,0.0,0.0,0.0,0.0,0.0,0.0,0.0,0.0,0.0,0.0,0.0,-4.036,-4.0286,-4.0181,-3.9868,-3.9301,-3.9213,-3.9213,-3.9301,-3.9301,-3.9307,-3.9313,-3.9394,0.0,0.0,0.0,0.0,0.0,-3.736,-3.7,-3.6432,-3.5804,-3.5549,-3.5392,-3.4361,-3.3415,-3.2464,0.0,0.0,0.0,0.0,0.0,0.0,0.0,0.0,0.0,0.0,-0.7893,-0.9559,-1.2287,-1.26,-1.2454,0.0,0.0,0.0,0.0,0.0,0.0,0.0,0.0,0.0,0.0,-1.3106,-1.3792,-1.3792,-1.5016,-1.5818,-1.6219,-1.6269,-1.6256,-1.6198,-1.562,0.0,0.0,0.0,0.0,0.0,0.0,0.0,0.0,0.0,0.0,0.0,-1.3954,-1.4363,0.0,0.0,0.0,0.0,0.0,0.0,0.0,0.0,-1.65,-1.6514,-1.6572,0.0,-1.8434,-1.791,-1.7993,-1.7859,0.0,-1.6576,-1.6823,-1.7214,-1.7727,-1.8777,-2.1024,-2.158,-2.2748,-2.5937,-2.6836,-2.7934,0.0,0.0,0.0,0.0,0.0,0.0,0.0,0.0,0.0,0.0,0.0,0.0,0.0,0.0,-4.0032,-3.9217,-3.8271,-3.7922,-3.8182,-3.7367,-3.7367,-3.8182,-3.8182,-3.8355,-3.8646,-3.9185,0.0,0.0,0.0,0.0,-3.7375,-3.6896,-3.6611,-3.6477,-3.6312,-3.5953,-3.5392,-3.4361,-3.3415,-3.2464,0.0,0.0,0.0,0.0,0.0,0.0,0.0,0.0,0.0,0.0,0.0,0.0,0.0,0.0,0.0,0.0,0.0,0.0,0.0,0.0,0.0,0.0,0.0,0.0,-1.2295,-1.3545,-1.4331,-1.4573,-1.5794,-1.6646,-1.7177,-1.7216,-1.7071,-1.6765,-1.5664,0.0,0.0,0.0,0.0,0.0,-1.2905,0.0,0.0,0.0,0.0,0.0,-1.3634,-1.4224,0.0,-1.5456,-1.6042,-1.65,0.0,0.0,0.0,0.0,-1.65,-1.6423,-1.6095,-1.668,-1.7227,-1.657,-1.6893,-1.722,-1.6571,-1.6445,-1.671,-1.7504,0.0,-1.8773,-2.0951,-2.153,0.0,0.0,-2.7001,0.0,0.0,0.0,0.0,0.0,0.0,0.0,0.0,0.0,0.0,0.0,0.0,0.0,0.0,0.0,-3.8582,-3.7991,-3.6165,-3.5651,-3.6688,-3.6136,-3.6122,-3.6688,-3.7157,-3.7469,-3.7693,-3.8225,0.0,0.0,0.0,0.0,-3.6956,-3.6626,-3.6312,-3.6028,-3.6028,-3.5818,-3.5424,-3.4872,-3.3788,-3.2522,0.0,0.0,0.0,0.0,0.0,0.0,0.0,0.0,0.0,0.0,0.0,0.0,0.0,0.0,0.0,0.0,0.0,0.0,0.0,0.0,0.0,0.0,0.0,-1.231,-1.3017,-1.4131,-1.5016,-1.5636,-1.6739,-1.7679,-1.8363,-1.8187,-1.7807,-1.7216,-1.5487,-1.4422,0.0,0.0,0.0,0.0,-1.2905,0.0,0.0,0.0,0.0,0.0,0.0,0.0,0.0,-1.4812,-1.5589,-1.65,-1.65,0.0,0.0,0.0,0.0,0.0,-1.6402,-1.6932,-1.7314,-1.6486,-1.6832,-1.7375,-1.7272,0.0,0.0,0.0,0.0,0.0,0.0,-2.1695,0.0,0.0,0.0,0.0,0.0,0.0,0.0,0.0,0.0,0.0,0.0,0.0,0.0,0.0,0.0,0.0,0.0,0.0,0.0,-3.6402,-3.4104,-3.3457,-3.4656,-3.4737,-3.4856,-3.5063,-3.5986,-3.645,-3.6547,-3.7118,-3.73,0.0,0.0,0.0,-3.6342,-3.6342,-3.6013,-3.5504,-3.5504,-3.5504,-3.5504,-3.5504,-3.4274,-3.2558,0.0,0.0,0.0,0.0,0.0,0.0,0.0,0.0,0.0,0.0,0.0,0.0,0.0,0.0,0.0,0.0,0.0,0.0,0.0,0.0,0.0,0.0,-1.2715,-1.3021,-1.3637,-1.4329,-1.5219,-1.6259,-1.6954,-1.8099,-1.9595,-1.8573,-1.7807,-1.7216,-1.5487,-1.4652,-1.4502,-1.3358,-1.2905,-1.2905,-1.2905,0.0,0.0,0.0,0.0,0.0,0.0,0.0,0.0,-1.5298,-1.5908,-1.65,-1.65,0.0,0.0,0.0,0.0,0.0,-1.5886,-1.6888,-1.77,-1.6125,-1.6563,-1.725,-1.6685,-1.7324,0.0,0.0,0.0,0.0,0.0,-2.3693,0.0,0.0,0.0,0.0,0.0,0.0,0.0,0.0,0.0,0.0,0.0,0.0,0.0,0.0,0.0,0.0,0.0,0.0,0.0,-3.3678,-3.2769,-3.2005,-3.1352,-3.1798,-3.2485,-3.3381,-3.4327,-3.4944,-3.5301,-3.6754,-3.6821,0.0,0.0,-3.6252,-3.5654,-3.5654,-3.5594,-3.5504,-3.5504,-3.5504,-3.5504,-3.5504,-3.4274,-3.2357,0.0,0.0,0.0,0.0,0.0,0.0,0.0,0.0,0.0,0.0,0.0,0.0,0.0,0.0,0.0,0.0,0.0,0.0,0.0,0.0,0.0,0.0,-1.3653,-1.3807,-1.3792,-1.4982,-1.6034,-1.6818,-1.774,-1.8729,-1.9769,-1.8638,-1.7967,-1.7666,-1.5959,-1.5186,-1.5096,-1.3897,-1.3396,-1.3348,0.0,0.0,0.0,0.0,0.0,0.0,0.0,0.0,0.0,0.0,-1.5732,-1.65,-1.65,0.0,0.0,0.0,0.0,0.0,-1.6173,-1.6911,-1.7593,-1.6774,-1.743,-1.819,-1.7905,-1.8306,-1.9145,0.0,0.0,0.0,0.0,0.0,0.0,0.0,0.0,0.0,0.0,0.0,0.0,0.0,0.0,0.0,0.0,0.0,0.0,0.0,0.0,0.0,0.0,0.0,0.0,0.0,-3.1486,-3.0675,-3.0168,-3.0407,-3.0949,-3.1691,-3.2664,-3.3471,-3.4156,-3.5128,-3.5533,-3.5519,0.0,-3.5789,-3.5504,-3.5504,-3.5504,-3.5504,-3.5504,-3.5504,-3.5359,-3.4308,-3.3045,-3.1646,0.0,0.0,0.0,0.0,0.0,0.0,0.0,0.0,0.0,0.0,0.0,0.0,0.0,0.0,0.0,0.0,0.0,0.0,0.0,0.0,-1.2404,-1.3745,-1.446,-1.4676,-1.4412,-1.5835,-1.6923,-1.7599,-1.8468,-1.9114,-1.9493,-1.8696,-1.817,-1.7834,-1.6284,-1.561,-1.5543,-1.4457,-1.4003,-1.3956,0.0,0.0,0.0,0.0,0.0,0.0,0.0,0.0,0.0,0.0,0.0,0.0,0.0,0.0,0.0,-1.65,-1.65,-1.65,-1.65,-1.6936,-1.741,-1.741,-1.8221,-1.9145,-1.9637,-2.0113,-2.0974,0.0,0.0,0.0,0.0,0.0,0.0,0.0,0.0,0.0,0.0,0.0,0.0,0.0,0.0,0.0,0.0,0.0,0.0,0.0,0.0,0.0,0.0,0.0,0.0,0.0,-3.0445,-2.9792,-2.9792,-2.9792,-3.0005,-3.0419,-3.1383,-3.2302,-3.3234,-3.378,-3.4543,-3.5504,-3.5504,-3.5504,-3.5504,-3.5504,-3.5504,-3.5504,-3.5504,-3.5504,-3.5246,-3.3325,-3.2141,-3.1365,0.0,0.0,0.0,0.0,0.0,0.0,0.0,0.0,0.0,0.0,0.0,0.0,0.0,0.0,0.0,0.0,0.0,0.0,0.0,0.0,-1.2404,-1.3745,-1.4858,-1.5692,-1.6207,-1.6806,-1.7679,-1.8784,-1.8855,-1.893,-1.8964,-1.8995,-1.8426,-1.7312,-1.6123,-1.561,-1.5565,-1.4926,-1.4629,-1.4629,-1.4594,0.0,0.0,0.0,0.0,0.0,0.0,0.0,0.0,0.0,0.0,0.0,0.0,0.0,-1.65,-1.65,-1.65,-1.65,-1.65,-1.6936,-1.741,-1.741,-1.8258,-1.9562,-2.1299,-2.3083,0.0,-2.6811,0.0,0.0,0.0,0.0,0.0,0.0,0.0,0.0,0.0,0.0,0.0,0.0,0.0,0.0,0.0,0.0,0.0,0.0,0.0,0.0,0.0,0.0,0.0,0.0,0.0,-2.9792,-2.9792,-2.9792,-2.9817,-2.9854,-3.0823,-3.1736,-3.2698,-3.3581,-3.4543,-3.5504,-3.5504,-3.5504,-3.5504,-3.5504,-3.5504,-3.5504,-3.5504,-3.5504,-3.5246,-3.3325,-3.2558,-3.2249,0.0,0.0,0.0,0.0,0.0,0.0,0.0,0.0,0.0,0.0,0.0,0.0,0.0,0.0,0.0,0.0,0.0,0.0,0.0,0.0,-1.2565,-1.4283,-1.5404,-1.6452,-1.7443,-1.7985,-1.8468,-1.8893,-1.9225,-1.9406,-1.9369,-1.8775,-1.8233,-1.7747,-1.6663,-1.6173,-1.6117,-1.5533,-1.5253,-1.5231,-1.4858,-1.4698,0.0,0.0,0.0,0.0,0.0,0.0,0.0,0.0,-1.5742,-1.6008,0.0,-1.65,-1.65,-1.65,-1.65,-1.65,-1.65,-1.6936,-1.7486,-1.7802,-1.9071,0.0,0.0,-2.3978,-2.5912,-2.7827,-2.9441,0.0,0.0,0.0,0.0,0.0,0.0,0.0,0.0,0.0,0.0,0.0,0.0,0.0,0.0,0.0,0.0,0.0,0.0,0.0,0.0,0.0,0.0,0.0,0.0,-2.9792,-2.9792,-2.9792,-2.9792,-2.9792,-3.0177,-3.1119,-3.2593,-3.2961,-3.4007,-3.5504,-3.5504,-3.5504,-3.5504,-3.5504,-3.5504,-3.5504,-3.5504,-3.4773,-3.3616,-3.2855,-3.1865,-3.0746,0.0,0.0,0.0,0.0,0.0,0.0,0.0,0.0,0.0,0.0,0.0,0.0,0.0,0.0,0.0,0.0,0.0,0.0,0.0,-1.1749,-1.2914,-1.4629,-1.558,-1.6608,-1.7814,-1.838,-1.8727,-1.8893,-1.9262,-1.9442,-1.9424,-1.8688,-1.8185,-1.7827,-1.7076,-1.6659,-1.6466,-1.6051,-1.5886,-1.5842,-1.5421,-1.5265,0.0,0.0,0.0,0.0,0.0,0.0,0.0,0.0,-1.5477,0.0,0.0,0.0,-1.6216,-1.6216,-1.6358,-1.65,-1.65,-1.7077,-1.7814,-1.8354,0.0,0.0,-2.3992,-2.5701,-2.7542,-2.9692,-3.162,-3.3525,-3.5507,0.0,0.0,0.0,0.0,0.0,0.0,0.0,0.0,0.0,0.0,0.0,0.0,0.0,0.0,0.0,0.0,0.0,0.0,0.0,0.0,0.0,0.0,-2.9792,-2.9792,-2.9792,-2.9792,-2.9792,-2.9792,-3.0771,-3.2593,-3.2593,-3.365,-3.5504,-3.5504,-3.5504,-3.5504,-3.5504,-3.5504,-3.5504,-3.5504,-3.4476,-3.3031,-3.2713,-3.1586,-3.0216,0.0,0.0,0.0,0.0,0.0,0.0,0.0,0.0,0.0,0.0,0.0,0.0,0.0,0.0,0.0,0.0,0.0,0.0,0.0,-1.2476,-1.343,-1.4663,-1.5217,-1.6062,-1.7271,-1.7827,-1.8361,-1.8893,-1.8893,-1.8893,-1.8893,-1.8893,-1.8341,-1.7312,-1.7312,-1.6993,-1.65,-1.65,-1.65,-1.65,-1.65,-1.65,-1.65,0.0,0.0,0.0,0.0,0.0,0.0,0.0,-1.5186,-1.4686,0.0,0.0,0.0,-1.561,-1.603,-1.65,-1.65,-1.7385,-1.8432,-1.8985,0.0,0.0,-2.7028,-2.8653,-3.0355,-3.2991,-3.4616,-3.5628,-3.5775,0.0,0.0,0.0,0.0,0.0,0.0,0.0,0.0,0.0,0.0,0.0,0.0,0.0,0.0,0.0,0.0,0.0,0.0,0.0,0.0,0.0,0.0,0.0,-2.9792,-2.9792,-2.9792,-2.9792,-2.9792,-3.0784,-3.2593,-3.2593,-3.365,-3.5504,-3.5504,-3.5504,-3.5504,-3.5504,-3.5504,-3.5504,-3.5504,-3.4872,-3.3876,-3.2961,-3.1997,-3.1044,0.0,0.0,0.0,0.0,0.0,0.0,0.0,0.0,0.0,0.0,0.0,0.0,0.0,0.0,0.0,0.0,0.0,0.0,0.0,-1.2453,-1.3392,-1.4652,-1.5618,-1.6506,-1.7291,-1.7463,-1.7807,-1.8341,-1.8708,-1.8893,-1.8893,-1.8893,-1.8535,-1.7847,-1.7463,-1.6993,-1.65,-1.65,-1.65,-1.65,-1.65,-1.65,-1.65,0.0,0.0,0.0,0.0,0.0,0.0,0.0,0.0,0.0,0.0,0.0,0.0,-1.561,-1.603,-1.65,-1.65,-1.7346,0.0,-1.9538,0.0,0.0,0.0,-2.9317,0.0,0.0,-3.4897,-3.514,-3.6222,0.0,0.0,0.0,0.0,0.0,0.0,0.0,0.0,0.0,0.0,0.0,0.0,0.0,0.0,0.0,0.0,0.0,0.0,0.0,0.0,0.0,0.0,0.0,-2.9792,-2.9792,-2.9792,-2.9792,-2.9792,-3.0419,-3.1646,-3.2321,-3.3276,-3.4461,-3.518,-3.5504,-3.5504,-3.5504,-3.5504,-3.5504,-3.5504,-3.4476,-3.2996,-3.2713,-3.1586,-3.0177,0.0,0.0,0.0,0.0,0.0,0.0,0.0,0.0,0.0,0.0,0.0,0.0,0.0,0.0,0.0,0.0,0.0,0.0,0.0,0.0,-1.375,-1.4948,-1.5903,-1.6794,-1.7605,-1.7626,-1.7787,-1.8106,-1.8419,-1.8798,-1.9225,-1.9225,-1.893,-1.84,-1.7867,-1.7333,-1.6795,-1.6595,-1.6647,-1.6861,-1.6861,-1.6861,-1.6861,0.0,0.0,0.0,0.0,0.0,0.0,0.0,0.0,0.0,-1.386,0.0,0.0,-1.5231,-1.5854,-1.6552,-1.6752,-1.7855,0.0,-2.0841,-2.3255,-2.604,-2.906,0.0,0.0,0.0,0.0,-3.5365,0.0,0.0,0.0,0.0,0.0,0.0,0.0,0.0,0.0,0.0,0.0,0.0,0.0,0.0,0.0,0.0,0.0,0.0,0.0,0.0,0.0,0.0,0.0,0.0,-2.9114,-2.9126,-2.9126,-2.9126,-2.9352,-2.9643,-3.0021,-3.1432,-3.2749,-3.4061,-3.5067,-3.5504,-3.5504,-3.5504,-3.5504,-3.5472,-3.5067,-3.3973,-3.2558,-3.2177,-3.1095,-2.9792,0.0,0.0,0.0,0.0,0.0,0.0,0.0,0.0,0.0,0.0,0.0,0.0,0.0,0.0,0.0,0.0,0.0,0.0,0.0,0.0,-1.4366,-1.546,-1.6182,-1.7032,-1.8086,-1.8106,-1.8125,-1.8185,-1.8185,-1.8669,-1.9621,-1.975,-1.9465,-1.8874,-1.8456,-1.7922,-1.7271,-1.6774,-1.6867,-1.7322,-1.7322,-1.7322,-1.7322,-1.7322,0.0,0.0,0.0,0.0,0.0,0.0,0.0,0.0,-1.2905,-1.3729,-1.4698,-1.4698,-1.5589,-1.668,-1.7167,-1.8711,0.0,-2.2444,-2.5387,0.0,-3.1017,-3.3051,-3.4783,-3.603,0.0,0.0,0.0,0.0,0.0,0.0,0.0,0.0,0.0,0.0,0.0,0.0,0.0,0.0,0.0,0.0,0.0,0.0,0.0,0.0,0.0,0.0,0.0,0.0,0.0,0.0,-2.8109,-2.8109,-2.8084,0.0,-2.8549,-2.8561,-2.8108,-3.0236,-3.2213,-3.4061,-3.5067,-3.5504,-3.5504,-3.5504,-3.5504,-3.5392,-3.4394,-3.3415,-3.25,-3.1536,-3.0595,-2.9792,0.0,0.0,0.0,0.0,0.0,0.0,0.0,0.0,0.0,0.0,0.0,0.0,0.0,0.0,0.0,0.0,0.0,0.0,0.0,0.0,0.0,0.0,0.0,0.0,0.0,0.0,0.0,-1.8727,-1.8727,-1.8855,-1.9095,-2.0027,-1.9922,-1.8921,-1.9342,-1.8696,-1.7291,-1.7167,-1.6965,-1.6688,-1.6688,-1.6688,-1.6688,-1.6688,-1.66,0.0,0.0,0.0,0.0,0.0,0.0,0.0,-1.2905,-1.3729,-1.4698,-1.4698,-1.5862,-1.7146,-1.7271,-1.8983,0.0,0.0,-2.6406,-3.0298,-3.1928,-3.3036,-3.38,0.0,0.0,0.0,0.0,0.0,0.0,0.0,0.0,0.0,0.0,0.0,0.0,0.0,0.0,0.0,0.0,0.0,0.0,0.0,0.0,0.0,0.0,0.0,0.0,0.0,0.0,-2.767,-2.8097,-2.8109,-2.7896,0.0,-2.8021,-2.7996,-2.7542,-3.0066,-3.2213,-3.4061,-3.5067,-3.5504,-3.5504,-3.5504,-3.5504,-3.5392,-3.4394,-3.3415,-3.25,-3.1536,-3.0595,-2.9792,0.0,0.0,0.0,0.0,0.0,0.0,0.0,0.0,0.0,0.0,0.0,0.0,0.0,0.0,0.0,0.0,0.0,0.0,0.0,0.0,0.0,0.0,0.0,0.0,0.0,0.0,0.0,0.0,0.0,0.0,-1.9295,-2.0247,-2.0362,-1.9761,-1.986,-1.9252,-1.8146,-1.786,-1.742,-1.6961,-1.7225,-1.7174,-1.6936,-1.6936,-1.6573,-1.5942,-1.5017,0.0,0.0,0.0,0.0,0.0,0.0,0.0,-1.4698,-1.4698,-1.5957,-1.7334,-1.7308,0.0,0.0,-2.4045,0.0,-3.0328,-3.133,-3.2078,0.0,0.0,0.0,0.0,0.0,0.0,0.0,0.0,0.0,0.0,0.0,0.0,0.0,0.0,0.0,0.0,0.0,0.0,0.0,0.0,0.0,0.0,0.0,0.0,0.0,0.0,-2.6101,-2.6239,-2.6527,-2.6527,-2.6389,-2.6113,-2.6929,-2.768,-2.837,-3.0175,-3.1528,-3.2551,-3.4268,-3.5011,-3.5008,-3.4853,-3.4758,-3.4658,-3.322,-3.2357,-3.1829,-3.0871,-3.0203,-2.9792,0.0,0.0,0.0,0.0,0.0,0.0,0.0,0.0,0.0,0.0,0.0,0.0,0.0,0.0,0.0,0.0,0.0,0.0,0.0,0.0,0.0,0.0,0.0,0.0,0.0,0.0,0.0,0.0,0.0,0.0,0.0,0.0,0.0,-2.0684,-2.047,-1.9955,-1.9197,-1.8623,-1.8035,-1.7574,-1.7915,-1.784,-1.7549,-1.7549,-1.6839,-1.5781,-1.5188,-1.4557,-1.3924,-1.3308,0.0,0.0,0.0,0.0,-1.4956,-1.4956,-1.618,-1.7556,-1.7586,0.0,-2.1868,-2.5407,-2.7703,0.0,-3.0013,-3.0702,0.0,0.0,0.0,0.0,0.0,0.0,0.0,0.0,0.0,0.0,0.0,0.0,0.0,0.0,0.0,0.0,0.0,0.0,0.0,0.0,0.0,0.0,0.0,0.0,-2.4788,-2.4788,-2.4788,-2.4788,-2.4788,-2.4788,-2.4738,-2.4695,-2.5853,-2.7318,-2.9016,-3.0172,-3.0837,-3.116,-3.3495,-3.4503,-3.4485,-3.4151,-3.3993,-3.3808,-3.1924,-3.1217,-3.1068,-3.0139,-2.9792,-2.9792,0.0,0.0,0.0,0.0,0.0,0.0,0.0,0.0,0.0,0.0,0.0,0.0,0.0,0.0,0.0,0.0,0.0,0.0,-1.3674,0.0,0.0,-1.8033,-1.8669,-1.9225,0.0,0.0,0.0,0.0,0.0,0.0,0.0,0.0,0.0,-2.0748,0.0,-2.1386,-1.9771,-1.9203,-1.8648,-1.8053,-1.7674,-1.7739,-1.8091,-1.8091,-1.7614,-1.6822,-1.6223,-1.5546,-1.4826,-1.4149,-1.3938,0.0,0.0,0.0,-1.6011,-1.6011,-1.6976,-1.8184,0.0,0.0,-2.2144,0.0,-2.6032,-2.732,0.0,0.0,0.0,0.0,0.0,0.0,0.0,0.0,0.0,0.0,0.0,0.0,0.0,0.0,0.0,0.0,0.0,0.0,0.0,0.0,0.0,0.0,0.0,0.0,0.0,-2.4556,-2.4788,-2.4788,-2.4788,-2.4788,-2.4788,-2.4788,-2.4582,-2.4117,-2.5488,-2.6525,-2.7299,-2.9411,-3.0948,-3.2008,-3.3748,-3.4503,-3.4485,-3.4151,-3.3993,-3.3808,-3.1924,-3.1217,-3.1068,-3.0139,-2.9792,-2.9792,0.0,0.0,0.0,0.0,0.0,0.0,0.0,0.0,0.0,0.0,0.0,0.0,0.0,0.0,0.0,-1.1715,-1.1541,-1.219,-1.419,-1.5947,-1.7265,-1.8066,-1.8612,-1.9151,-1.969,0.0,0.0,0.0,0.0,0.0,0.0,-2.2188,-2.2549,0.0,0.0,0.0,-2.1344,0.0,0.0,-1.8691,-1.8409,-1.8078,-1.7754,-1.7615,-1.6955,-1.6054,-1.5709,-1.5122,-1.4503,-1.4211,-1.4104,-1.4184,-1.4588,0.0,0.0,0.0,-1.7203,-1.8325,-1.8897,-1.9912,-2.1102,0.0,-2.3887,-2.5276,0.0,0.0,0.0,0.0,0.0,0.0,0.0,0.0,0.0,0.0,0.0,0.0,0.0,0.0,0.0,0.0,0.0,0.0,0.0,0.0,0.0,0.0,0.0,0.0,-2.3075,-2.3547,-2.3847,-2.3847,-2.3847,-2.3847,-2.3847,-2.3847,-2.3885,-2.4004,-2.5062,-2.6272,-2.7686,-2.9084,-3.024,-3.1195,-3.273,-3.3281,-3.3115,-3.2786,-3.257,-3.2285,-3.0945,-3.0419,-3.0381,-2.9934,-2.9792,-2.9792,0.0,0.0,0.0,0.0,0.0,0.0,0.0,0.0,0.0,0.0,0.0,0.0,0.0,0.0,0.0,0.0,-1.215,-1.287,-1.4801,-1.6275,-1.7415,-1.8066,-1.8477,-1.8949,-1.9479,0.0,0.0,0.0,0.0,0.0,-2.1951,-2.2879,-2.385,0.0,-2.4138,-2.3465,0.0,0.0,0.0,-1.9489,-1.9153,-1.8535,-1.7781,-1.7496,-1.6605,-1.5537,-1.5536,-1.4983,-1.4289,-1.4397,-1.4436,-1.4562,-1.5314,-1.599,0.0,0.0,0.0,-1.8462,0.0,0.0,-2.011,-2.0489,-2.1837,-2.3215,0.0,0.0,0.0,0.0,0.0,0.0,0.0,0.0,0.0,0.0,0.0,0.0,0.0,0.0,0.0,0.0,0.0,0.0,0.0,0.0,0.0,0.0,0.0,0.0,-2.2108,-2.2594,-2.2832,-2.2694,-2.2832,-2.2832,-2.2681,-2.2832,-2.3183,-2.3778,-2.4904,-2.6316,-2.8021,-2.9115,-2.9841,-3.0372,-3.1632,-3.2156,-3.2055,-3.1529,-3.1254,-3.1106,-3.0177,-2.9792,-2.9792,-2.9792,-2.9792,-2.9792,0.0,0.0,0.0,0.0,0.0,0.0,0.0,0.0,0.0,0.0,0.0,0.0,-1.2715,-1.2163,-1.2273,-1.3579,-1.312,-1.3541,-1.542,-1.616,-1.7013,-1.8046,-1.8145,0.0,-1.893,-1.8949,0.0,0.0,0.0,0.0,-2.3126,-2.3636,-2.483,-2.6522,-2.5533,-2.4483,-2.3422,0.0,0.0,0.0,0.0,-1.9024,-1.8857,-1.8344,-1.7327,-1.621,-1.6588,-1.5858,-1.4814,-1.5205,-1.5313,-1.5458,-1.6193,-1.6931,-1.7562,0.0,0.0,0.0,0.0,-1.8999,0.0,-1.9317,0.0,0.0,0.0,0.0,0.0,0.0,0.0,0.0,0.0,0.0,0.0,0.0,0.0,0.0,0.0,0.0,0.0,0.0,0.0,0.0,0.0,0.0,0.0,0.0,0.0,0.0,-2.1531,-2.2058,-2.2121,-2.1594,-2.2083,-2.2108,-2.1581,-2.2096,-2.2606,-2.3188,-2.53,-2.67,-2.7428,-2.949,-3.038,-3.0328,-3.0995,-3.1599,-3.2022,-3.0899,-3.0752,-3.1106,-3.0177,-2.9792,-2.9792,-2.9792,-2.9792,-2.9792,0.0,0.0,0.0,0.0,0.0,0.0,0.0,0.0,0.0,0.0,0.0,0.0,0.0,-1.3246,-1.344,-1.4306,-1.4504,-1.5027,-1.6046,-1.6672,-1.7483,-1.8574,-1.8612,-1.8855,-1.9406,-1.908,0.0,0.0,0.0,-2.066,-2.2695,-2.3517,-2.4746,-2.6244,-2.5872,-2.5505,-2.5022,-2.3723,0.0,0.0,0.0,0.0,0.0,0.0,0.0,0.0,0.0,0.0,-1.4805,-1.4961,-1.5186,-1.5604,-1.6828,-1.7385,-1.7666,-1.8004,-1.8536,-1.8807,0.0,0.0,0.0,-1.8659,0.0,0.0,0.0,0.0,0.0,0.0,0.0,0.0,0.0,0.0,0.0,0.0,0.0,0.0,0.0,0.0,0.0,0.0,0.0,0.0,0.0,0.0,0.0,0.0,0.0,0.0,-2.0993,-2.1509,-2.1694,-2.1493,-2.1681,-2.1681,-2.1493,-2.2033,-2.241,-2.2611,-2.4247,-2.5574,-2.6563,-2.783,-2.8788,-2.9456,-2.9082,-2.9479,-3.0351,-2.9935,-2.9962,-3.0279,-2.9934,-2.9792,-2.9792,-2.9792,-2.9792,-2.9792,0.0,0.0,0.0,0.0,0.0,0.0,0.0,0.0,0.0,-1.104,0.0,0.0,0.0,0.0,-1.4459,-1.5452,-1.6086,-1.6591,-1.6949,-1.7347,-1.7967,-1.8855,-1.8893,-1.9062,-1.9424,0.0,0.0,0.0,0.0,0.0,0.0,-2.2784,-2.3923,-2.5402,-2.558,-2.58,0.0,0.0,0.0,-2.3372,0.0,0.0,-1.9574,0.0,0.0,0.0,0.0,0.0,0.0,0.0,-1.5199,-1.5583,-1.712,-1.782,-1.816,-1.861,-1.8857,-1.8882,-1.8342,0.0,0.0,0.0,0.0,0.0,0.0,0.0,0.0,0.0,0.0,0.0,0.0,0.0,0.0,0.0,0.0,0.0,0.0,0.0,0.0,0.0,0.0,0.0,0.0,0.0,0.0,0.0,0.0,0.0,-2.0402,-2.093,-2.1232,-2.1232,-2.1029,-2.1016,-2.1232,-2.1757,-2.2133,-2.2322,-2.367,-2.481,-2.5839,-2.6769,-2.7594,-2.8271,-2.7873,-2.8243,-2.9092,-2.8999,-2.9178,-2.9528,-2.9716,-2.9792,-2.9792,-2.9792,-2.9792,-2.9792,0.0,0.0,0.0,0.0,0.0,0.0,0.0,0.0,-1.1065,-1.174,0.0,0.0,0.0,0.0,0.0,-1.7083,-1.7766,-1.8125,-1.8125,-1.8125,-1.8361,-1.8921,-1.8959,-1.8959,-1.8959,0.0,0.0,0.0,0.0,0.0,0.0,0.0,-2.2443,-2.4168,-2.4718,-2.5321,-2.5929,0.0,-2.5022,-2.3426,0.0,-2.1397,-2.0733,0.0,0.0,0.0,-1.7316,-1.626,0.0,-1.555,0.0,0.0,0.0,-1.8277,-1.9121,-1.9635,-1.9409,-1.9133,0.0,0.0,0.0,0.0,0.0,0.0,0.0,0.0,0.0,0.0,0.0,0.0,0.0,0.0,0.0,0.0,0.0,0.0,0.0,0.0,0.0,0.0,0.0,0.0,0.0,0.0,0.0,0.0,0.0,-1.9798,-1.9798,-2.0365,-2.0666,-2.0666,-2.01,-2.0075,-2.0666,-2.1232,-2.1785,-2.2297,-2.3657,-2.4598,-2.5213,-2.6505,-2.7026,-2.6878,-2.7394,-2.7946,-2.8418,-2.8193,-2.8436,-2.895,-2.9566,-2.9792,-2.9792,-2.9792,-2.9792,-2.9792,0.0,0.0,0.0,0.0,0.0,0.0,-0.9762,-1.0788,-1.1756,0.0,0.0,0.0,-1.4994,-1.5978,-1.6915,-1.778,-1.8013,-1.8263,-1.865,-1.8669,-1.9128,-2.0167,-2.0201,-2.0201,-2.0201,0.0,0.0,0.0,0.0,0.0,0.0,0.0,0.0,0.0,-2.3957,-2.4256,-2.4047,-2.4994,0.0,-2.4316,-2.2963,-2.2042,0.0,0.0,0.0,0.0,0.0,-1.5693,-1.5222,0.0,-1.5455,-1.6579,0.0,-1.8948,-1.9547,-1.9284,-1.9384,-1.9535,-1.9284,0.0,0.0,0.0,0.0,0.0,0.0,0.0,0.0,0.0,0.0,0.0,0.0,0.0,0.0,0.0,0.0,0.0,0.0,0.0,0.0,0.0,0.0,0.0,0.0,0.0,0.0,0.0,-1.9798,-1.9798,-1.9798,-1.9962,-2.0037,-2.0037,-1.9886,-1.9874,-2.0037,-2.1533,-2.2113,-2.176,-2.3475,-2.4301,-2.4338,-2.4708,-2.5062,-2.5402,-2.5937,-2.6268,-2.651,-2.7639,-2.8436,-2.895,-2.9566,-2.9792,-2.9792,-2.9792,-2.9792,-2.9792,0.0,0.0,0.0,0.0,0.0,-0.9891,-1.0167,-1.1358,-1.2468,0.0,0.0,0.0,-1.6504,-1.7489,-1.8467,-1.9512,-1.9357,-1.9445,-2.003,-1.9796,-1.9958,-2.0673,-2.0976,-2.0991,-2.0703,-2.0386,0.0,0.0,0.0,0.0,0.0,0.0,0.0,0.0,0.0,0.0,0.0,0.0,0.0,0.0,-2.301,0.0,0.0,-2.0059,-1.8734,0.0,0.0,0.0,-1.638,-1.5735,-1.6455,0.0,0.0,0.0,0.0,0.0,-1.956,-1.9736,-1.9409,-1.9572,-1.9798,0.0,0.0,0.0,-1.8757,-1.8191,0.0,0.0,0.0,0.0,0.0,0.0,0.0,0.0,0.0,0.0,0.0,0.0,0.0,0.0,0.0,0.0,0.0,0.0,0.0,0.0,-1.9798,-1.9798,-1.9798,-1.9798,-1.9798,-1.9798,-1.9798,-1.9927,-2.0194,-2.1524,-2.1956,-2.1565,-2.3132,-2.3674,-2.3314,-2.3778,-2.4167,-2.4519,-2.5272,-2.5598,-2.5745,-2.7551,-2.8234,-2.8323,-2.9114,-2.9428,-2.9465,-2.9704,-2.9792,-2.9792,0.0,0.0,-0.6966,-0.7696,-0.8974,-1.0141,-1.0813,-1.2033,-1.3158,0.0,-1.4572,-1.5832,-1.8054,-1.8817,-1.9866,-2.1555,-2.1156,-2.1066,-2.1665,-2.1141,-2.0838,-2.0912,-2.1485,-2.153,-2.0946,-2.0912,-2.0882,0.0,0.0,0.0,0.0,0.0,0.0,0.0,0.0,0.0,0.0,0.0,0.0,-2.3169,-2.2628,-2.2535,0.0,0.0,-1.971,-1.9553,-1.8483,-1.8075,-1.7941,-1.7396,-1.7833,0.0,0.0,0.0,0.0,0.0,-1.9798,-1.9798,-1.9798,-1.9798,-1.9798,0.0,0.0,0.0,-1.8606,-1.8342,-1.8003,0.0,0.0,0.0,0.0,0.0,0.0,0.0,0.0,0.0,0.0,0.0,0.0,0.0,0.0,0.0,0.0,0.0,-1.9121,-1.9673,-1.9773,-1.9798,-1.9798,-1.9798,-1.9798,-1.9798,-1.9798,-2.0131,-2.0795,-2.1351,-2.1615,-2.1628,-2.2693,-2.2894,-2.2347,-2.3351,-2.3841,-2.3966,-2.5034,-2.5511,-2.5652,-2.7496,-2.7889,-2.7429,-2.8597,-2.9001,-2.8963,-2.9578,-2.9792,-2.9792,0.0,0.0,-0.7723,-0.8454,-0.971,-1.0805,-1.1423,-1.2715,-1.4005,-1.5107,-1.6154,-1.7329,-1.8776,-1.9407,-2.0271,-2.1595,-2.1575,-2.156,-2.168,-2.1575,-2.1739,-2.2298,-2.2448,-2.2448,-2.2313,-2.2313,-2.2059,-2.15,0.0,0.0,0.0,0.0,0.0,0.0,0.0,0.0,0.0,0.0,0.0,-2.2083,-2.2491,0.0,-2.2275,-2.0524,-1.9262,-1.8377,-1.771,-1.7505,-1.757,-1.7699,-1.7955,-1.8247,0.0,0.0,0.0,-1.9798,0.0,0.0,0.0,0.0,0.0,0.0,0.0,0.0,-1.9547,-1.9133,-1.8782,0.0,0.0,0.0,0.0,0.0,0.0,0.0,0.0,0.0,0.0,0.0,0.0,0.0,0.0,0.0,0.0,0.0,-1.8569,-1.9121,-1.9572,-1.9798,-1.9798,-1.9798,-1.9798,-1.9798,-1.9798,-2.0131,-2.0795,-2.1452,-2.1705,-2.1628,-2.2352,-2.2589,-2.2322,-2.2535,-2.2887,-2.3333,-2.4462,-2.4938,-2.5059,-2.6354,-2.7041,-2.7488,-2.9241,-2.9521,-2.8963,-2.9578,-2.9792,-2.9792,-0.7696,-0.7696,-0.7931,-0.8639,-0.9894,-1.1132,-1.2089,-1.3396,-1.4664,-1.585,-1.6983,-1.8289,-1.9836,-2.0231,-2.1003,-2.2521,-2.2353,-2.2343,-2.2622,-2.2353,-2.2358,-2.2688,-2.3002,-2.3017,-2.2703,-2.2703,-2.2538,-2.2209,0.0,0.0,0.0,0.0,0.0,0.0,0.0,0.0,0.0,0.0,-2.339,-2.3005,-2.2661,0.0,-2.1447,-2.0471,-1.9436,-1.8461,-1.8194,-1.8153,-1.8221,-1.834,-1.8839,0.0,0.0,-1.9242,-2.0201,0.0,-1.9798,-1.9798,0.0,0.0,0.0,-1.9798,0.0,0.0,0.0,-1.9196,-1.892,0.0,0.0,0.0,0.0,0.0,0.0,0.0,0.0,0.0,0.0,0.0,0.0,0.0,0.0,0.0,0.0,0.0,-1.8141,-1.8945,-1.951,-1.9798,-1.9798,-1.9798,-1.9798,-1.9798,-1.9798,-2.0131,-2.0795,-2.1136,-2.1281,-2.1219,-2.2075,-2.2287,-2.192,-2.2472,-2.2844,-2.3158,-2.401,-2.4537,-2.4947,-2.6635,-2.7172,-2.7024,-2.8247,-2.8484,-2.8172,-2.875,-2.9126,-2.9365,-0.791,-0.791,-0.809,-0.862,-0.9879,-1.1249,-1.2585,-1.3867,-1.5198,-1.6572,-1.7625,-1.8936,-2.0699,-2.0886,-2.1507,-2.3088,-2.2793,-2.2778,-2.3385,-2.2972,-2.2703,-2.2703,-2.3287,-2.331,-2.2703,-2.2808,-2.2868,-2.2868,0.0,0.0,0.0,0.0,0.0,0.0,0.0,0.0,0.0,0.0,0.0,-2.3909,0.0,-2.2087,-2.1303,-2.0751,-1.9992,-1.9214,-1.9003,-1.9041,-1.9182,-1.9061,-1.9685,-2.0296,-1.8962,-1.9454,0.0,0.0,0.0,0.0,0.0,0.0,0.0,0.0,0.0,-1.9723,0.0,0.0,0.0,0.0,0.0,0.0,0.0,0.0,0.0,0.0,0.0,0.0,0.0,0.0,0.0,0.0,0.0,0.0,0.0,0.0,-1.7903,-1.8782,-1.9447,-1.9798,-1.9798,-1.9798,-1.9798,-1.9798,-1.9798,-2.0131,-2.0795,-2.0789,-2.0789,-2.0809,-2.1773,-2.1981,-2.1518,-2.2493,-2.3007,-2.3133,-2.3753,-2.44,-2.5186,-2.7148,-2.7549,-2.7024,-2.7553,-2.7573,-2.7369,-2.8021,-2.8512,-2.8913,-0.8672,-0.8672,-0.8699,-0.8771,-0.9909,-1.1232,-1.2508,-1.3835,-1.5517,-1.7791,-1.8504,-1.9343,-2.074,-2.0789,-2.1034,-2.1844,-2.1844,-2.2084,-2.2763,-2.2733,-2.2703,-2.2703,-2.3287,-2.331,-2.2703,-2.3206,-2.349,-2.349,-2.2897,0.0,0.0,0.0,0.0,0.0,-2.1994,0.0,0.0,0.0,-2.3072,0.0,-2.3259,-2.3638,0.0,-2.199,-2.1011,-2.0372,-1.9361,-1.9374,-1.9845,0.0,-1.968,-1.9919,0.0,-2.0037,-2.0087,-2.1029,0.0,0.0,0.0,0.0,0.0,0.0,-2.0214,0.0,0.0,0.0,0.0,0.0,0.0,0.0,0.0,0.0,0.0,0.0,0.0,0.0,0.0,0.0,0.0,0.0,0.0,0.0,0.0,0.0,0.0,-1.8292,-1.9233,-1.9798,-1.9798,-1.9798,-1.9798,-1.9798,-1.9798,-2.0131,-2.0795,-2.0746,-2.0746,-2.0809,-2.1346,-2.1564,-2.1506,-2.2121,-2.2644,-2.3133,-2.3753,-2.475,-2.5998,-2.6723,-2.7709,-2.8771,-2.9307,-2.8594,-2.7406,-2.8448,-2.8838,-2.8963,-0.8804,-0.8804,-0.9035,-0.9814,-1.044,-1.149,-1.3543,-1.5496,-1.7231,-1.8586,-1.9457,-2.0469,0.0,0.0,0.0,0.0,0.0,-2.2403,0.0,0.0,-2.2868,-2.3212,-2.346,-2.3475,-2.3242,-2.346,-2.3595,-2.3595,-2.3362,-2.3227,0.0,0.0,0.0,0.0,-2.2657,0.0,-2.2883,0.0,-2.3782,0.0,0.0,0.0,0.0,-2.3093,-2.2003,-2.1585,-2.0454,-2.0221,-2.0383,0.0,-2.0186,0.0,0.0,0.0,0.0,0.0,0.0,0.0,0.0,0.0,0.0,0.0,0.0,0.0,-2.108,0.0,-2.0327,0.0,0.0,0.0,0.0,0.0,0.0,0.0,0.0,0.0,0.0,0.0,0.0,0.0,0.0,0.0,0.0,0.0,0.0,0.0,0.0,-1.9459,-1.9786,-1.9798,-1.9962,-2.0314,-2.0327,-2.061,-2.1194,-2.118,-2.118,-2.1207,-2.1721,-2.197,-2.1983,-2.2506,-2.2882,-2.3133,-2.3753,-2.4813,-2.6171,-2.7211,-2.8183,-2.9062,-2.9785,-2.9343,-2.8319,-2.8564,-2.8905,-2.922,-0.9035,0.0,0.0,0.0,-1.0686,-1.1724,-1.4506,-1.6915,0.0,0.0,0.0,0.0,-2.2536,-2.2373,0.0,0.0,-2.236,-2.239,0.0,0.0,-2.2914,-2.3148,-2.3926,-2.4,-2.326,-2.3815,-2.3947,-2.3595,-2.3595,-2.3595,0.0,0.0,0.0,0.0,0.0,-2.3169,-2.2945,0.0,0.0,-2.4855,-2.5607,-2.6083,-2.6184,-2.4115,-2.3094,-2.262,-2.1621,-2.1167,-2.0981,-2.045,-2.0623,0.0,-2.0426,0.0,0.0,0.0,0.0,0.0,-2.1443,0.0,0.0,0.0,0.0,0.0,0.0,0.0,0.0,0.0,0.0,0.0,0.0,0.0,0.0,-1.9557,0.0,0.0,0.0,0.0,0.0,0.0,0.0,0.0,0.0,0.0,0.0,0.0,-1.8607,-1.9171,-1.9572,-1.9723,-2.0075,-2.0679,-2.0691,-2.0955,-2.1481,-2.1644,-2.1644,-2.1493,-2.2196,-2.2431,-2.2334,-2.2857,-2.3195,-2.3358,-2.3816,-2.5014,-2.6754,-2.7772,-2.8803,-2.9766,-3.0389,-3.0238,-2.9634,-2.9286,-2.9413,-2.9802,-0.964,-0.9237,0.0,0.0,0.0,0.0,0.0,0.0,0.0,0.0,0.0,0.0,0.0,0.0,0.0,0.0,0.0,-2.162,-2.2262,0.0,-2.2777,0.0,0.0,-2.4993,0.0,-2.4389,-2.4839,-2.3595,-2.3595,-2.3595,0.0,0.0,0.0,0.0,0.0,-2.3758,-2.4362,-2.4798,-2.4908,-2.4857,-2.5396,-2.5626,-2.5577,0.0,-2.4277,-2.3288,-2.2661,0.0,0.0,-2.1581,-2.0798,0.0,0.0,0.0,0.0,0.0,0.0,0.0,0.0,0.0,0.0,-2.215,0.0,0.0,0.0,0.0,-2.1678,0.0,0.0,0.0,0.0,0.0,-2.218,-2.0936,-2.0294,0.0,0.0,0.0,0.0,0.0,0.0,0.0,0.0,0.0,0.0,-1.7423,-1.8405,-1.9008,-1.902,-1.9522,-2.0075,-2.0679,-2.0691,-2.0955,-2.1481,-2.202,-2.202,-2.1506,-2.2556,-2.2794,-2.2334,-2.2857,-2.3409,-2.3966,-2.3991,-2.5563,-2.8138,-2.8183,-2.9484,-3.1409,-3.1438,-3.1438,-3.1367,-3.0899,-3.075,-3.093,0.0,0.0,0.0,0.0,0.0,0.0,0.0,-1.7496,0.0,0.0,0.0,0.0,0.0,-2.3812,-2.3184,0.0,0.0,-2.2329,-2.2536,-2.3491,0.0,0.0,0.0,-2.5957,0.0,0.0,-2.5529,-2.4261,-2.4261,0.0,0.0,0.0,0.0,0.0,0.0,-2.3986,0.0,0.0,0.0,0.0,0.0,-2.6623,-2.6944,0.0,0.0,-2.4469,-2.3517,-2.2827,0.0,-2.1354,-2.104,-2.0914,-2.0495,-2.0627,-2.0991,-2.138,-2.1606,0.0,0.0,0.0,-2.1643,-2.2212,0.0,0.0,0.0,0.0,0.0,0.0,0.0,0.0,0.0,-2.2699,-2.2418,-2.1533,-2.0903,-2.0432,0.0,0.0,0.0,0.0,0.0,0.0,0.0,0.0,0.0,-1.7373,-1.8066,-1.8619,0.0,-1.9522,-2.0238,-2.1207,-2.1232,-2.1656,-2.2543,-2.2732,-2.2732,-2.2556,-2.2932,-2.3007,-2.2844,-2.3421,-2.3816,-2.4073,-2.5369,-2.6792,-2.8285,-2.9223,-3.0321,-3.1511,-3.1511,-3.1765,-3.2124,-3.176,-3.1673,-3.1745,-1.1116,0.0,0.0,0.0,0.0,0.0,0.0,0.0,0.0,0.0,-2.245,0.0,-2.5384,0.0,-2.4515,0.0,-2.3676,-2.3374,-2.3601,-2.4079,0.0,-2.3803,-2.6037,0.0,0.0,0.0,0.0,0.0,0.0,-2.5551,0.0,0.0,0.0,0.0,0.0,-2.4768,-2.4822,0.0,-2.5998,0.0,0.0,-2.7148,0.0,0.0,-2.6469,-2.607,0.0,-2.379,-2.3182,-2.1902,-2.1406,-2.1195,-2.0386,-2.065,-2.1182,-2.0953,-2.1584,-2.2286,-2.2094,-2.2279,0.0,-2.2724,-2.3178,0.0,-2.4284,0.0,0.0,0.0,0.0,0.0,0.0,0.0,-2.3291,-2.1906,-2.1366,-2.0966,0.0,-1.9787,0.0,0.0,0.0,0.0,0.0,0.0,-1.6974,-1.7373,-1.8078,-1.8632,0.0,0.0,-2.0313,-2.1455,-2.1493,-2.202,-2.3095,-2.3108,-2.3108,-2.3108,-2.3108,-2.3208,-2.3421,-2.3828,-2.4393,-2.5102,-2.6371,-2.7669,-2.9003,-2.9945,-3.0777,-3.1511,-3.1511,-3.1914,-3.2497,-3.2585,-3.2908,-3.3336,0.0,0.0,0.0,0.0,-1.4416,0.0,0.0,0.0,-2.121,0.0,-2.2746,-2.3477,-2.5518,-2.5113,-2.4948,-2.5576,-2.4837,-2.4594,-2.5226,-2.4579,0.0,0.0,-2.6268,-2.6422,-2.4871,0.0,0.0,0.0,0.0,0.0,0.0,0.0,0.0,0.0,-2.6089,0.0,-2.6031,-2.6487,-2.6691,-2.6691,-2.6691,-2.7165,-2.7858,-2.7824,0.0,-2.8036,-2.6025,-2.5045,-2.4514,-2.3241,-2.1963,-2.0947,-2.0949,-2.0875,-2.0697,-2.0192,-2.121,-2.2391,-2.1865,-2.3015,-2.4212,-2.3569,0.0,0.0,0.0,0.0,-2.5701,0.0,0.0,0.0,0.0,0.0,0.0,-2.2254,-2.1795,-2.1304,-2.0016,0.0,0.0,0.0,0.0,0.0,0.0,-1.7436,-1.741,-1.7448,-1.8368,-1.897,0.0,0.0,-2.0313,-2.1455,-2.1493,-2.202,-2.3095,-2.3108,-2.3108,-2.3108,-2.3108,-2.3396,-2.3954,-2.4066,-2.5108,-2.6871,-2.7019,-2.8308,-3.0299,-3.0329,-3.0807,-3.1511,-3.1511,-3.1929,-3.2647,-3.3305,-3.4382,-3.5504,-1.3017,-1.3291,-1.3623,0.0,-1.5579,-1.6875,0.0,0.0,0.0,0.0,-2.4094,-2.4982,-2.7567,-2.6797,-2.6153,-2.6318,-2.5235,0.0,0.0,0.0,0.0,-2.428,-2.6615,-2.7182,-2.5591,-2.7786,0.0,-2.7043,0.0,0.0,-2.7158,0.0,0.0,0.0,0.0,0.0,-2.6031,-2.6487,-2.6691,-2.6691,-2.6691,-2.7486,0.0,0.0,-2.8607,-2.951,-2.7489,-2.643,-2.5838,-2.4611,-2.3631,-2.2973,-2.2953,-2.2608,-2.2324,-2.3067,-2.3606,-2.3917,-2.3793,-2.3775,-2.3756,-2.3604,-2.4221,-2.494,0.0,0.0,0.0,0.0,0.0,0.0,0.0,0.0,0.0,-2.3958,-2.3065,-2.1997,0.0,0.0,0.0,-1.985,0.0,0.0,-1.8544,-1.7865,-1.7574,-1.7965,-1.8254,0.0,0.0,0.0,0.0,-2.1455,-2.1493,-2.202,-2.3095,-2.3108,-2.3108,-2.3108,-2.3108,-2.3183,-2.3389,-2.4864,-2.5831,-2.6427,-2.8535,-2.9763,-3.0359,-3.097,-3.1307,-3.1511,-3.1511,-3.2198,-3.332,-3.3978,-3.4771,-3.5504,-1.3427,0.0,0.0,-1.473,0.0,0.0,-1.8003,0.0,0.0,-2.4681,-2.494,0.0,-2.7925,-2.7495,-2.7046,-2.7046,-2.6078,0.0,-2.5457,0.0,0.0,-2.4689,-2.5883,-2.6315,-2.5888,-2.7231,0.0,-2.766,0.0,0.0,-2.7639,0.0,0.0,0.0,0.0,-2.6395,0.0,-2.7108,-2.7182,-2.7164,-2.6888,0.0,0.0,-2.8565,-2.9371,-3.0501,-2.9107,-2.8057,-2.7133,-2.5902,-2.5046,-2.4482,-2.4216,-2.3837,-2.3571,-2.4012,-2.4527,-2.4904,-2.4662,-2.4753,-2.4783,-2.4175,-2.5009,-2.5874,-2.5594,-2.6609,-2.76,0.0,0.0,0.0,0.0,0.0,0.0,-2.3865,-2.2925,0.0,0.0,0.0,0.0,0.0,-1.9705,0.0,-1.9359,-1.8166,-1.7714,-1.8481,0.0,0.0,0.0,0.0,0.0,-2.1455,-2.1719,-2.2259,-2.3095,-2.3358,-2.3358,-2.3108,-2.3108,-2.3402,-2.4017,-2.5446,-2.6603,-2.7619,-2.9492,-3.0494,-3.0866,-3.1307,-3.1511,-3.157,-3.2138,-3.2841,-3.3619,-3.4577,-3.5175,-3.5504,0.0,0.0,0.0,0.0,0.0,0.0,0.0,-2.1194,0.0,-2.5104,0.0,-2.5922,-2.7424,-2.7518,-2.7454,-2.748,0.0,-2.6422,-2.6333,-2.5158,-2.4722,-2.5255,-2.4715,-2.4855,-2.587,-2.6218,-2.6927,0.0,0.0,-2.7879,-2.8351,0.0,0.0,0.0,0.0,0.0,0.0,-2.7763,-2.7679,0.0,-2.7128,-2.772,-2.8938,-2.9135,-2.9932,-3.0918,-3.0539,-2.965,-2.8463,-2.7278,-2.6471,-2.5894,-2.5368,-2.5063,-2.4795,-2.4359,-2.4946,-2.5684,-2.5207,-2.582,-2.6318,-2.5143,-2.6183,-2.7165,-2.6004,-2.6617,-2.7495,-2.7585,-2.6941,-2.6213,0.0,0.0,0.0,0.0,0.0,0.0,0.0,0.0,0.0,0.0,0.0,0.0,0.0,-1.8503,-1.8028,0.0,0.0,0.0,0.0,0.0,0.0,-2.1455,-2.202,0.0,-2.3208,0.0,-2.3696,-2.3359,-2.3283,-2.3906,-2.5177,-2.6039,-2.7423,-2.9232,-3.0086,-3.0837,-3.1511,-3.1511,-3.1555,-3.175,-3.3021,-3.3544,-3.3769,-3.504,-3.5504,-3.5504,0.0,0.0,0.0,0.0,0.0,-2.0782,-2.1575,-2.2127,-2.3132,-2.4985,-2.5186,-2.577,-2.7328,-2.7026,-2.6711,-2.6762,-2.6153,0.0,0.0,0.0,0.0,-2.4555,-2.4451,-2.4712,-2.5316,-2.6406,-2.7104,0.0,-2.8408,-2.8688,-2.8313,0.0,0.0,0.0,0.0,0.0,-2.6575,-2.7086,0.0,-2.6518,-2.6976,-2.7676,-2.8472,-2.8997,-2.9405,-2.9827,-3.072,-3.0575,-2.9868,-2.9137,-2.8446,-2.7917,-2.7844,-2.7437,-2.6981,-2.6927,-2.7064,-2.7199,-2.712,-2.6867,-2.6527,-2.6303,-2.6497,-2.6692,-2.6467,-2.6602,-2.6941,-2.748,-2.6183,-2.5247,-2.6243,0.0,0.0,0.0,0.0,0.0,0.0,0.0,0.0,0.0,0.0,-2.0803,0.0,0.0,0.0,0.0,0.0,0.0,0.0,0.0,0.0,0.0,0.0,0.0,0.0,0.0,-2.3755,-2.4723,-2.4282,-2.4534,-2.5395,-2.7187,-2.8197,-2.8669,-3.0498,-3.138,-3.1511,-3.1511,-3.1824,-3.2392,-3.3185,-3.3829,-3.4429,-3.5205,-3.5504,-3.5504,0.0,0.0,0.0,0.0,0.0,0.0,0.0,-2.2969,0.0,-2.5336,-2.5291,-2.5578,-2.685,-2.6683,-2.6683,-2.7076,-2.6497,-2.5839,-2.5158,-2.4485,-2.4078,-2.3985,-2.3991,0.0,-2.4756,-2.5107,-2.5795,-2.6828,-2.6818,-2.7027,-2.7411,-2.7056,0.0,0.0,0.0,-2.7372,0.0,0.0,0.0,-2.729,-2.7296,-2.7699,-2.8339,-2.8706,-2.9257,-2.9892,-3.0166,-3.0477,-3.0638,-2.9717,-2.9387,-2.9292,-2.8693,-2.8498,-2.844,-2.8154,-2.8067,-2.7993,-2.77,-2.736,-2.7046,-2.6701,-2.6866,-2.7031,-2.6686,-2.6881,-2.7121,-2.7091,-2.6033,-2.5098,-2.5046,-2.4799,0.0,0.0,0.0,0.0,0.0,0.0,0.0,0.0,0.0,0.0,0.0,0.0,0.0,0.0,0.0,0.0,0.0,0.0,0.0,0.0,0.0,0.0,0.0,0.0,0.0,-2.5241,-2.4973,-2.5452,-2.6523,-2.781,-2.881,-2.9571,-3.0904,-3.1511,-3.1511,-3.1511,-3.1899,-3.2587,-3.3245,-3.3903,-3.4593,-3.525,-3.5504,-3.5504,0.0,-1.3843,0.0,0.0,-1.8025,0.0,-2.3139,-2.374,-2.4284,-2.5653,-2.5383,-2.5348,-2.6104,-2.6085,-2.6279,-2.688,-2.6584,-2.6011,-2.5201,-2.482,-2.4291,-2.3625,-2.3595,-2.3794,-2.422,-2.3943,-2.4513,0.0,-2.5319,-2.5551,0.0,-2.6198,0.0,0.0,0.0,0.0,0.0,0.0,-2.7592,-2.791,-2.7597,-2.7736,-2.8194,-2.8412,-2.9088,-2.987,-2.9518,-3.0016,-3.0679,-2.9717,-2.9805,-3.0123,-2.9019,-2.9035,-2.9271,-2.8677,-2.8487,-2.8383,-2.776,-2.76,-2.7465,-2.6956,-2.721,-2.742,-2.6761,-2.6911,-2.7031,-2.6497,-2.5854,-2.5008,-2.3819,-2.4022,0.0,0.0,0.0,0.0,0.0,0.0,0.0,0.0,0.0,0.0,-2.1388,0.0,0.0,0.0,0.0,0.0,0.0,0.0,0.0,0.0,0.0,-2.4189,-2.5356,0.0,-2.5965,0.0,-2.5688,-2.6367,-2.7748,-2.8359,-2.9323,-3.0537,-3.1212,-3.1511,-3.1511,-3.1511,-3.1974,-3.2766,-3.329,-3.3993,-3.4788,-3.531,-3.5504,-3.5504,0.0,0.0,0.0,0.0,0.0,0.0,0.0,-2.4565,-2.5036,-2.5553,-2.5156,-2.4918,-2.5183,-2.48,-2.4565,-2.469,-2.5248,-2.5063,-2.3779,-2.4263,-2.4291,-2.3625,-2.3595,-2.3616,-2.3681,-2.4095,-2.4462,0.0,-2.5749,-2.6367,-2.6602,-2.7165,0.0,0.0,0.0,0.0,0.0,-2.7344,-2.7263,-2.6826,-2.7355,-2.762,-2.7744,-2.828,-2.8559,-2.8732,-2.9225,-2.9473,-2.9563,-2.9451,-2.9805,-3.0187,-2.9518,-2.9361,-2.9271,-2.8677,-2.8487,-2.8383,-2.776,-2.76,-2.7585,-2.7525,-2.754,-2.742,-2.6761,-2.6183,-2.5779,-2.5719,-2.5158,-2.447,-2.3744,-2.3655,-2.3894,0.0,0.0,0.0,0.0,0.0,0.0,0.0,0.0,0.0,0.0,0.0,0.0,0.0,0.0,0.0,0.0,0.0,0.0,-2.2583,0.0,-2.46,-2.5204,-2.5384,0.0,-2.711,-2.6621,-2.7123,-2.8502,-2.9185,-2.9854,-3.0537,-3.1212,-3.1511,-3.1511,-3.1511,-3.2243,-3.341,-3.3469,-3.4277,-3.5415,-3.5489,-3.5504,-3.5504,0.0,0.0,0.0,0.0,0.0,0.0,0.0,-2.3629,-2.4005,-2.5105,-2.5277,-2.5351,-2.5551,-2.512,-2.4965,-2.5451,-2.4783,-2.4303,-2.4114,-2.3702,-2.3503,-2.3588,-2.3595,-2.3595,-2.3595,-2.4202,-2.4745,0.0,0.0,-2.6753,-2.721,-2.7465,0.0,0.0,0.0,-2.7076,-2.7195,-2.7061,-2.7091,-2.7225,-2.748,-2.76,-2.7625,-2.7885,-2.8189,-2.8487,-2.8352,-2.8787,-2.9293,-2.8551,-2.8973,-2.9783,-2.9892,-2.9695,-2.9429,-2.954,-2.9081,-2.8439,-2.8213,-2.7885,-2.7685,-2.8042,-2.7885,-2.7505,-2.7222,-2.665,-2.5974,-2.5158,-2.4455,-2.3924,-2.3655,-2.3939,-2.441,0.0,0.0,0.0,0.0,0.0,0.0,0.0,0.0,-2.4111,0.0,0.0,0.0,0.0,0.0,0.0,0.0,0.0,0.0,-2.3836,0.0,-2.5597,-2.6625,-2.6692,-2.7185,-2.8083,-2.7874,-2.8462,-2.9759,-3.0013,-3.0492,-3.1107,-3.1391,-3.1511,-3.1525,-3.1929,-3.2662,-3.3529,-3.3918,-3.4666,-3.5504,-3.5504,-3.5504,-3.5554,-1.2479,0.0,-1.548,0.0,-1.8626,-1.936,-2.2797,-2.2985,-2.3128,-2.4406,-2.48,-2.5172,-2.5761,-2.52,-2.4983,-2.5494,-2.4312,-2.3638,-2.3867,-2.3321,-2.3101,-2.3334,-2.3508,0.0,-2.3894,-2.435,-2.4933,-2.5615,-2.6273,0.0,-2.7315,0.0,0.0,0.0,-2.7106,-2.7165,-2.757,-2.7106,-2.7165,-2.76,-2.76,-2.76,-2.76,-2.76,-2.786,-2.8189,-2.776,-2.8149,-2.8764,-2.8076,-2.8304,-2.8973,-2.9585,-2.9473,-2.9225,-2.9651,-2.9157,-2.8463,-2.8271,-2.7919,-2.769,-2.8073,-2.7859,-2.7428,-2.6979,-2.6543,-2.5885,-2.4575,-2.3939,-2.3595,-2.3595,-2.3999,-2.4582,-2.5402,0.0,0.0,0.0,0.0,0.0,0.0,-2.5053,-2.4461,-2.3374,0.0,0.0,0.0,0.0,0.0,0.0,0.0,0.0,0.0,0.0,0.0,0.0,-2.7705,-2.8113,-2.8607,-2.8801,-2.946,-3.0507,-3.0717,-3.1047,-3.1511,-3.1511,-3.1511,-3.1555,-3.2213,-3.2901,-3.3559,-3.4249,-3.4906,-3.5504,-3.5504,-3.5651,-3.5894,-1.1329,-1.3505,-1.619,-1.8693,-1.8943,-1.9791,-2.2849,-2.2985,-2.2909,-2.3434,-2.3514,-2.4069,-2.5469,-2.4664,-2.4023,-2.4023,-2.3648,-2.3131,-2.2483,-2.323,-2.3403,0.0,0.0,-2.3924,-2.4575,-2.4605,-2.4933,-2.5615,0.0,0.0,-2.6641,0.0,-2.76,-2.76,-2.7585,-2.7585,-2.76,-2.7585,-2.7585,-2.76,-2.76,-2.76,-2.76,-2.76,-2.7585,-2.7625,-2.76,-2.7625,-2.771,-2.8286,-2.8091,-2.7735,-2.8319,-2.8511,-2.8511,-2.8511,-2.8511,-2.8367,-2.776,-2.7625,-2.7585,-2.7441,-2.7412,-2.7056,-2.5719,-2.541,-2.5075,-2.3853,-2.361,-2.3595,-2.3595,-2.361,-2.4014,-2.5201,0.0,0.0,0.0,0.0,0.0,0.0,-2.5187,-2.5307,-2.4627,0.0,0.0,0.0,0.0,0.0,0.0,0.0,0.0,-2.5591,-2.6243,0.0,-2.6602,-2.7934,-2.8592,-2.8607,-2.9265,-2.9894,-3.0522,-3.1182,-3.1496,-3.1511,-3.1511,-3.1511,-3.1555,-3.2213,-3.2901,-3.3559,-3.4249,-3.4906,-3.5504,-3.5504,-3.5943,-3.6584,-1.1655,-1.3708,-1.6221,-1.892,-1.9323,-2.004,-2.2408,-2.2409,-2.2361,-2.2871,-2.2681,-2.3154,-2.4977,-2.4186,-2.3652,0.0,-2.3158,-2.274,0.0,-2.2987,-2.3237,-2.3904,-2.4145,-2.459,-2.5262,-2.5734,-2.6063,-2.6273,0.0,0.0,0.0,-2.7495,-2.76,-2.76,-2.76,-2.76,-2.76,-2.76,-2.76,-2.76,-2.76,-2.76,-2.76,-2.76,-2.76,-2.76,-2.76,-2.76,-2.7625,-2.7835,-2.776,-2.7625,-2.7835,-2.7885,-2.8042,-2.8857,-2.8826,-2.8559,-2.8779,-2.8834,-2.8926,-2.9273,-2.907,-2.8525,-2.7634,-2.6094,-2.4889,-2.4934,-2.4938,-2.4869,-2.4836,-2.5165,-2.5559,-2.5877,-2.5633,0.0,0.0,0.0,0.0,0.0,-2.5068,-2.5008,0.0,-2.5899,0.0,0.0,0.0,0.0,0.0,0.0,0.0,0.0,-2.718,0.0,-2.8648,-2.8607,-2.9041,-2.9894,-3.0103,-3.0791,-3.1869,-3.1615,-3.175,-3.2168,-3.2168,-3.2168,-3.2258,-3.3395,-3.3978,-3.4264,-3.4921,-3.531,-3.5504,-3.5504,-3.5975,-3.6676,-1.1635,-1.369,-1.6042,-1.8134,-1.8929,-1.98,-2.1395,-2.1646,-2.1777,-2.2097,-2.1727,-2.2012,-2.3413,-2.3259,0.0,-2.4216,-2.3088,-2.247,-2.2902,-2.2684,-2.3008,-2.412,-2.4413,-2.4887,-2.5576,0.0,0.0,-2.6587,-2.727,-2.76,-2.76,-2.76,-2.76,-2.76,-2.76,-2.76,-2.76,-2.76,-2.76,-2.76,-2.76,-2.76,-2.76,-2.76,-2.76,-2.76,-2.76,-2.76,-2.76,-2.76,-2.76,-2.76,-2.76,-2.776,-2.8091,-2.885,-2.8803,-2.863,-2.9225,-2.9406,-2.9476,-2.98,-2.9592,-2.9097,-2.8201,-2.6601,-2.5439,-2.5849,-2.5889,-2.5928,-2.612,-2.6232,-2.6294,-2.6234,-2.5729,-2.5404,-2.5629,0.0,0.0,0.0,0.0,0.0,0.0,-2.6572,0.0,0.0,0.0,0.0,0.0,0.0,0.0,-2.7959,-2.7989,0.0,-2.9592,-2.94,-2.9714,-3.0507,-3.1016,-3.1824,-3.2871,-3.2452,-3.2497,-3.2886,-3.2886,-3.2886,-3.2961,-3.4038,-3.4503,-3.4578,-3.5235,-3.5504,-3.5537,-3.5814,-3.6415,-3.7114,-1.1344,-1.351,0.0,0.0,-1.7965,0.0,-2.0047,-2.0772,-2.119,-2.119,-2.0918,-2.0851,-2.1292,-2.2226,-2.3329,-2.4696,0.0,0.0,0.0,-2.2437,-2.2844,-2.3701,-2.4269,-2.4951,-2.5726,-2.6348,-2.6662,-2.6662,-2.73,-2.76,-2.76,-2.76,-2.76,-2.76,-2.76,-2.76,-2.76,-2.76,-2.76,-2.76,-2.76,-2.76,-2.76,-2.76,-2.76,-2.76,-2.76,-2.76,-2.76,-2.76,-2.76,-2.76,-2.76,-2.8018,-2.8487,-2.8487,-2.8559,-2.8756,-2.9316,-2.9496,-2.949,-2.9354,-2.9312,-2.8968,-2.7771,-2.7051,-2.666,-2.6691,-2.6698,-2.6853,-2.7361,-2.6893,-2.6406,-2.631,-2.5654,-2.4969,-2.4471,0.0,0.0,0.0,0.0,0.0,0.0,-2.724,-2.7615,0.0,0.0,0.0,0.0,0.0,-2.8049,-2.8712,-2.8682,-2.9011,-2.9726,-3.0238,-3.0522,-3.0597,-3.1898,-3.2856,-3.3499,-3.3499,-3.3529,-3.3559,-3.3559,-3.3559,-3.3619,-3.4309,-3.4578,-3.4638,-3.525,-3.5504,-3.5587,-3.6337,-3.7054,-3.7719,0.0,0.0,-1.5503,-1.6884,-1.7873,-1.8903,-2.0045,-2.0772,-2.119,-2.119,-2.1475,-2.1996,-2.2882,-2.3485,-2.412,-2.4728,-2.4067,-2.3414,-2.2945,-2.3015,-2.3658,-2.4929,-2.5173,-2.585,-2.7096,-2.7285,-2.736,-2.736,-2.7525,-2.76,-2.76,-2.76,-2.76,-2.76,-2.76,-2.76,-2.76,-2.76,-2.76,-2.76,-2.76,-2.76,-2.76,-2.76,-2.76,-2.76,-2.76,-2.76,-2.76,-2.76,-2.76,-2.76,-2.76,-2.8018,-2.8487,-2.8487,-2.9157,-2.9908,-3.0059,-3.0435,-3.0767,-3.072,-3.0372,-2.9955,-2.9669,-2.8737,-2.8092,-2.8605,-2.8673,-2.8494,-2.802,-2.7833,-2.7377,-2.6241,-2.5236,-2.4552,-2.441,-2.449,0.0,0.0,-2.5959,-2.6641,-2.73,-2.751,-2.7809,0.0,0.0,0.0,0.0,-2.9217,-2.9427,-3.0028,-2.9594,-2.9909,-3.1032,-3.0687,-3.0776,-3.1271,-3.2093,-3.2856,-3.3499,-3.3499,-3.3769,-3.4279,-3.4279,-3.4279,-3.4339,-3.4981,-3.5265,-3.528,-3.5444,-3.5504,-3.5587,-3.6337,-3.6722,-3.6964,-1.1172,-1.3135,-1.4984,-1.5637,-1.7079,-1.8388,-1.9097,-2.0195,-2.0996,-2.1171,-2.1659,-2.2215,-2.2739,-2.3867,-2.4451,-2.4148,-2.4039,-2.3753,-2.3145,-2.3174,-2.3863,-2.5329,-2.5419,-2.5992,-2.7126,-2.7435,-2.76,-2.76,-2.76,-2.76,-2.76,-2.76,-2.76,-2.76,-2.76,-2.76,-2.76,-2.76,-2.76,-2.76,-2.76,-2.76,-2.76,-2.76,-2.76,-2.76,-2.76,-2.76,-2.76,-2.76,-2.76,-2.76,-2.76,-2.8198,-2.8919,-2.8919,-2.9563,-3.0356,-3.0638,-3.0938,-3.119,-3.119,-3.0938,-3.0638,-3.0356,-2.9753,-2.9361,-2.9745,-2.9791,-2.9703,-2.9543,-2.8793,-2.7871,-2.6817,-2.5382,-2.4307,-2.4074,-2.4354,0.0,-2.5516,-2.6183,-2.6866,-2.7525,-2.7884,-2.8203,-2.8577,0.0,0.0,-3.0432,-3.0761,-3.0941,-3.0943,-3.0657,-3.1106,-3.2392,-3.1764,-3.1913,-3.2886,-3.2931,-3.3469,-3.4412,-3.4412,-3.4607,-3.4951,-3.4951,-3.4951,-3.4981,-3.5355,-3.5504,-3.5504,-3.5504,-3.5504,-3.5587,-3.6337,-3.6615,-3.6661,-1.0696,-1.2724,-1.4389,-1.4188,-1.6148,-1.7763,-1.7888,-1.9414,-2.0781,-2.1273,-2.184,-2.2291,-2.244,-2.4108,-2.4763,-2.3618,-2.3877,-2.3872,-2.3326,-2.3275,-2.3959,-2.5508,-2.5563,-2.5946,-2.6727,-2.7315,-2.76,-2.76,-2.76,-2.76,-2.76,-2.76,-2.76,-2.76,-2.76,-2.76,-2.76,-2.76,-2.76,-2.76,-2.76,-2.76,-2.76,-2.76,-2.76,-2.76,-2.76,-2.76,-2.76,-2.76,-2.76,-2.7625,-2.771,-2.8496,-2.9429,-2.9518,-2.9957,-3.0539,-3.1055,-3.119,-3.119,-3.119,-3.119,-3.1055,-3.0539,-3.0435,-3.0435,-3.0435,-3.0435,-3.0493,-3.0712,-2.9293,-2.7872,-2.7217,-2.5508,-2.4177,-2.3929,0.0,-2.5038,-2.5809,-2.6482,-2.718,-2.7839,-2.8438,-2.8831,-2.9026,-3.0043,-3.1001,0.0,-3.2333,-3.2452,-3.1959,-3.1854,-3.2333,-3.3484,-3.2946,-3.3215,-3.4354,-3.3858,-3.4247,-3.5355,-3.5459,-3.5504,-3.5504,-3.5504,-3.5504,-3.5504,-3.5504,-3.5504,-3.5504,-3.5504,-3.5504,-3.5587,-3.6337,-3.6523,-3.6446,-1.0987,-1.2701,-1.4215,-1.4422,-1.6061,-1.7384,-1.7425,-1.9231,-2.0925,-2.1762,-2.2681,-2.3588,-2.4445,-2.5581,-2.5797,-2.4681,-2.4636,-2.4525,-2.4125,-2.4118,-2.4781,-2.6256,-2.6336,-2.6663,-2.7425,-2.754,-2.76,-2.76,-2.76,-2.76,-2.76,-2.76,-2.76,-2.76,-2.76,-2.76,-2.76,-2.76,-2.76,-2.76,-2.76,-2.76,-2.76,-2.76,-2.76,-2.76,-2.76,-2.76,-2.76,-2.76,-2.76,-2.7685,-2.8213,-2.885,-2.9496,-3.0016,-3.058,-3.1075,-3.1171,-3.119,-3.119,-3.119,-3.119,-3.1171,-3.1075,-3.1055,-3.1055,-3.1055,-3.1055,-3.0569,-2.8968,-2.8032,-2.7128,-2.5926,-2.4594,-2.4093,-2.5136,0.0,-2.5899,-2.7151,-2.7874,-2.8547,-2.9232,-2.9397,-2.9894,-3.0972,-3.1227,-3.1869,-3.3125,-3.329,-3.3559,-3.4008,-3.3484,-3.329,-3.3499,-3.3395,-3.344,-3.3649,-3.4098,-3.4459,-3.4651,-3.5235,-3.5504,-3.5504,-3.5504,-3.5504,-3.5504,-3.5504,-3.5504,-3.5504,-3.5504,-3.5504,-3.5587,-3.6337,-3.6196,-3.575,-1.1358,-1.2894,-1.4128,-1.4262,-1.5482,-1.6642,-1.7212,-1.8709,-2.0294,-2.18,-2.2888,-2.3891,-2.4898,-2.5908,-2.6047,-2.4888,-2.5154,-2.5245,-2.4919,-2.4509,-2.4794,-2.5864,-2.6283,-2.6852,-2.7575,-2.76,-2.76,-2.76,-2.76,-2.76,-2.76,-2.76,-2.76,-2.76,-2.76,-2.76,-2.76,-2.76,-2.76,-2.76,-2.76,-2.76,-2.76,-2.76,-2.76,-2.76,-2.76,-2.76,-2.76,-2.76,-2.781,-2.814,-2.8415,-2.9134,-2.9935,-3.0208,-3.072,-3.119,-3.119,-3.119,-3.119,-3.119,-3.119,-3.119,-3.119,-3.119,-3.119,-3.119,-3.119,-3.0715,-2.9085,-2.8046,-2.7104,-2.6162,-2.4654,0.0,0.0,-2.5914,-2.6497,-2.748,-2.8513,-2.925,-2.9577,-2.9879,-3.0477,-3.1436,-3.1824,-3.2632,-3.3979,-3.4054,-3.4369,-3.5011,-3.4741,-3.4577,-3.4577,-3.4203,-3.4203,-3.4577,-3.4502,-3.4698,-3.504,-3.5355,-3.5504,-3.5504,-3.5504,-3.5504,-3.5504,-3.5504,-3.5504,-3.5504,-3.5504,-3.5504,-3.5537,-3.5894,-3.5782,-3.5554,-1.1647,-1.3058,-1.4113,-1.4095,-1.479,-1.5775,-1.7098,-1.827,-1.9806,-2.2065,-2.3036,-2.3963,-2.5229,-2.5901,-2.5908,-2.4876,-2.5216,-2.5301,-2.4905,-2.4681,-2.4951,-2.5864,-2.6443,-2.7008,-2.76,-2.76,-2.76,-2.76,-2.76,-2.76,-2.76,-2.76,-2.76,-2.76,-2.76,-2.76,-2.76,-2.76,-2.76,-2.76,-2.76,-2.76,-2.76,-2.76,-2.76,-2.76,-2.76,-2.76,-2.7625,-2.776,-2.8116,-2.8559,-2.8826,-2.9563,-3.033,-3.0477,-3.0838,-3.119,-3.119,-3.119,-3.119,-3.119,-3.119,-3.119,-3.119,-3.119,-3.119,-3.119,-3.119,-3.076,-2.9354,-2.8281,-2.7392,-2.6638,0.0,0.0,0.0,-2.6602,-2.7195,-2.8169,-2.931,-3.0088,-3.0253,-3.0836,-3.148,-3.2138,-3.2677,-3.3484,-3.4651,-3.4711,-3.4966,-3.5489,-3.5504,-3.5504,-3.5504,-3.4981,-3.4981,-3.5489,-3.4966,-3.4996,-3.5504,-3.5504,-3.5504,-3.5504,-3.5504,-3.5504,-3.5504,-3.5504,-3.5504,-3.5504,-3.5504,-3.5609,-3.5714,-3.5564,-3.5699,-3.5923,-1.1647,-1.3022,-1.411,-1.4086,-1.4148,-1.4916,-1.6992,-1.827,-2.0061,-2.2988,-2.3441,-2.4253,-2.6164,-2.5941,-2.5435,-2.4838,-2.4419,-2.3883,-2.3313,-2.4553,-2.5946,-2.7382,-2.7484,-2.7534,-2.76,-2.76,-2.76,-2.76,-2.76,-2.76,-2.76,-2.76,-2.76,-2.76,-2.76,-2.76,-2.76,-2.76,-2.76,-2.76,-2.76,-2.76,-2.76,-2.76,-2.76,-2.76,-2.76,-2.76,-2.77,-2.8262,-2.8463,-2.8701,-2.9805,-3.023,-3.0414,-3.0975,-3.1171,-3.119,-3.119,-3.119,-3.119,-3.119,-3.119,-3.119,-3.119,-3.119,-3.119,-3.119,-3.119,-3.064,-2.8801,-2.8383,-2.7943,-2.6786,0.0,0.0,-2.8098,-2.7899,-2.8214,-3.0073,-3.0913,-3.16,-3.2243,-3.2886,-3.3544,-3.4234,-3.4339,-3.4651,-3.5385,-3.5429,-3.5444,-3.5504,-3.5504,-3.5504,-3.5504,-3.5459,-3.5459,-3.5504,-3.5444,-3.5459,-3.5504,-3.5504,-3.5504,-3.5504,-3.5504,-3.5504,-3.5504,-3.5504,-3.5504,-3.5504,-3.5504,-3.5878,-3.6342,-3.5729,-3.6252,-3.718,-1.2869,-1.3713,-1.4117,-1.4102,-1.4115,-1.4671,-1.6351,-1.7764,-1.9803,-2.3073,-2.322,-2.3732,-2.5743,-2.5435,-2.4895,-2.4356,-2.4528,-2.4644,-2.4536,-2.5063,-2.6054,-2.7549,-2.76,-2.7382,-2.693,-2.7357,-2.7382,-2.693,-2.7382,-2.76,-2.76,-2.76,-2.76,-2.76,-2.76,-2.76,-2.76,-2.76,-2.76,-2.76,-2.76,-2.76,-2.76,-2.76,-2.76,-2.76,-2.76,-2.76,-2.7685,-2.831,-2.8756,-2.9203,-3.0038,-3.0576,-3.0898,-3.1131,-3.119,-3.119,-3.119,-3.119,-3.119,-3.119,-3.119,-3.119,-3.119,-3.119,-3.1095,-3.072,-3.0638,-3.0079,-2.8193,-2.7828,-2.7712,-2.7299,0.0,-2.6916,-2.8921,-2.9007,-2.9262,-3.0372,-3.1451,-3.2213,-3.2497,-3.311,-3.3769,-3.4459,-3.4503,-3.4771,-3.5474,-3.5504,-3.5504,-3.5504,-3.5504,-3.5504,-3.5504,-3.5504,-3.5504,-3.5504,-3.5504,-3.5504,-3.5504,-3.5504,-3.5504,-3.5504,-3.5504,-3.5504,-3.5504,-3.5504,-3.5504,-3.5504,-3.5504,-3.5654,-3.5893,-3.6058,-3.6417,-3.6851,-1.3634,-1.4087,-1.4097,-1.4102,-1.4113,-1.4551,-1.597,-1.7448,-1.9622,-2.3047,-2.3017,-2.3513,-2.5669,-2.5084,-2.4481,-2.428,-2.4397,-2.4524,-2.4666,-2.4922,-2.5618,-2.6864,-2.6916,-2.668,-2.6176,-2.6654,-2.6759,-2.651,-2.7008,-2.7382,-2.76,-2.76,-2.76,-2.76,-2.76,-2.76,-2.76,-2.76,-2.76,-2.76,-2.76,-2.76,-2.76,-2.76,-2.76,-2.76,-2.76,-2.76,-2.771,-2.8511,-2.9042,-2.954,-3.0335,-3.074,-3.0938,-3.1151,-3.1055,-3.0975,-3.1151,-3.119,-3.119,-3.119,-3.119,-3.119,-3.119,-3.1055,-3.0797,-3.0393,-3.0325,-2.9873,-2.8397,-2.8302,-2.8396,-2.8241,-2.7854,-2.8083,-2.9654,-2.9864,-3.0178,-3.1031,-3.2138,-3.2901,-3.311,-3.3739,-3.4322,-3.4788,-3.4801,-3.4996,-3.5489,-3.5504,-3.5504,-3.5504,-3.5504,-3.5504,-3.5504,-3.5504,-3.5504,-3.5504,-3.5504,-3.5504,-3.5504,-3.5504,-3.5504,-3.5504,-3.5504,-3.5504,-3.5504,-3.5504,-3.5504,-3.5504,-3.5504,-3.5744,-3.6133,-3.6387,-3.6881,-3.7434,-1.3628,-1.4097,-1.4087,-1.4093,-1.413,-1.4586,-1.6001,-1.7448,-1.9631,-2.3047,-2.3017,-2.3652,-2.6205,-2.5016,-2.4217,-2.4725,-2.3747,-2.3108,-2.3108,-2.3855,-2.4624,-2.5342,-2.5398,-2.5398,-2.5398,-2.5398,-2.5755,-2.6484,-2.651,-2.6878,-2.76,-2.76,-2.76,-2.76,-2.76,-2.76,-2.76,-2.76,-2.76,-2.76,-2.76,-2.76,-2.76,-2.76,-2.76,-2.76,-2.76,-2.76,-2.777,-2.8996,-2.9406,-2.9607,-3.0818,-3.0781,-3.0414,-3.1015,-3.076,-3.0435,-3.1015,-3.119,-3.119,-3.119,-3.119,-3.119,-3.119,-3.0736,-3.0309,-3.0288,-3.035,-3.0228,-2.9608,-3.0041,-3.0299,-2.9714,-2.9621,-2.9831,-3.0417,-3.0507,-3.1016,-3.2333,-3.3095,-3.3769,-3.4444,-3.51,-3.5504,-3.5504,-3.5504,-3.5504,-3.5504,-3.5504,-3.5504,-3.5504,-3.5504,-3.5504,-3.5504,-3.5504,-3.5504,-3.5504,-3.5504,-3.5504,-3.5504,-3.5504,-3.5504,-3.5504,-3.5504,-3.5504,-3.5504,-3.5504,-3.5504,-3.5504,-3.5472,-3.6249,-3.7295,-3.6716,-3.7734,-3.9284,-1.254,-1.3504,-1.409,-1.4102,-1.4909,-1.6069,-1.7506,-1.8995,-2.0791,-2.318,-2.3017,-2.3386,-2.5124,-2.4519,-2.3904,-2.3634,-2.3296,-2.3108,-2.3108,-2.3855,-2.4147,-2.3813,-2.4838,-2.5147,-2.4652,-2.5147,-2.5508,-2.5728,-2.6256,-2.6878,-2.76,-2.76,-2.76,-2.76,-2.76,-2.76,-2.76,-2.76,-2.76,-2.76,-2.76,-2.76,-2.76,-2.76,-2.76,-2.76,-2.76,-2.76,-2.777,-2.8996,-2.9406,-2.954,-3.0314,-3.0456,-3.0251,-3.0016,-2.9805,-2.9695,-2.9908,-2.9935,-3.0145,-3.0995,-3.0878,-3.0559,-3.0559,-3.0473,-3.0257,-2.9816,-3.0145,-3.0297,-2.9674,-2.9735,-2.9942,-3.0176,-3.0223,-3.0462,-3.1107,-3.16,-3.2063,-3.2437,-3.3499,-3.4294,-3.4488,-3.51,-3.5504,-3.5504,-3.5504,-3.5504,-3.5504,-3.5504,-3.5504,-3.5504,-3.5504,-3.5504,-3.5504,-3.5504,-3.5504,-3.5504,-3.5504,-3.5504,-3.5504,-3.5504,-3.5504,-3.5504,-3.5504,-3.5504,-3.5504,-3.5504,-3.51,-3.4486,-3.4918,-3.4864,-3.4667,-3.5373,-3.6478,-3.7601,-1.2072,-1.3288,-1.4088,-1.4088,-1.5264,-1.6704,-1.8177,-1.9638,-2.131,-2.3265,-2.2849,-2.3087,-2.4937,-2.4255,-2.3572,-2.3459,-2.3233,-2.3108,-2.3108,-2.3573,-2.3619,-2.3138,-2.3989,-2.4266,-2.3826,-2.4266,-2.4639,-2.4951,-2.5701,-2.6443,-2.7178,-2.7458,-2.76,-2.76,-2.76,-2.76,-2.76,-2.76,-2.76,-2.76,-2.76,-2.76,-2.76,-2.76,-2.76,-2.76,-2.76,-2.776,-2.8067,-2.8803,-2.9203,-2.9496,-3.0123,-2.9957,-2.9563,-2.9429,-2.9225,-2.9104,-2.9339,-2.9406,-2.9627,-3.0634,-3.0614,-3.0337,-3.0337,-3.0389,-3.0326,-2.9971,-3.0222,-3.038,-3.0021,-3.0387,-3.0866,-3.124,-3.13,-3.1539,-3.2183,-3.2392,-3.2706,-3.323,-3.3993,-3.4608,-3.4861,-3.5265,-3.5504,-3.5504,-3.5504,-3.5504,-3.5504,-3.5504,-3.5504,-3.5504,-3.5504,-3.5504,-3.5504,-3.5504,-3.5504,-3.5504,-3.5504,-3.5504,-3.5504,-3.5504,-3.5504,-3.5504,-3.5504,-3.5504,-3.5472,-3.5067,-3.4543,-3.4016,-3.4228,-3.4108,-3.3974,-3.5386,-3.6448,-3.7333,-1.2242,-1.3336,-1.4124,-1.4208,-1.5382,-1.6778,-1.8241,-1.97,-2.128,-2.3106,-2.2555,-2.2823,-2.5049,-2.4004,-2.3341,-2.3785,-2.3378,-2.3108,-2.3108,-2.3108,-2.3108,-2.3108,-2.3108,-2.3108,-2.3108,-2.3108,-2.3484,-2.4292,-2.4951,-2.5673,-2.6431,-2.7086,-2.7408,-2.7408,-2.7458,-2.7484,-2.7524,-2.7575,-2.76,-2.76,-2.76,-2.76,-2.76,-2.76,-2.76,-2.76,-2.76,-2.7993,-2.8511,-2.863,-2.9035,-2.9563,-3.0043,-2.9429,-2.8606,-2.9088,-2.885,-2.855,-2.9167,-2.9321,-2.948,-3.0156,-3.0307,-3.0323,-3.0394,-3.0447,-3.0505,-3.0505,-3.06,-3.0687,-3.0687,-3.1734,-3.2602,-3.2602,-3.2602,-3.2811,-3.341,-3.3036,-3.314,-3.4354,-3.4563,-3.4816,-3.5444,-3.5504,-3.5504,-3.5504,-3.5504,-3.5504,-3.5504,-3.5504,-3.5504,-3.5504,-3.5504,-3.5504,-3.5504,-3.5504,-3.5504,-3.5504,-3.5504,-3.5504,-3.5504,-3.5504,-3.5504,-3.5504,-3.5504,-3.5504,-3.5424,-3.4428,-3.3959,-3.3831,-3.3451,-3.3577,-3.4252,-3.5897,-3.7,-3.7757,-1.347,-1.3913,-1.437,-1.522,-1.6288,-1.748,-1.8674,-1.9861,-2.1032,-2.2151,-2.2459,-2.2587,-2.2777,-2.3401,-2.3418,-2.2435,-2.2806,-2.3108,-2.3108,-2.3108,-2.3108,-2.3108,-2.3108,-2.3108,-2.3108,-2.3108,-2.3484,-2.4292,-2.4452,-2.4922,-2.5646,-2.581,-2.5892,-2.5892,-2.6469,-2.6747,-2.6774,-2.7357,-2.76,-2.76,-2.76,-2.76,-2.76,-2.76,-2.76,-2.76,-2.76,-2.7993,-2.8638,-2.9585,-2.9995,-3.0059,-2.9695,-2.9088,-2.8415,-2.8076,-2.7894,-2.7956,-2.8586,-2.8774,-2.8941,-2.9609,-2.9654,-2.9699,-3.034,-3.0486,-3.0503,-3.0503,-3.1326,-3.2078,-3.2078,-3.2736,-3.3275,-3.3275,-3.3275,-3.3335,-3.3469,-3.3814,-3.4189,-3.4474,-3.4951,-3.534,-3.5489,-3.5504,-3.5504,-3.5504,-3.5504,-3.5504,-3.5504,-3.5504,-3.5504,-3.5504,-3.5504,-3.5504,-3.5504,-3.5504,-3.5504,-3.5504,-3.5504,-3.5504,-3.5504,-3.5504,-3.5504,-3.5504,-3.5504,-3.5504,-3.5424,-3.4428,-3.3567,-3.2875,-3.2462,-3.1938,-3.168,-3.3687,-3.5047,-3.6234,-1.3864,-1.4088,-1.4454,-1.5496,-1.6601,-1.7658,-1.8838,-1.9923,-2.0934,-2.1886,-2.1997,-2.1983,-2.1988,-2.2389,-2.2276,-2.1368,-2.2032,-2.2537,-2.2537,-2.2884,-2.3108,-2.3108,-2.3108,-2.3108,-2.3108,-2.3108,-2.3305,-2.3738,-2.4118,-2.4509,-2.4879,-2.5231,-2.5398,-2.5425,-2.5783,-2.6176,-2.6537,-2.6904,-2.728,-2.763,-2.7959,-2.8094,-2.8124,-2.8438,-2.8558,-2.8513,-2.8199,-2.8057,-2.8247,-2.9473,-2.948,-2.9019,-2.8973,-2.8559,-2.7993,-2.7685,-2.7824,-2.8143,-2.8502,-2.9041,-2.956,-2.9793,-3.0001,-3.0116,-2.9954,-2.9839,-2.9866,-3.0094,-3.0729,-3.143,-3.2154,-3.2864,-3.3463,-3.3901,-3.3994,-3.4083,-3.4412,-3.4488,-3.4638,-3.4936,-3.5295,-3.5504,-3.5504,-3.5504,-3.5504,-3.5504,-3.5504,-3.5504,-3.5504,-3.5504,-3.5504,-3.5504,-3.5504,-3.5504,-3.5504,-3.5504,-3.5669,-3.5968,-3.5968,-3.5804,-3.5534,-3.6133,-3.6073,-3.5519,-3.5833,-3.5804,-3.5392,-3.3925,-3.3031,-3.2555,-3.2177,-3.1902,-3.2044,-3.4367,-3.6121,-3.7509,-1.3906,-1.4088,-1.4454,-1.5496,-1.6601,-1.7658,-1.8838,-1.9923,-2.0895,-2.1659,-2.138,-2.1227,-2.1503,-2.1161,-2.0797,-2.0624,-2.1396,-2.1908,-2.1908,-2.2641,-2.3108,-2.3108,-2.3108,-2.3108,-2.3108,-2.3108,-2.3108,-2.3108,-2.3767,-2.4089,-2.4118,-2.4724,-2.5007,-2.5007,-2.5147,-2.5618,-2.6324,-2.6572,-2.7106,-2.7839,-2.8487,-2.8771,-2.8831,-2.9397,-2.9532,-2.9355,-2.8921,-2.84,-2.8071,-2.9067,-2.867,-2.7835,-2.8343,-2.8091,-2.76,-2.76,-2.7961,-2.8381,-2.8527,-2.9368,-3.0177,-3.0072,-3.0438,-3.0542,-2.9539,-2.9292,-2.938,-2.9857,-3.0036,-3.0554,-3.2004,-3.2813,-3.3558,-3.4524,-3.4683,-3.4861,-3.5429,-3.5011,-3.4861,-3.5429,-3.5504,-3.5504,-3.5504,-3.5504,-3.5504,-3.5504,-3.5504,-3.5504,-3.5504,-3.5504,-3.5504,-3.5504,-3.5609,-3.5669,-3.5669,-3.5609,-3.5856,-3.6391,-3.6325,-3.6145,-3.5863,-3.6821,-3.6731,-3.5863,-3.6402,-3.6267,-3.5523,-3.3585,-3.269,-3.2541,-3.207,-3.2196,-3.3021,-3.569,-3.7762,-3.926,-1.4088,-1.4088,-1.4454,-1.5496,-1.6601,-1.7658,-1.8838,-1.9923,-2.0644,-2.0789,-2.0726,-2.0426,-1.9749,-1.961,-1.9856,-2.0526,-2.1396,-2.1908,-2.1908,-2.2641,-2.3108,-2.3108,-2.3108,-2.3108,-2.3108,-2.3108,-2.3108,-2.3108,-2.3215,-2.3245,-2.3245,-2.3365,-2.3412,-2.3442,-2.4147,-2.4879,-2.5633,-2.6841,-2.7779,-2.8517,-2.9175,-2.9472,-2.9487,-2.9577,-2.922,-2.8801,-2.9307,-2.9375,-2.9252,-2.9363,-2.8927,-2.8391,-2.8463,-2.8091,-2.76,-2.76,-2.7527,-2.7615,-2.8193,-2.8661,-2.9164,-2.9707,-2.9733,-2.9606,-2.9411,-2.9889,-3.041,-3.0458,-3.0952,-3.1694,-3.2777,-3.3461,-3.4196,-3.521,-3.537,-3.54,-3.5489,-3.5429,-3.54,-3.5489,-3.5504,-3.5504,-3.5504,-3.5504,-3.5504,-3.5504,-3.5504,-3.5504,-3.5504,-3.5504,-3.5504,-3.5504,-3.6058,-3.6357,-3.6357,-3.6014,-3.5883,-3.5984,-3.5624,-3.6069,-3.7135,-3.6776,-3.6806,-3.7165,-3.724,-3.6926,-3.6209,-3.4271,-3.3113,-3.25,-3.1653,-3.1338,-3.1835,-3.4957,-3.716,-3.8616,-1.4088,-1.4088,-1.4454,-1.5496,-1.6601,-1.7658,-1.8838,-1.9923,-2.0517,-2.0234,-2.019,-1.9972,-1.9389,-1.9073,-1.8985,-1.9131,-2.0398,-2.1164,-2.1164,-2.2372,-2.3108,-2.3108,-2.3108,-2.3108,-2.3108,-2.3108,-2.3108,-2.3108,-2.3108,-2.3335,-2.378,-2.4136,-2.4305,-2.4436,-2.5513,-2.6199,-2.6592,-2.7249,-2.8142,-2.9175,-2.9487,-2.9789,-3.0103,-3.0103,-2.9924,-2.9654,-2.9594,-2.9358,-2.8992,-2.8947,-2.9041,-2.8971,-2.8236,-2.7799,-2.7477,-2.7099,-2.6718,-2.6544,-2.71,-2.7691,-2.8183,-2.8178,-2.8839,-2.931,-2.8787,-2.9424,-3.0072,-2.9732,-2.9899,-3.0654,-3.2479,-3.3037,-3.3719,-3.5246,-3.5504,-3.5504,-3.5504,-3.5504,-3.5504,-3.5504,-3.5504,-3.5504,-3.5504,-3.5504,-3.5504,-3.5504,-3.5504,-3.5504,-3.5504,-3.5504,-3.5504,-3.5504,-3.5789,-3.5822,-3.5605,-3.5435,-3.541,-3.5559,-3.5,-3.5083,-3.5675,-3.6141,-3.6404,-3.6591,-3.6927,-3.7033,-3.685,-3.4858,-3.3887,-3.3537,-3.2731,-3.3348,-3.4882,-3.6666,-3.8044,-3.9005]}]]